<?xml version="1.0" encoding="UTF-8" standalone="no" ?>
<gpx xmlns="http://www.topografix.com/GPX/1/1" xmlns:xsi="http://www.w3.org/2001/XMLSchema-instance" xsi:schemaLocation="http://www.topografix.com/GPX/1/1 http://www.topografix.com/GPX/1/1/gpx.xsd" version="1.1" creator="VisuGPX - https://www.visugpx.com">
  <metadata>
    <name>GR6 étp 46 (14)-11/07/2020 Livinhac le Haut Figeac</name>
  </metadata>
  <trk>
    <name><![CDATA[14-11/07/2020 Livinhac le Haut Figeac]]></name>
    <trkseg>
      <trkpt lat="44.58777" lon="2.23118">
        <ele>141.45</ele>
        <time>2020-07-11T06:13:33Z</time>
      </trkpt>
      <trkpt lat="44.58777" lon="2.2312">
        <ele>194.32</ele>
        <time>2020-07-11T06:13:42Z</time>
      </trkpt>
      <trkpt lat="44.58777" lon="2.2312">
        <ele>194.32</ele>
        <time>2020-07-11T06:13:43Z</time>
      </trkpt>
      <trkpt lat="44.58783" lon="2.23126">
        <ele>194.32</ele>
        <time>2020-07-11T06:14:08Z</time>
      </trkpt>
      <trkpt lat="44.58779" lon="2.23126">
        <ele>194.8</ele>
        <time>2020-07-11T06:14:30Z</time>
      </trkpt>
      <trkpt lat="44.58768" lon="2.23142">
        <ele>191.44</ele>
        <time>2020-07-11T06:14:49Z</time>
      </trkpt>
      <trkpt lat="44.58764" lon="2.23122">
        <ele>191.44</ele>
        <time>2020-07-11T06:15:13Z</time>
      </trkpt>
      <trkpt lat="44.58788" lon="2.23123">
        <ele>191.92</ele>
        <time>2020-07-11T06:15:34Z</time>
      </trkpt>
      <trkpt lat="44.58811" lon="2.23132">
        <ele>192.88</ele>
        <time>2020-07-11T06:15:54Z</time>
      </trkpt>
      <trkpt lat="44.58811" lon="2.23133">
        <ele>192.88</ele>
        <time>2020-07-11T06:15:55Z</time>
      </trkpt>
      <trkpt lat="44.58814" lon="2.23135">
        <ele>192.88</ele>
        <time>2020-07-11T06:15:58Z</time>
      </trkpt>
      <trkpt lat="44.58834" lon="2.23149">
        <ele>193.36</ele>
        <time>2020-07-11T06:16:14Z</time>
      </trkpt>
      <trkpt lat="44.58845" lon="2.23156">
        <ele>193.84</ele>
        <time>2020-07-11T06:16:31Z</time>
      </trkpt>
      <trkpt lat="44.58853" lon="2.23162">
        <ele>193.84</ele>
        <time>2020-07-11T06:16:42Z</time>
      </trkpt>
      <trkpt lat="44.58864" lon="2.23167">
        <ele>194.32</ele>
        <time>2020-07-11T06:16:58Z</time>
      </trkpt>
      <trkpt lat="44.5887" lon="2.23174">
        <ele>195.28</ele>
        <time>2020-07-11T06:17:19Z</time>
      </trkpt>
      <trkpt lat="44.58883" lon="2.23188">
        <ele>196.73</ele>
        <time>2020-07-11T06:17:41Z</time>
      </trkpt>
      <trkpt lat="44.58889" lon="2.23206">
        <ele>198.17</ele>
        <time>2020-07-11T06:18:03Z</time>
      </trkpt>
      <trkpt lat="44.5889" lon="2.23208">
        <ele>198.17</ele>
        <time>2020-07-11T06:18:04Z</time>
      </trkpt>
      <trkpt lat="44.58896" lon="2.23214">
        <ele>198.17</ele>
        <time>2020-07-11T06:18:09Z</time>
      </trkpt>
      <trkpt lat="44.58913" lon="2.23235">
        <ele>200.09</ele>
        <time>2020-07-11T06:18:29Z</time>
      </trkpt>
      <trkpt lat="44.5892" lon="2.23235">
        <ele>199.61</ele>
        <time>2020-07-11T06:18:34Z</time>
      </trkpt>
      <trkpt lat="44.58938" lon="2.23232">
        <ele>201.53</ele>
        <time>2020-07-11T06:18:49Z</time>
      </trkpt>
      <trkpt lat="44.58939" lon="2.23232">
        <ele>201.53</ele>
        <time>2020-07-11T06:18:50Z</time>
      </trkpt>
      <trkpt lat="44.58943" lon="2.23232">
        <ele>201.53</ele>
        <time>2020-07-11T06:18:54Z</time>
      </trkpt>
      <trkpt lat="44.58954" lon="2.23237">
        <ele>202.01</ele>
        <time>2020-07-11T06:19:07Z</time>
      </trkpt>
      <trkpt lat="44.58958" lon="2.23237">
        <ele>202.49</ele>
        <time>2020-07-11T06:19:11Z</time>
      </trkpt>
      <trkpt lat="44.58971" lon="2.23237">
        <ele>202.49</ele>
        <time>2020-07-11T06:19:32Z</time>
      </trkpt>
      <trkpt lat="44.58977" lon="2.2324">
        <ele>203.46</ele>
        <time>2020-07-11T06:19:55Z</time>
      </trkpt>
      <trkpt lat="44.5898" lon="2.23247">
        <ele>204.9</ele>
        <time>2020-07-11T06:20:12Z</time>
      </trkpt>
      <trkpt lat="44.59014" lon="2.23238">
        <ele>206.34</ele>
        <time>2020-07-11T06:20:31Z</time>
      </trkpt>
      <trkpt lat="44.59036" lon="2.23236">
        <ele>208.74</ele>
        <time>2020-07-11T06:20:53Z</time>
      </trkpt>
      <trkpt lat="44.59048" lon="2.23227">
        <ele>210.19</ele>
        <time>2020-07-11T06:21:13Z</time>
      </trkpt>
      <trkpt lat="44.59072" lon="2.23223">
        <ele>212.11</ele>
        <time>2020-07-11T06:21:34Z</time>
      </trkpt>
      <trkpt lat="44.59102" lon="2.23212">
        <ele>214.51</ele>
        <time>2020-07-11T06:21:55Z</time>
      </trkpt>
      <trkpt lat="44.5911" lon="2.23205">
        <ele>216.43</ele>
        <time>2020-07-11T06:22:16Z</time>
      </trkpt>
      <trkpt lat="44.5912" lon="2.23186">
        <ele>219.32</ele>
        <time>2020-07-11T06:22:38Z</time>
      </trkpt>
      <trkpt lat="44.59116" lon="2.23167">
        <ele>220.28</ele>
        <time>2020-07-11T06:22:57Z</time>
      </trkpt>
      <trkpt lat="44.59116" lon="2.23157">
        <ele>220.76</ele>
        <time>2020-07-11T06:23:18Z</time>
      </trkpt>
      <trkpt lat="44.59113" lon="2.23163">
        <ele>220.76</ele>
        <time>2020-07-11T06:23:40Z</time>
      </trkpt>
      <trkpt lat="44.59118" lon="2.23176">
        <ele>221.24</ele>
        <time>2020-07-11T06:24:02Z</time>
      </trkpt>
      <trkpt lat="44.59129" lon="2.23152">
        <ele>222.2</ele>
        <time>2020-07-11T06:24:23Z</time>
      </trkpt>
      <trkpt lat="44.59139" lon="2.23136">
        <ele>223.16</ele>
        <time>2020-07-11T06:24:40Z</time>
      </trkpt>
      <trkpt lat="44.59138" lon="2.2313">
        <ele>223.16</ele>
        <time>2020-07-11T06:24:57Z</time>
      </trkpt>
      <trkpt lat="44.5914" lon="2.23123">
        <ele>223.16</ele>
        <time>2020-07-11T06:25:16Z</time>
      </trkpt>
      <trkpt lat="44.59141" lon="2.23119">
        <ele>223.16</ele>
        <time>2020-07-11T06:25:36Z</time>
      </trkpt>
      <trkpt lat="44.59139" lon="2.23127">
        <ele>223.16</ele>
        <time>2020-07-11T06:25:54Z</time>
      </trkpt>
      <trkpt lat="44.59145" lon="2.23125">
        <ele>223.16</ele>
        <time>2020-07-11T06:26:13Z</time>
      </trkpt>
      <trkpt lat="44.59149" lon="2.23117">
        <ele>223.16</ele>
        <time>2020-07-11T06:26:34Z</time>
      </trkpt>
      <trkpt lat="44.59146" lon="2.23097">
        <ele>223.64</ele>
        <time>2020-07-11T06:26:52Z</time>
      </trkpt>
      <trkpt lat="44.59143" lon="2.23091">
        <ele>223.64</ele>
        <time>2020-07-11T06:27:13Z</time>
      </trkpt>
      <trkpt lat="44.59134" lon="2.23063">
        <ele>220.28</ele>
        <time>2020-07-11T06:27:33Z</time>
      </trkpt>
      <trkpt lat="44.5913" lon="2.23048">
        <ele>219.32</ele>
        <time>2020-07-11T06:27:44Z</time>
      </trkpt>
      <trkpt lat="44.59125" lon="2.2304">
        <ele>218.84</ele>
        <time>2020-07-11T06:27:51Z</time>
      </trkpt>
      <trkpt lat="44.5913" lon="2.23016">
        <ele>218.36</ele>
        <time>2020-07-11T06:28:08Z</time>
      </trkpt>
      <trkpt lat="44.59134" lon="2.23007">
        <ele>217.88</ele>
        <time>2020-07-11T06:28:16Z</time>
      </trkpt>
      <trkpt lat="44.59137" lon="2.22998">
        <ele>217.4</ele>
        <time>2020-07-11T06:28:23Z</time>
      </trkpt>
      <trkpt lat="44.59141" lon="2.22988">
        <ele>217.4</ele>
        <time>2020-07-11T06:28:30Z</time>
      </trkpt>
      <trkpt lat="44.59152" lon="2.22964">
        <ele>214.99</ele>
        <time>2020-07-11T06:28:49Z</time>
      </trkpt>
      <trkpt lat="44.59162" lon="2.22945">
        <ele>216.43</ele>
        <time>2020-07-11T06:29:06Z</time>
      </trkpt>
      <trkpt lat="44.59169" lon="2.22926">
        <ele>214.99</ele>
        <time>2020-07-11T06:29:27Z</time>
      </trkpt>
      <trkpt lat="44.59173" lon="2.22914">
        <ele>214.03</ele>
        <time>2020-07-11T06:29:44Z</time>
      </trkpt>
      <trkpt lat="44.59181" lon="2.22884">
        <ele>212.11</ele>
        <time>2020-07-11T06:30:02Z</time>
      </trkpt>
      <trkpt lat="44.59185" lon="2.22875">
        <ele>211.63</ele>
        <time>2020-07-11T06:30:08Z</time>
      </trkpt>
      <trkpt lat="44.59192" lon="2.22866">
        <ele>210.67</ele>
        <time>2020-07-11T06:30:17Z</time>
      </trkpt>
      <trkpt lat="44.59205" lon="2.22847">
        <ele>209.22</ele>
        <time>2020-07-11T06:30:34Z</time>
      </trkpt>
      <trkpt lat="44.59212" lon="2.22841">
        <ele>209.22</ele>
        <time>2020-07-11T06:30:41Z</time>
      </trkpt>
      <trkpt lat="44.59236" lon="2.22831">
        <ele>208.74</ele>
        <time>2020-07-11T06:31:03Z</time>
      </trkpt>
      <trkpt lat="44.59235" lon="2.22832">
        <ele>209.7</ele>
        <time>2020-07-11T06:31:06Z</time>
      </trkpt>
      <trkpt lat="44.59225" lon="2.22826">
        <ele>209.7</ele>
        <time>2020-07-11T06:31:16Z</time>
      </trkpt>
      <trkpt lat="44.59209" lon="2.2282">
        <ele>208.74</ele>
        <time>2020-07-11T06:31:30Z</time>
      </trkpt>
      <trkpt lat="44.59211" lon="2.22817">
        <ele>208.26</ele>
        <time>2020-07-11T06:31:34Z</time>
      </trkpt>
      <trkpt lat="44.59219" lon="2.22814">
        <ele>206.82</ele>
        <time>2020-07-11T06:31:40Z</time>
      </trkpt>
      <trkpt lat="44.59248" lon="2.22807">
        <ele>203.46</ele>
        <time>2020-07-11T06:32:01Z</time>
      </trkpt>
      <trkpt lat="44.59273" lon="2.22798">
        <ele>201.53</ele>
        <time>2020-07-11T06:32:21Z</time>
      </trkpt>
      <trkpt lat="44.5929" lon="2.22788">
        <ele>200.09</ele>
        <time>2020-07-11T06:32:36Z</time>
      </trkpt>
      <trkpt lat="44.59312" lon="2.22764">
        <ele>199.61</ele>
        <time>2020-07-11T06:32:57Z</time>
      </trkpt>
      <trkpt lat="44.59334" lon="2.22747">
        <ele>197.69</ele>
        <time>2020-07-11T06:33:17Z</time>
      </trkpt>
      <trkpt lat="44.5934" lon="2.22743">
        <ele>198.17</ele>
        <time>2020-07-11T06:33:22Z</time>
      </trkpt>
      <trkpt lat="44.5935" lon="2.22738">
        <ele>196.73</ele>
        <time>2020-07-11T06:33:31Z</time>
      </trkpt>
      <trkpt lat="44.59367" lon="2.22724">
        <ele>196.73</ele>
        <time>2020-07-11T06:33:45Z</time>
      </trkpt>
      <trkpt lat="44.5939" lon="2.22714">
        <ele>197.69</ele>
        <time>2020-07-11T06:34:04Z</time>
      </trkpt>
      <trkpt lat="44.59408" lon="2.22706">
        <ele>196.25</ele>
        <time>2020-07-11T06:34:20Z</time>
      </trkpt>
      <trkpt lat="44.59432" lon="2.22696">
        <ele>197.69</ele>
        <time>2020-07-11T06:34:37Z</time>
      </trkpt>
      <trkpt lat="44.59436" lon="2.22695">
        <ele>195.77</ele>
        <time>2020-07-11T06:34:40Z</time>
      </trkpt>
      <trkpt lat="44.59441" lon="2.22693">
        <ele>197.21</ele>
        <time>2020-07-11T06:34:44Z</time>
      </trkpt>
      <trkpt lat="44.59461" lon="2.22674">
        <ele>195.77</ele>
        <time>2020-07-11T06:35:02Z</time>
      </trkpt>
      <trkpt lat="44.59468" lon="2.22669">
        <ele>197.69</ele>
        <time>2020-07-11T06:35:08Z</time>
      </trkpt>
      <trkpt lat="44.59493" lon="2.22662">
        <ele>198.17</ele>
        <time>2020-07-11T06:35:27Z</time>
      </trkpt>
      <trkpt lat="44.59513" lon="2.22661">
        <ele>199.61</ele>
        <time>2020-07-11T06:35:46Z</time>
      </trkpt>
      <trkpt lat="44.59518" lon="2.22659">
        <ele>200.09</ele>
        <time>2020-07-11T06:35:50Z</time>
      </trkpt>
      <trkpt lat="44.59542" lon="2.22661">
        <ele>202.01</ele>
        <time>2020-07-11T06:36:12Z</time>
      </trkpt>
      <trkpt lat="44.59559" lon="2.22667">
        <ele>204.9</ele>
        <time>2020-07-11T06:36:30Z</time>
      </trkpt>
      <trkpt lat="44.59575" lon="2.22673">
        <ele>206.82</ele>
        <time>2020-07-11T06:36:51Z</time>
      </trkpt>
      <trkpt lat="44.59592" lon="2.22677">
        <ele>209.22</ele>
        <time>2020-07-11T06:37:11Z</time>
      </trkpt>
      <trkpt lat="44.59602" lon="2.22679">
        <ele>212.59</ele>
        <time>2020-07-11T06:37:28Z</time>
      </trkpt>
      <trkpt lat="44.59605" lon="2.22682">
        <ele>212.59</ele>
        <time>2020-07-11T06:37:32Z</time>
      </trkpt>
      <trkpt lat="44.59609" lon="2.22682">
        <ele>214.03</ele>
        <time>2020-07-11T06:37:39Z</time>
      </trkpt>
      <trkpt lat="44.59616" lon="2.22684">
        <ele>215.47</ele>
        <time>2020-07-11T06:37:48Z</time>
      </trkpt>
      <trkpt lat="44.59622" lon="2.22681">
        <ele>216.43</ele>
        <time>2020-07-11T06:37:57Z</time>
      </trkpt>
      <trkpt lat="44.59631" lon="2.22677">
        <ele>218.36</ele>
        <time>2020-07-11T06:38:09Z</time>
      </trkpt>
      <trkpt lat="44.59645" lon="2.2267">
        <ele>221.24</ele>
        <time>2020-07-11T06:38:32Z</time>
      </trkpt>
      <trkpt lat="44.59657" lon="2.22659">
        <ele>223.16</ele>
        <time>2020-07-11T06:38:51Z</time>
      </trkpt>
      <trkpt lat="44.59664" lon="2.22656">
        <ele>224.61</ele>
        <time>2020-07-11T06:39:03Z</time>
      </trkpt>
      <trkpt lat="44.59665" lon="2.22655">
        <ele>224.61</ele>
        <time>2020-07-11T06:39:04Z</time>
      </trkpt>
      <trkpt lat="44.59673" lon="2.22646">
        <ele>226.53</ele>
        <time>2020-07-11T06:39:18Z</time>
      </trkpt>
      <trkpt lat="44.59686" lon="2.22636">
        <ele>228.93</ele>
        <time>2020-07-11T06:39:42Z</time>
      </trkpt>
      <trkpt lat="44.59709" lon="2.22625">
        <ele>231.81</ele>
        <time>2020-07-11T06:40:06Z</time>
      </trkpt>
      <trkpt lat="44.59718" lon="2.22622">
        <ele>232.78</ele>
        <time>2020-07-11T06:40:14Z</time>
      </trkpt>
      <trkpt lat="44.59727" lon="2.2263">
        <ele>235.66</ele>
        <time>2020-07-11T06:40:35Z</time>
      </trkpt>
      <trkpt lat="44.59738" lon="2.22635">
        <ele>239.02</ele>
        <time>2020-07-11T06:40:56Z</time>
      </trkpt>
      <trkpt lat="44.5975" lon="2.2264">
        <ele>241.91</ele>
        <time>2020-07-11T06:41:16Z</time>
      </trkpt>
      <trkpt lat="44.59768" lon="2.22647">
        <ele>243.83</ele>
        <time>2020-07-11T06:41:37Z</time>
      </trkpt>
      <trkpt lat="44.59784" lon="2.22651">
        <ele>246.72</ele>
        <time>2020-07-11T06:41:56Z</time>
      </trkpt>
      <trkpt lat="44.59803" lon="2.22659">
        <ele>249.12</ele>
        <time>2020-07-11T06:42:19Z</time>
      </trkpt>
      <trkpt lat="44.59819" lon="2.22662">
        <ele>251.04</ele>
        <time>2020-07-11T06:42:37Z</time>
      </trkpt>
      <trkpt lat="44.59834" lon="2.22669">
        <ele>252.96</ele>
        <time>2020-07-11T06:42:57Z</time>
      </trkpt>
      <trkpt lat="44.59847" lon="2.22673">
        <ele>254.41</ele>
        <time>2020-07-11T06:43:10Z</time>
      </trkpt>
      <trkpt lat="44.59862" lon="2.22682">
        <ele>257.29</ele>
        <time>2020-07-11T06:43:31Z</time>
      </trkpt>
      <trkpt lat="44.59873" lon="2.22692">
        <ele>260.65</ele>
        <time>2020-07-11T06:43:50Z</time>
      </trkpt>
      <trkpt lat="44.59873" lon="2.22692">
        <ele>260.65</ele>
        <time>2020-07-11T06:43:51Z</time>
      </trkpt>
      <trkpt lat="44.59878" lon="2.22694">
        <ele>260.17</ele>
        <time>2020-07-11T06:43:56Z</time>
      </trkpt>
      <trkpt lat="44.59887" lon="2.22695">
        <ele>262.1</ele>
        <time>2020-07-11T06:44:17Z</time>
      </trkpt>
      <trkpt lat="44.59902" lon="2.22694">
        <ele>265.46</ele>
        <time>2020-07-11T06:44:34Z</time>
      </trkpt>
      <trkpt lat="44.59913" lon="2.22693">
        <ele>266.9</ele>
        <time>2020-07-11T06:44:52Z</time>
      </trkpt>
      <trkpt lat="44.59922" lon="2.22693">
        <ele>267.86</ele>
        <time>2020-07-11T06:45:08Z</time>
      </trkpt>
      <trkpt lat="44.59933" lon="2.22696">
        <ele>269.79</ele>
        <time>2020-07-11T06:45:21Z</time>
      </trkpt>
      <trkpt lat="44.59941" lon="2.22697">
        <ele>270.27</ele>
        <time>2020-07-11T06:45:30Z</time>
      </trkpt>
      <trkpt lat="44.59953" lon="2.22701">
        <ele>271.23</ele>
        <time>2020-07-11T06:45:47Z</time>
      </trkpt>
      <trkpt lat="44.59971" lon="2.22704">
        <ele>273.63</ele>
        <time>2020-07-11T06:46:04Z</time>
      </trkpt>
      <trkpt lat="44.59983" lon="2.22711">
        <ele>275.56</ele>
        <time>2020-07-11T06:46:21Z</time>
      </trkpt>
      <trkpt lat="44.59998" lon="2.22722">
        <ele>277.96</ele>
        <time>2020-07-11T06:46:40Z</time>
      </trkpt>
      <trkpt lat="44.60014" lon="2.22729">
        <ele>279.88</ele>
        <time>2020-07-11T06:46:59Z</time>
      </trkpt>
      <trkpt lat="44.6003" lon="2.2273">
        <ele>281.8</ele>
        <time>2020-07-11T06:47:16Z</time>
      </trkpt>
      <trkpt lat="44.60043" lon="2.22726">
        <ele>284.21</ele>
        <time>2020-07-11T06:47:33Z</time>
      </trkpt>
      <trkpt lat="44.60062" lon="2.2272">
        <ele>286.13</ele>
        <time>2020-07-11T06:47:53Z</time>
      </trkpt>
      <trkpt lat="44.60078" lon="2.22719">
        <ele>287.57</ele>
        <time>2020-07-11T06:48:10Z</time>
      </trkpt>
      <trkpt lat="44.60082" lon="2.22718">
        <ele>288.05</ele>
        <time>2020-07-11T06:48:14Z</time>
      </trkpt>
      <trkpt lat="44.60095" lon="2.22718">
        <ele>289.01</ele>
        <time>2020-07-11T06:48:29Z</time>
      </trkpt>
      <trkpt lat="44.60111" lon="2.22717">
        <ele>290.46</ele>
        <time>2020-07-11T06:48:45Z</time>
      </trkpt>
      <trkpt lat="44.60119" lon="2.22716">
        <ele>290.94</ele>
        <time>2020-07-11T06:48:58Z</time>
      </trkpt>
      <trkpt lat="44.60132" lon="2.22714">
        <ele>291.9</ele>
        <time>2020-07-11T06:49:11Z</time>
      </trkpt>
      <trkpt lat="44.60149" lon="2.22711">
        <ele>292.86</ele>
        <time>2020-07-11T06:49:30Z</time>
      </trkpt>
      <trkpt lat="44.60158" lon="2.22707">
        <ele>293.82</ele>
        <time>2020-07-11T06:49:38Z</time>
      </trkpt>
      <trkpt lat="44.60181" lon="2.22701">
        <ele>296.22</ele>
        <time>2020-07-11T06:50:02Z</time>
      </trkpt>
      <trkpt lat="44.60184" lon="2.22699">
        <ele>297.18</ele>
        <time>2020-07-11T06:50:05Z</time>
      </trkpt>
      <trkpt lat="44.60192" lon="2.22696">
        <ele>298.15</ele>
        <time>2020-07-11T06:50:12Z</time>
      </trkpt>
      <trkpt lat="44.60199" lon="2.22686">
        <ele>299.11</ele>
        <time>2020-07-11T06:50:31Z</time>
      </trkpt>
      <trkpt lat="44.60201" lon="2.22686">
        <ele>299.59</ele>
        <time>2020-07-11T06:50:34Z</time>
      </trkpt>
      <trkpt lat="44.60203" lon="2.22692">
        <ele>300.07</ele>
        <time>2020-07-11T06:50:37Z</time>
      </trkpt>
      <trkpt lat="44.60216" lon="2.22691">
        <ele>301.03</ele>
        <time>2020-07-11T06:50:53Z</time>
      </trkpt>
      <trkpt lat="44.60219" lon="2.2269">
        <ele>301.99</ele>
        <time>2020-07-11T06:50:57Z</time>
      </trkpt>
      <trkpt lat="44.60238" lon="2.22688">
        <ele>303.91</ele>
        <time>2020-07-11T06:51:20Z</time>
      </trkpt>
      <trkpt lat="44.60251" lon="2.22686">
        <ele>306.32</ele>
        <time>2020-07-11T06:51:32Z</time>
      </trkpt>
      <trkpt lat="44.60271" lon="2.22685">
        <ele>307.76</ele>
        <time>2020-07-11T06:51:52Z</time>
      </trkpt>
      <trkpt lat="44.60286" lon="2.22682">
        <ele>309.68</ele>
        <time>2020-07-11T06:52:10Z</time>
      </trkpt>
      <trkpt lat="44.60289" lon="2.22681">
        <ele>311.12</ele>
        <time>2020-07-11T06:52:13Z</time>
      </trkpt>
      <trkpt lat="44.60305" lon="2.22677">
        <ele>312.57</ele>
        <time>2020-07-11T06:52:31Z</time>
      </trkpt>
      <trkpt lat="44.6032" lon="2.22673">
        <ele>314.49</ele>
        <time>2020-07-11T06:52:51Z</time>
      </trkpt>
      <trkpt lat="44.60344" lon="2.22665">
        <ele>316.41</ele>
        <time>2020-07-11T06:53:12Z</time>
      </trkpt>
      <trkpt lat="44.60361" lon="2.22659">
        <ele>317.85</ele>
        <time>2020-07-11T06:53:30Z</time>
      </trkpt>
      <trkpt lat="44.60383" lon="2.22653">
        <ele>320.26</ele>
        <time>2020-07-11T06:53:53Z</time>
      </trkpt>
      <trkpt lat="44.60405" lon="2.22654">
        <ele>323.14</ele>
        <time>2020-07-11T06:54:17Z</time>
      </trkpt>
      <trkpt lat="44.60427" lon="2.22653">
        <ele>325.54</ele>
        <time>2020-07-11T06:54:42Z</time>
      </trkpt>
      <trkpt lat="44.60446" lon="2.2265">
        <ele>326.99</ele>
        <time>2020-07-11T06:55:03Z</time>
      </trkpt>
      <trkpt lat="44.60468" lon="2.22633">
        <ele>329.39</ele>
        <time>2020-07-11T06:55:28Z</time>
      </trkpt>
      <trkpt lat="44.60482" lon="2.22626">
        <ele>330.35</ele>
        <time>2020-07-11T06:55:40Z</time>
      </trkpt>
      <trkpt lat="44.60497" lon="2.22612">
        <ele>331.79</ele>
        <time>2020-07-11T06:56:01Z</time>
      </trkpt>
      <trkpt lat="44.60522" lon="2.22592">
        <ele>332.75</ele>
        <time>2020-07-11T06:56:23Z</time>
      </trkpt>
      <trkpt lat="44.60536" lon="2.22567">
        <ele>333.23</ele>
        <time>2020-07-11T06:56:46Z</time>
      </trkpt>
      <trkpt lat="44.60547" lon="2.22541">
        <ele>333.23</ele>
        <time>2020-07-11T06:57:08Z</time>
      </trkpt>
      <trkpt lat="44.60571" lon="2.22533">
        <ele>331.79</ele>
        <time>2020-07-11T06:57:29Z</time>
      </trkpt>
      <trkpt lat="44.60595" lon="2.2253">
        <ele>330.83</ele>
        <time>2020-07-11T06:57:52Z</time>
      </trkpt>
      <trkpt lat="44.60607" lon="2.22525">
        <ele>330.83</ele>
        <time>2020-07-11T06:58:09Z</time>
      </trkpt>
      <trkpt lat="44.60606" lon="2.22527">
        <ele>330.83</ele>
        <time>2020-07-11T06:58:40Z</time>
      </trkpt>
      <trkpt lat="44.60605" lon="2.22521">
        <ele>330.83</ele>
        <time>2020-07-11T06:59:11Z</time>
      </trkpt>
      <trkpt lat="44.60614" lon="2.22529">
        <ele>330.35</ele>
        <time>2020-07-11T06:59:26Z</time>
      </trkpt>
      <trkpt lat="44.60641" lon="2.22521">
        <ele>328.91</ele>
        <time>2020-07-11T06:59:45Z</time>
      </trkpt>
      <trkpt lat="44.60668" lon="2.22511">
        <ele>327.47</ele>
        <time>2020-07-11T07:00:05Z</time>
      </trkpt>
      <trkpt lat="44.60688" lon="2.22502">
        <ele>326.99</ele>
        <time>2020-07-11T07:00:24Z</time>
      </trkpt>
      <trkpt lat="44.60694" lon="2.225">
        <ele>327.47</ele>
        <time>2020-07-11T07:00:29Z</time>
      </trkpt>
      <trkpt lat="44.60712" lon="2.2249">
        <ele>327.47</ele>
        <time>2020-07-11T07:00:47Z</time>
      </trkpt>
      <trkpt lat="44.60729" lon="2.22485">
        <ele>326.5</ele>
        <time>2020-07-11T07:01:04Z</time>
      </trkpt>
      <trkpt lat="44.60733" lon="2.22479">
        <ele>326.02</ele>
        <time>2020-07-11T07:01:28Z</time>
      </trkpt>
      <trkpt lat="44.60753" lon="2.22475">
        <ele>324.58</ele>
        <time>2020-07-11T07:01:48Z</time>
      </trkpt>
      <trkpt lat="44.60755" lon="2.22474">
        <ele>326.02</ele>
        <time>2020-07-11T07:01:50Z</time>
      </trkpt>
      <trkpt lat="44.60761" lon="2.22471">
        <ele>324.58</ele>
        <time>2020-07-11T07:01:57Z</time>
      </trkpt>
      <trkpt lat="44.60777" lon="2.22465">
        <ele>324.1</ele>
        <time>2020-07-11T07:02:12Z</time>
      </trkpt>
      <trkpt lat="44.60779" lon="2.22463">
        <ele>325.54</ele>
        <time>2020-07-11T07:02:14Z</time>
      </trkpt>
      <trkpt lat="44.60787" lon="2.22459">
        <ele>324.1</ele>
        <time>2020-07-11T07:02:20Z</time>
      </trkpt>
      <trkpt lat="44.60793" lon="2.22455">
        <ele>324.1</ele>
        <time>2020-07-11T07:02:27Z</time>
      </trkpt>
      <trkpt lat="44.60814" lon="2.22449">
        <ele>324.1</ele>
        <time>2020-07-11T07:02:44Z</time>
      </trkpt>
      <trkpt lat="44.60834" lon="2.22441">
        <ele>322.18</ele>
        <time>2020-07-11T07:02:59Z</time>
      </trkpt>
      <trkpt lat="44.6084" lon="2.22439">
        <ele>323.62</ele>
        <time>2020-07-11T07:03:03Z</time>
      </trkpt>
      <trkpt lat="44.60844" lon="2.22437">
        <ele>321.7</ele>
        <time>2020-07-11T07:03:07Z</time>
      </trkpt>
      <trkpt lat="44.60857" lon="2.22433">
        <ele>321.7</ele>
        <time>2020-07-11T07:03:18Z</time>
      </trkpt>
      <trkpt lat="44.60872" lon="2.22428">
        <ele>320.74</ele>
        <time>2020-07-11T07:03:30Z</time>
      </trkpt>
      <trkpt lat="44.60892" lon="2.22417">
        <ele>320.74</ele>
        <time>2020-07-11T07:03:49Z</time>
      </trkpt>
      <trkpt lat="44.60915" lon="2.224">
        <ele>320.26</ele>
        <time>2020-07-11T07:04:11Z</time>
      </trkpt>
      <trkpt lat="44.6094" lon="2.22382">
        <ele>318.81</ele>
        <time>2020-07-11T07:04:32Z</time>
      </trkpt>
      <trkpt lat="44.60953" lon="2.22375">
        <ele>318.81</ele>
        <time>2020-07-11T07:04:44Z</time>
      </trkpt>
      <trkpt lat="44.60974" lon="2.2237">
        <ele>319.78</ele>
        <time>2020-07-11T07:05:04Z</time>
      </trkpt>
      <trkpt lat="44.60979" lon="2.22368">
        <ele>318.33</ele>
        <time>2020-07-11T07:05:09Z</time>
      </trkpt>
      <trkpt lat="44.61002" lon="2.22355">
        <ele>317.85</ele>
        <time>2020-07-11T07:05:31Z</time>
      </trkpt>
      <trkpt lat="44.61005" lon="2.22352">
        <ele>319.3</ele>
        <time>2020-07-11T07:05:33Z</time>
      </trkpt>
      <trkpt lat="44.61017" lon="2.22323">
        <ele>320.26</ele>
        <time>2020-07-11T07:05:52Z</time>
      </trkpt>
      <trkpt lat="44.61025" lon="2.22284">
        <ele>320.26</ele>
        <time>2020-07-11T07:06:13Z</time>
      </trkpt>
      <trkpt lat="44.61025" lon="2.22275">
        <ele>320.74</ele>
        <time>2020-07-11T07:06:18Z</time>
      </trkpt>
      <trkpt lat="44.61028" lon="2.22245">
        <ele>319.78</ele>
        <time>2020-07-11T07:06:33Z</time>
      </trkpt>
      <trkpt lat="44.61031" lon="2.22231">
        <ele>319.78</ele>
        <time>2020-07-11T07:06:42Z</time>
      </trkpt>
      <trkpt lat="44.61032" lon="2.22213">
        <ele>319.3</ele>
        <time>2020-07-11T07:06:52Z</time>
      </trkpt>
      <trkpt lat="44.61033" lon="2.22208">
        <ele>320.74</ele>
        <time>2020-07-11T07:06:55Z</time>
      </trkpt>
      <trkpt lat="44.61033" lon="2.22204">
        <ele>319.3</ele>
        <time>2020-07-11T07:06:57Z</time>
      </trkpt>
      <trkpt lat="44.61037" lon="2.22175">
        <ele>319.3</ele>
        <time>2020-07-11T07:07:13Z</time>
      </trkpt>
      <trkpt lat="44.61047" lon="2.22146">
        <ele>320.26</ele>
        <time>2020-07-11T07:07:32Z</time>
      </trkpt>
      <trkpt lat="44.61064" lon="2.22117">
        <ele>320.26</ele>
        <time>2020-07-11T07:07:52Z</time>
      </trkpt>
      <trkpt lat="44.61079" lon="2.22087">
        <ele>320.74</ele>
        <time>2020-07-11T07:08:12Z</time>
      </trkpt>
      <trkpt lat="44.61097" lon="2.22061">
        <ele>321.22</ele>
        <time>2020-07-11T07:08:31Z</time>
      </trkpt>
      <trkpt lat="44.6111" lon="2.22036">
        <ele>321.22</ele>
        <time>2020-07-11T07:08:48Z</time>
      </trkpt>
      <trkpt lat="44.6112" lon="2.22017">
        <ele>321.22</ele>
        <time>2020-07-11T07:09:02Z</time>
      </trkpt>
      <trkpt lat="44.61125" lon="2.22008">
        <ele>320.74</ele>
        <time>2020-07-11T07:09:08Z</time>
      </trkpt>
      <trkpt lat="44.61134" lon="2.21995">
        <ele>321.7</ele>
        <time>2020-07-11T07:09:17Z</time>
      </trkpt>
      <trkpt lat="44.61147" lon="2.21971">
        <ele>322.18</ele>
        <time>2020-07-11T07:09:35Z</time>
      </trkpt>
      <trkpt lat="44.61162" lon="2.21947">
        <ele>323.14</ele>
        <time>2020-07-11T07:09:53Z</time>
      </trkpt>
      <trkpt lat="44.61173" lon="2.21925">
        <ele>324.1</ele>
        <time>2020-07-11T07:10:09Z</time>
      </trkpt>
      <trkpt lat="44.61184" lon="2.21903">
        <ele>324.58</ele>
        <time>2020-07-11T07:10:26Z</time>
      </trkpt>
      <trkpt lat="44.61193" lon="2.21887">
        <ele>325.06</ele>
        <time>2020-07-11T07:10:41Z</time>
      </trkpt>
      <trkpt lat="44.61206" lon="2.2187">
        <ele>326.02</ele>
        <time>2020-07-11T07:10:56Z</time>
      </trkpt>
      <trkpt lat="44.6122" lon="2.2185">
        <ele>326.99</ele>
        <time>2020-07-11T07:11:15Z</time>
      </trkpt>
      <trkpt lat="44.61236" lon="2.21826">
        <ele>326.99</ele>
        <time>2020-07-11T07:11:35Z</time>
      </trkpt>
      <trkpt lat="44.61254" lon="2.21804">
        <ele>326.99</ele>
        <time>2020-07-11T07:11:55Z</time>
      </trkpt>
      <trkpt lat="44.61269" lon="2.21783">
        <ele>327.47</ele>
        <time>2020-07-11T07:12:15Z</time>
      </trkpt>
      <trkpt lat="44.61282" lon="2.21745">
        <ele>326.02</ele>
        <time>2020-07-11T07:12:39Z</time>
      </trkpt>
      <trkpt lat="44.61286" lon="2.21705">
        <ele>325.54</ele>
        <time>2020-07-11T07:13:00Z</time>
      </trkpt>
      <trkpt lat="44.61289" lon="2.21674">
        <ele>325.06</ele>
        <time>2020-07-11T07:13:19Z</time>
      </trkpt>
      <trkpt lat="44.61293" lon="2.2164">
        <ele>325.06</ele>
        <time>2020-07-11T07:13:39Z</time>
      </trkpt>
      <trkpt lat="44.61302" lon="2.21611">
        <ele>326.02</ele>
        <time>2020-07-11T07:14:00Z</time>
      </trkpt>
      <trkpt lat="44.61312" lon="2.21588">
        <ele>326.5</ele>
        <time>2020-07-11T07:14:14Z</time>
      </trkpt>
      <trkpt lat="44.61317" lon="2.21567">
        <ele>327.95</ele>
        <time>2020-07-11T07:14:32Z</time>
      </trkpt>
      <trkpt lat="44.61318" lon="2.21541">
        <ele>328.43</ele>
        <time>2020-07-11T07:14:51Z</time>
      </trkpt>
      <trkpt lat="44.61319" lon="2.21511">
        <ele>330.83</ele>
        <time>2020-07-11T07:15:14Z</time>
      </trkpt>
      <trkpt lat="44.61314" lon="2.21478">
        <ele>331.79</ele>
        <time>2020-07-11T07:15:34Z</time>
      </trkpt>
      <trkpt lat="44.6131" lon="2.21445">
        <ele>332.75</ele>
        <time>2020-07-11T07:15:57Z</time>
      </trkpt>
      <trkpt lat="44.61308" lon="2.21425">
        <ele>334.68</ele>
        <time>2020-07-11T07:16:11Z</time>
      </trkpt>
      <trkpt lat="44.61311" lon="2.21415">
        <ele>335.16</ele>
        <time>2020-07-11T07:16:28Z</time>
      </trkpt>
      <trkpt lat="44.61312" lon="2.2141">
        <ele>335.16</ele>
        <time>2020-07-11T07:16:45Z</time>
      </trkpt>
      <trkpt lat="44.61325" lon="2.21392">
        <ele>334.2</ele>
        <time>2020-07-11T07:17:03Z</time>
      </trkpt>
      <trkpt lat="44.61332" lon="2.21383">
        <ele>335.16</ele>
        <time>2020-07-11T07:17:12Z</time>
      </trkpt>
      <trkpt lat="44.61348" lon="2.21363">
        <ele>336.6</ele>
        <time>2020-07-11T07:17:32Z</time>
      </trkpt>
      <trkpt lat="44.61357" lon="2.2135">
        <ele>337.56</ele>
        <time>2020-07-11T07:17:41Z</time>
      </trkpt>
      <trkpt lat="44.61371" lon="2.21327">
        <ele>339</ele>
        <time>2020-07-11T07:18:00Z</time>
      </trkpt>
      <trkpt lat="44.61381" lon="2.21301">
        <ele>339.48</ele>
        <time>2020-07-11T07:18:18Z</time>
      </trkpt>
      <trkpt lat="44.61384" lon="2.21288">
        <ele>340.44</ele>
        <time>2020-07-11T07:18:27Z</time>
      </trkpt>
      <trkpt lat="44.61389" lon="2.21266">
        <ele>340.44</ele>
        <time>2020-07-11T07:18:42Z</time>
      </trkpt>
      <trkpt lat="44.61398" lon="2.21241">
        <ele>341.89</ele>
        <time>2020-07-11T07:19:03Z</time>
      </trkpt>
      <trkpt lat="44.61403" lon="2.21221">
        <ele>344.77</ele>
        <time>2020-07-11T07:19:19Z</time>
      </trkpt>
      <trkpt lat="44.61403" lon="2.21218">
        <ele>343.33</ele>
        <time>2020-07-11T07:19:22Z</time>
      </trkpt>
      <trkpt lat="44.61404" lon="2.21215">
        <ele>344.77</ele>
        <time>2020-07-11T07:19:24Z</time>
      </trkpt>
      <trkpt lat="44.61409" lon="2.21191">
        <ele>345.73</ele>
        <time>2020-07-11T07:19:42Z</time>
      </trkpt>
      <trkpt lat="44.61417" lon="2.21166">
        <ele>348.13</ele>
        <time>2020-07-11T07:20:02Z</time>
      </trkpt>
      <trkpt lat="44.61426" lon="2.21142">
        <ele>349.1</ele>
        <time>2020-07-11T07:20:22Z</time>
      </trkpt>
      <trkpt lat="44.61426" lon="2.2114">
        <ele>348.62</ele>
        <time>2020-07-11T07:20:23Z</time>
      </trkpt>
      <trkpt lat="44.61434" lon="2.21118">
        <ele>350.54</ele>
        <time>2020-07-11T07:20:42Z</time>
      </trkpt>
      <trkpt lat="44.61437" lon="2.21112">
        <ele>351.02</ele>
        <time>2020-07-11T07:21:00Z</time>
      </trkpt>
      <trkpt lat="44.61439" lon="2.21108">
        <ele>351.5</ele>
        <time>2020-07-11T07:21:19Z</time>
      </trkpt>
      <trkpt lat="44.61441" lon="2.21108">
        <ele>351.5</ele>
        <time>2020-07-11T07:21:44Z</time>
      </trkpt>
      <trkpt lat="44.61445" lon="2.21096">
        <ele>352.46</ele>
        <time>2020-07-11T07:22:11Z</time>
      </trkpt>
      <trkpt lat="44.61455" lon="2.21075">
        <ele>353.9</ele>
        <time>2020-07-11T07:22:29Z</time>
      </trkpt>
      <trkpt lat="44.61466" lon="2.2105">
        <ele>356.79</ele>
        <time>2020-07-11T07:22:50Z</time>
      </trkpt>
      <trkpt lat="44.61476" lon="2.21032">
        <ele>358.23</ele>
        <time>2020-07-11T07:23:12Z</time>
      </trkpt>
      <trkpt lat="44.61484" lon="2.21009">
        <ele>359.19</ele>
        <time>2020-07-11T07:23:33Z</time>
      </trkpt>
      <trkpt lat="44.61487" lon="2.20989">
        <ele>360.63</ele>
        <time>2020-07-11T07:23:49Z</time>
      </trkpt>
      <trkpt lat="44.61489" lon="2.20975">
        <ele>360.63</ele>
        <time>2020-07-11T07:23:58Z</time>
      </trkpt>
      <trkpt lat="44.61498" lon="2.20942">
        <ele>362.07</ele>
        <time>2020-07-11T07:24:19Z</time>
      </trkpt>
      <trkpt lat="44.61501" lon="2.20937">
        <ele>362.07</ele>
        <time>2020-07-11T07:24:23Z</time>
      </trkpt>
      <trkpt lat="44.61513" lon="2.20916">
        <ele>363.04</ele>
        <time>2020-07-11T07:24:39Z</time>
      </trkpt>
      <trkpt lat="44.61519" lon="2.20908">
        <ele>364</ele>
        <time>2020-07-11T07:24:46Z</time>
      </trkpt>
      <trkpt lat="44.61529" lon="2.20891">
        <ele>364.96</ele>
        <time>2020-07-11T07:25:01Z</time>
      </trkpt>
      <trkpt lat="44.61545" lon="2.20868">
        <ele>366.88</ele>
        <time>2020-07-11T07:25:21Z</time>
      </trkpt>
      <trkpt lat="44.61557" lon="2.20841">
        <ele>368.8</ele>
        <time>2020-07-11T07:25:42Z</time>
      </trkpt>
      <trkpt lat="44.61568" lon="2.20813">
        <ele>371.21</ele>
        <time>2020-07-11T07:26:04Z</time>
      </trkpt>
      <trkpt lat="44.61577" lon="2.20788">
        <ele>373.61</ele>
        <time>2020-07-11T07:26:27Z</time>
      </trkpt>
      <trkpt lat="44.61581" lon="2.20763">
        <ele>376.01</ele>
        <time>2020-07-11T07:26:47Z</time>
      </trkpt>
      <trkpt lat="44.61585" lon="2.20734">
        <ele>377.45</ele>
        <time>2020-07-11T07:27:07Z</time>
      </trkpt>
      <trkpt lat="44.6159" lon="2.20714">
        <ele>378.42</ele>
        <time>2020-07-11T07:27:25Z</time>
      </trkpt>
      <trkpt lat="44.61591" lon="2.20716">
        <ele>378.9</ele>
        <time>2020-07-11T07:27:38Z</time>
      </trkpt>
      <trkpt lat="44.61591" lon="2.20715">
        <ele>378.9</ele>
        <time>2020-07-11T07:28:06Z</time>
      </trkpt>
      <trkpt lat="44.6159" lon="2.20715">
        <ele>378.9</ele>
        <time>2020-07-11T07:28:34Z</time>
      </trkpt>
      <trkpt lat="44.61594" lon="2.20715">
        <ele>378.9</ele>
        <time>2020-07-11T07:29:02Z</time>
      </trkpt>
      <trkpt lat="44.61591" lon="2.20719">
        <ele>378.9</ele>
        <time>2020-07-11T07:29:29Z</time>
      </trkpt>
      <trkpt lat="44.61593" lon="2.20717">
        <ele>378.9</ele>
        <time>2020-07-11T07:29:56Z</time>
      </trkpt>
      <trkpt lat="44.61589" lon="2.20714">
        <ele>379.38</ele>
        <time>2020-07-11T07:30:20Z</time>
      </trkpt>
      <trkpt lat="44.61592" lon="2.20716">
        <ele>379.38</ele>
        <time>2020-07-11T07:30:44Z</time>
      </trkpt>
      <trkpt lat="44.6159" lon="2.20714">
        <ele>379.38</ele>
        <time>2020-07-11T07:31:04Z</time>
      </trkpt>
      <trkpt lat="44.6159" lon="2.20708">
        <ele>379.38</ele>
        <time>2020-07-11T07:31:27Z</time>
      </trkpt>
      <trkpt lat="44.61597" lon="2.20676">
        <ele>381.78</ele>
        <time>2020-07-11T07:31:51Z</time>
      </trkpt>
      <trkpt lat="44.61604" lon="2.20647">
        <ele>384.18</ele>
        <time>2020-07-11T07:32:14Z</time>
      </trkpt>
      <trkpt lat="44.61613" lon="2.20616">
        <ele>386.11</ele>
        <time>2020-07-11T07:32:36Z</time>
      </trkpt>
      <trkpt lat="44.61621" lon="2.20598">
        <ele>387.55</ele>
        <time>2020-07-11T07:32:53Z</time>
      </trkpt>
      <trkpt lat="44.61629" lon="2.20565">
        <ele>389.47</ele>
        <time>2020-07-11T07:33:15Z</time>
      </trkpt>
      <trkpt lat="44.61644" lon="2.20543">
        <ele>390.43</ele>
        <time>2020-07-11T07:33:36Z</time>
      </trkpt>
      <trkpt lat="44.61648" lon="2.20525">
        <ele>391.39</ele>
        <time>2020-07-11T07:33:54Z</time>
      </trkpt>
      <trkpt lat="44.61655" lon="2.20505">
        <ele>392.36</ele>
        <time>2020-07-11T07:34:17Z</time>
      </trkpt>
      <trkpt lat="44.61659" lon="2.20486">
        <ele>392.84</ele>
        <time>2020-07-11T07:34:29Z</time>
      </trkpt>
      <trkpt lat="44.61668" lon="2.20449">
        <ele>394.28</ele>
        <time>2020-07-11T07:34:52Z</time>
      </trkpt>
      <trkpt lat="44.61671" lon="2.2041">
        <ele>394.76</ele>
        <time>2020-07-11T07:35:14Z</time>
      </trkpt>
      <trkpt lat="44.6167" lon="2.20383">
        <ele>395.24</ele>
        <time>2020-07-11T07:35:34Z</time>
      </trkpt>
      <trkpt lat="44.61673" lon="2.20379">
        <ele>395.24</ele>
        <time>2020-07-11T07:36:07Z</time>
      </trkpt>
      <trkpt lat="44.61671" lon="2.20353">
        <ele>395.24</ele>
        <time>2020-07-11T07:36:25Z</time>
      </trkpt>
      <trkpt lat="44.61673" lon="2.20333">
        <ele>395.24</ele>
        <time>2020-07-11T07:36:45Z</time>
      </trkpt>
      <trkpt lat="44.61674" lon="2.20328">
        <ele>395.72</ele>
        <time>2020-07-11T07:37:01Z</time>
      </trkpt>
      <trkpt lat="44.61675" lon="2.20324">
        <ele>395.72</ele>
        <time>2020-07-11T07:37:25Z</time>
      </trkpt>
      <trkpt lat="44.61677" lon="2.20324">
        <ele>396.2</ele>
        <time>2020-07-11T07:38:03Z</time>
      </trkpt>
      <trkpt lat="44.61676" lon="2.20312">
        <ele>396.2</ele>
        <time>2020-07-11T07:38:16Z</time>
      </trkpt>
      <trkpt lat="44.61677" lon="2.20307">
        <ele>396.2</ele>
        <time>2020-07-11T07:38:35Z</time>
      </trkpt>
      <trkpt lat="44.61677" lon="2.20303">
        <ele>396.2</ele>
        <time>2020-07-11T07:38:37Z</time>
      </trkpt>
      <trkpt lat="44.61679" lon="2.20266">
        <ele>396.68</ele>
        <time>2020-07-11T07:38:58Z</time>
      </trkpt>
      <trkpt lat="44.61681" lon="2.20253">
        <ele>396.68</ele>
        <time>2020-07-11T07:39:18Z</time>
      </trkpt>
      <trkpt lat="44.6168" lon="2.20258">
        <ele>396.68</ele>
        <time>2020-07-11T07:39:36Z</time>
      </trkpt>
      <trkpt lat="44.61677" lon="2.20253">
        <ele>397.16</ele>
        <time>2020-07-11T07:40:11Z</time>
      </trkpt>
      <trkpt lat="44.6168" lon="2.20213">
        <ele>397.64</ele>
        <time>2020-07-11T07:40:35Z</time>
      </trkpt>
      <trkpt lat="44.61684" lon="2.20175">
        <ele>398.12</ele>
        <time>2020-07-11T07:40:57Z</time>
      </trkpt>
      <trkpt lat="44.61685" lon="2.20143">
        <ele>398.12</ele>
        <time>2020-07-11T07:41:14Z</time>
      </trkpt>
      <trkpt lat="44.6168" lon="2.20109">
        <ele>397.16</ele>
        <time>2020-07-11T07:41:32Z</time>
      </trkpt>
      <trkpt lat="44.61677" lon="2.2008">
        <ele>396.68</ele>
        <time>2020-07-11T07:41:48Z</time>
      </trkpt>
      <trkpt lat="44.61671" lon="2.20046">
        <ele>398.12</ele>
        <time>2020-07-11T07:42:06Z</time>
      </trkpt>
      <trkpt lat="44.61666" lon="2.20008">
        <ele>399.08</ele>
        <time>2020-07-11T07:42:30Z</time>
      </trkpt>
      <trkpt lat="44.61653" lon="2.19981">
        <ele>400.05</ele>
        <time>2020-07-11T07:42:51Z</time>
      </trkpt>
      <trkpt lat="44.61643" lon="2.19967">
        <ele>400.05</ele>
        <time>2020-07-11T07:43:01Z</time>
      </trkpt>
      <trkpt lat="44.61634" lon="2.19957">
        <ele>398.6</ele>
        <time>2020-07-11T07:43:08Z</time>
      </trkpt>
      <trkpt lat="44.61605" lon="2.19939">
        <ele>396.2</ele>
        <time>2020-07-11T07:43:32Z</time>
      </trkpt>
      <trkpt lat="44.6158" lon="2.19917">
        <ele>394.76</ele>
        <time>2020-07-11T07:43:53Z</time>
      </trkpt>
      <trkpt lat="44.61585" lon="2.19894">
        <ele>395.72</ele>
        <time>2020-07-11T07:44:06Z</time>
      </trkpt>
      <trkpt lat="44.61599" lon="2.19856">
        <ele>396.2</ele>
        <time>2020-07-11T07:44:26Z</time>
      </trkpt>
      <trkpt lat="44.61603" lon="2.19842">
        <ele>397.16</ele>
        <time>2020-07-11T07:44:33Z</time>
      </trkpt>
      <trkpt lat="44.61617" lon="2.1981">
        <ele>398.12</ele>
        <time>2020-07-11T07:44:53Z</time>
      </trkpt>
      <trkpt lat="44.6163" lon="2.19785">
        <ele>399.57</ele>
        <time>2020-07-11T07:45:15Z</time>
      </trkpt>
      <trkpt lat="44.61637" lon="2.19748">
        <ele>400.05</ele>
        <time>2020-07-11T07:45:35Z</time>
      </trkpt>
      <trkpt lat="44.61638" lon="2.19738">
        <ele>400.05</ele>
        <time>2020-07-11T07:45:39Z</time>
      </trkpt>
      <trkpt lat="44.61639" lon="2.19729">
        <ele>398.6</ele>
        <time>2020-07-11T07:45:43Z</time>
      </trkpt>
      <trkpt lat="44.61635" lon="2.19685">
        <ele>396.68</ele>
        <time>2020-07-11T07:46:07Z</time>
      </trkpt>
      <trkpt lat="44.61647" lon="2.19651">
        <ele>396.68</ele>
        <time>2020-07-11T07:46:29Z</time>
      </trkpt>
      <trkpt lat="44.6165" lon="2.19649">
        <ele>398.12</ele>
        <time>2020-07-11T07:46:32Z</time>
      </trkpt>
      <trkpt lat="44.61671" lon="2.19628">
        <ele>400.05</ele>
        <time>2020-07-11T07:46:52Z</time>
      </trkpt>
      <trkpt lat="44.61679" lon="2.19604">
        <ele>400.53</ele>
        <time>2020-07-11T07:47:10Z</time>
      </trkpt>
      <trkpt lat="44.61688" lon="2.19565">
        <ele>402.45</ele>
        <time>2020-07-11T07:47:33Z</time>
      </trkpt>
      <trkpt lat="44.61696" lon="2.19534">
        <ele>403.89</ele>
        <time>2020-07-11T07:47:54Z</time>
      </trkpt>
      <trkpt lat="44.61697" lon="2.19526">
        <ele>403.89</ele>
        <time>2020-07-11T07:47:58Z</time>
      </trkpt>
      <trkpt lat="44.61699" lon="2.1949">
        <ele>402.93</ele>
        <time>2020-07-11T07:48:19Z</time>
      </trkpt>
      <trkpt lat="44.61704" lon="2.19471">
        <ele>402.45</ele>
        <time>2020-07-11T07:48:31Z</time>
      </trkpt>
      <trkpt lat="44.61705" lon="2.19433">
        <ele>398.6</ele>
        <time>2020-07-11T07:48:53Z</time>
      </trkpt>
      <trkpt lat="44.617" lon="2.19398">
        <ele>395.72</ele>
        <time>2020-07-11T07:49:12Z</time>
      </trkpt>
      <trkpt lat="44.617" lon="2.19367">
        <ele>394.76</ele>
        <time>2020-07-11T07:49:27Z</time>
      </trkpt>
      <trkpt lat="44.617" lon="2.1936">
        <ele>396.2</ele>
        <time>2020-07-11T07:49:30Z</time>
      </trkpt>
      <trkpt lat="44.61698" lon="2.19352">
        <ele>396.68</ele>
        <time>2020-07-11T07:49:35Z</time>
      </trkpt>
      <trkpt lat="44.617" lon="2.19336">
        <ele>395.24</ele>
        <time>2020-07-11T07:49:43Z</time>
      </trkpt>
      <trkpt lat="44.61707" lon="2.19295">
        <ele>393.8</ele>
        <time>2020-07-11T07:50:04Z</time>
      </trkpt>
      <trkpt lat="44.61708" lon="2.19273">
        <ele>394.76</ele>
        <time>2020-07-11T07:50:19Z</time>
      </trkpt>
      <trkpt lat="44.6171" lon="2.19271">
        <ele>394.76</ele>
        <time>2020-07-11T07:50:21Z</time>
      </trkpt>
      <trkpt lat="44.61731" lon="2.19253">
        <ele>395.24</ele>
        <time>2020-07-11T07:50:40Z</time>
      </trkpt>
      <trkpt lat="44.61752" lon="2.19231">
        <ele>397.16</ele>
        <time>2020-07-11T07:50:59Z</time>
      </trkpt>
      <trkpt lat="44.61761" lon="2.19219">
        <ele>399.57</ele>
        <time>2020-07-11T07:51:10Z</time>
      </trkpt>
      <trkpt lat="44.61772" lon="2.19189">
        <ele>401.49</ele>
        <time>2020-07-11T07:51:30Z</time>
      </trkpt>
      <trkpt lat="44.61782" lon="2.19167">
        <ele>404.85</ele>
        <time>2020-07-11T07:51:49Z</time>
      </trkpt>
      <trkpt lat="44.61783" lon="2.19166">
        <ele>404.85</ele>
        <time>2020-07-11T07:51:50Z</time>
      </trkpt>
      <trkpt lat="44.61801" lon="2.19158">
        <ele>406.77</ele>
        <time>2020-07-11T07:52:05Z</time>
      </trkpt>
      <trkpt lat="44.61806" lon="2.19146">
        <ele>407.74</ele>
        <time>2020-07-11T07:52:15Z</time>
      </trkpt>
      <trkpt lat="44.61808" lon="2.19143">
        <ele>408.22</ele>
        <time>2020-07-11T07:52:18Z</time>
      </trkpt>
      <trkpt lat="44.61812" lon="2.19137">
        <ele>408.7</ele>
        <time>2020-07-11T07:52:23Z</time>
      </trkpt>
      <trkpt lat="44.61823" lon="2.1911">
        <ele>410.62</ele>
        <time>2020-07-11T07:52:42Z</time>
      </trkpt>
      <trkpt lat="44.6183" lon="2.19078">
        <ele>412.06</ele>
        <time>2020-07-11T07:53:01Z</time>
      </trkpt>
      <trkpt lat="44.61838" lon="2.1906">
        <ele>412.54</ele>
        <time>2020-07-11T07:53:19Z</time>
      </trkpt>
      <trkpt lat="44.61834" lon="2.19069">
        <ele>412.54</ele>
        <time>2020-07-11T07:53:28Z</time>
      </trkpt>
      <trkpt lat="44.6183" lon="2.19073">
        <ele>412.54</ele>
        <time>2020-07-11T07:53:32Z</time>
      </trkpt>
      <trkpt lat="44.61823" lon="2.19069">
        <ele>412.54</ele>
        <time>2020-07-11T07:53:48Z</time>
      </trkpt>
      <trkpt lat="44.61826" lon="2.19068">
        <ele>413.02</ele>
        <time>2020-07-11T07:54:07Z</time>
      </trkpt>
      <trkpt lat="44.61817" lon="2.19065">
        <ele>413.5</ele>
        <time>2020-07-11T07:54:24Z</time>
      </trkpt>
      <trkpt lat="44.61821" lon="2.19062">
        <ele>413.5</ele>
        <time>2020-07-11T07:54:42Z</time>
      </trkpt>
      <trkpt lat="44.61828" lon="2.19051">
        <ele>413.5</ele>
        <time>2020-07-11T07:54:55Z</time>
      </trkpt>
      <trkpt lat="44.61827" lon="2.19054">
        <ele>413.98</ele>
        <time>2020-07-11T07:55:14Z</time>
      </trkpt>
      <trkpt lat="44.6183" lon="2.19054">
        <ele>413.98</ele>
        <time>2020-07-11T07:55:28Z</time>
      </trkpt>
      <trkpt lat="44.61827" lon="2.19053">
        <ele>413.98</ele>
        <time>2020-07-11T07:55:59Z</time>
      </trkpt>
      <trkpt lat="44.61829" lon="2.19051">
        <ele>413.98</ele>
        <time>2020-07-11T07:56:16Z</time>
      </trkpt>
      <trkpt lat="44.61831" lon="2.19052">
        <ele>413.98</ele>
        <time>2020-07-11T07:56:29Z</time>
      </trkpt>
      <trkpt lat="44.61833" lon="2.19053">
        <ele>413.98</ele>
        <time>2020-07-11T07:56:59Z</time>
      </trkpt>
      <trkpt lat="44.6183" lon="2.19052">
        <ele>413.98</ele>
        <time>2020-07-11T07:57:35Z</time>
      </trkpt>
      <trkpt lat="44.6183" lon="2.19052">
        <ele>413.98</ele>
        <time>2020-07-11T07:58:07Z</time>
      </trkpt>
      <trkpt lat="44.61832" lon="2.19053">
        <ele>413.98</ele>
        <time>2020-07-11T07:58:34Z</time>
      </trkpt>
      <trkpt lat="44.6183" lon="2.19054">
        <ele>414.47</ele>
        <time>2020-07-11T07:58:50Z</time>
      </trkpt>
      <trkpt lat="44.6183" lon="2.19055">
        <ele>413.98</ele>
        <time>2020-07-11T07:59:25Z</time>
      </trkpt>
      <trkpt lat="44.61825" lon="2.19054">
        <ele>413.02</ele>
        <time>2020-07-11T07:59:49Z</time>
      </trkpt>
      <trkpt lat="44.61812" lon="2.19037">
        <ele>413.02</ele>
        <time>2020-07-11T08:00:08Z</time>
      </trkpt>
      <trkpt lat="44.61806" lon="2.19031">
        <ele>413.02</ele>
        <time>2020-07-11T08:00:16Z</time>
      </trkpt>
      <trkpt lat="44.61796" lon="2.19031">
        <ele>413.98</ele>
        <time>2020-07-11T08:00:29Z</time>
      </trkpt>
      <trkpt lat="44.61803" lon="2.19034">
        <ele>414.47</ele>
        <time>2020-07-11T08:00:51Z</time>
      </trkpt>
      <trkpt lat="44.61797" lon="2.19026">
        <ele>414.47</ele>
        <time>2020-07-11T08:01:06Z</time>
      </trkpt>
      <trkpt lat="44.6179" lon="2.19031">
        <ele>414.47</ele>
        <time>2020-07-11T08:01:18Z</time>
      </trkpt>
      <trkpt lat="44.61789" lon="2.19022">
        <ele>413.5</ele>
        <time>2020-07-11T08:01:26Z</time>
      </trkpt>
      <trkpt lat="44.61776" lon="2.19004">
        <ele>411.1</ele>
        <time>2020-07-11T08:01:47Z</time>
      </trkpt>
      <trkpt lat="44.61774" lon="2.19">
        <ele>410.62</ele>
        <time>2020-07-11T08:01:50Z</time>
      </trkpt>
      <trkpt lat="44.61756" lon="2.18972">
        <ele>407.74</ele>
        <time>2020-07-11T08:02:12Z</time>
      </trkpt>
      <trkpt lat="44.61756" lon="2.18971">
        <ele>407.74</ele>
        <time>2020-07-11T08:02:13Z</time>
      </trkpt>
      <trkpt lat="44.61738" lon="2.18942">
        <ele>404.37</ele>
        <time>2020-07-11T08:02:36Z</time>
      </trkpt>
      <trkpt lat="44.61725" lon="2.18918">
        <ele>401.49</ele>
        <time>2020-07-11T08:02:53Z</time>
      </trkpt>
      <trkpt lat="44.61717" lon="2.18896">
        <ele>399.57</ele>
        <time>2020-07-11T08:03:10Z</time>
      </trkpt>
      <trkpt lat="44.61706" lon="2.18866">
        <ele>396.68</ele>
        <time>2020-07-11T08:03:31Z</time>
      </trkpt>
      <trkpt lat="44.61705" lon="2.18838">
        <ele>394.76</ele>
        <time>2020-07-11T08:03:52Z</time>
      </trkpt>
      <trkpt lat="44.61716" lon="2.1881">
        <ele>392.36</ele>
        <time>2020-07-11T08:04:11Z</time>
      </trkpt>
      <trkpt lat="44.61733" lon="2.1879">
        <ele>388.99</ele>
        <time>2020-07-11T08:04:34Z</time>
      </trkpt>
      <trkpt lat="44.61751" lon="2.18783">
        <ele>386.59</ele>
        <time>2020-07-11T08:04:49Z</time>
      </trkpt>
      <trkpt lat="44.61774" lon="2.1878">
        <ele>384.18</ele>
        <time>2020-07-11T08:05:09Z</time>
      </trkpt>
      <trkpt lat="44.61784" lon="2.1878">
        <ele>382.26</ele>
        <time>2020-07-11T08:05:17Z</time>
      </trkpt>
      <trkpt lat="44.61811" lon="2.18781">
        <ele>380.82</ele>
        <time>2020-07-11T08:05:40Z</time>
      </trkpt>
      <trkpt lat="44.61813" lon="2.18782">
        <ele>378.9</ele>
        <time>2020-07-11T08:05:42Z</time>
      </trkpt>
      <trkpt lat="44.61834" lon="2.18781">
        <ele>376.49</ele>
        <time>2020-07-11T08:06:01Z</time>
      </trkpt>
      <trkpt lat="44.61857" lon="2.18776">
        <ele>374.09</ele>
        <time>2020-07-11T08:06:20Z</time>
      </trkpt>
      <trkpt lat="44.61874" lon="2.18762">
        <ele>371.69</ele>
        <time>2020-07-11T08:06:38Z</time>
      </trkpt>
      <trkpt lat="44.61891" lon="2.18746">
        <ele>369.76</ele>
        <time>2020-07-11T08:06:56Z</time>
      </trkpt>
      <trkpt lat="44.61894" lon="2.18737">
        <ele>368.8</ele>
        <time>2020-07-11T08:07:02Z</time>
      </trkpt>
      <trkpt lat="44.61905" lon="2.18707">
        <ele>366.4</ele>
        <time>2020-07-11T08:07:21Z</time>
      </trkpt>
      <trkpt lat="44.61908" lon="2.18694">
        <ele>365.44</ele>
        <time>2020-07-11T08:07:29Z</time>
      </trkpt>
      <trkpt lat="44.61914" lon="2.1866">
        <ele>364</ele>
        <time>2020-07-11T08:07:49Z</time>
      </trkpt>
      <trkpt lat="44.61911" lon="2.18629">
        <ele>362.55</ele>
        <time>2020-07-11T08:08:06Z</time>
      </trkpt>
      <trkpt lat="44.6191" lon="2.18601">
        <ele>361.11</ele>
        <time>2020-07-11T08:08:23Z</time>
      </trkpt>
      <trkpt lat="44.61914" lon="2.18569">
        <ele>360.15</ele>
        <time>2020-07-11T08:08:42Z</time>
      </trkpt>
      <trkpt lat="44.61916" lon="2.18535">
        <ele>362.07</ele>
        <time>2020-07-11T08:09:02Z</time>
      </trkpt>
      <trkpt lat="44.61915" lon="2.18502">
        <ele>363.52</ele>
        <time>2020-07-11T08:09:21Z</time>
      </trkpt>
      <trkpt lat="44.61915" lon="2.18473">
        <ele>365.44</ele>
        <time>2020-07-11T08:09:40Z</time>
      </trkpt>
      <trkpt lat="44.61918" lon="2.18443">
        <ele>366.88</ele>
        <time>2020-07-11T08:09:59Z</time>
      </trkpt>
      <trkpt lat="44.6192" lon="2.18409">
        <ele>369.28</ele>
        <time>2020-07-11T08:10:21Z</time>
      </trkpt>
      <trkpt lat="44.61919" lon="2.18379">
        <ele>370.24</ele>
        <time>2020-07-11T08:10:39Z</time>
      </trkpt>
      <trkpt lat="44.6192" lon="2.18348">
        <ele>371.69</ele>
        <time>2020-07-11T08:10:58Z</time>
      </trkpt>
      <trkpt lat="44.6192" lon="2.18328">
        <ele>373.13</ele>
        <time>2020-07-11T08:11:11Z</time>
      </trkpt>
      <trkpt lat="44.61919" lon="2.18304">
        <ele>374.57</ele>
        <time>2020-07-11T08:11:26Z</time>
      </trkpt>
      <trkpt lat="44.61921" lon="2.18269">
        <ele>376.97</ele>
        <time>2020-07-11T08:11:48Z</time>
      </trkpt>
      <trkpt lat="44.61923" lon="2.18251">
        <ele>378.42</ele>
        <time>2020-07-11T08:12:00Z</time>
      </trkpt>
      <trkpt lat="44.6193" lon="2.18219">
        <ele>381.3</ele>
        <time>2020-07-11T08:12:21Z</time>
      </trkpt>
      <trkpt lat="44.6193" lon="2.18189">
        <ele>382.26</ele>
        <time>2020-07-11T08:12:42Z</time>
      </trkpt>
      <trkpt lat="44.61926" lon="2.18186">
        <ele>381.78</ele>
        <time>2020-07-11T08:13:10Z</time>
      </trkpt>
      <trkpt lat="44.61931" lon="2.18185">
        <ele>381.78</ele>
        <time>2020-07-11T08:13:27Z</time>
      </trkpt>
      <trkpt lat="44.61922" lon="2.18174">
        <ele>382.26</ele>
        <time>2020-07-11T08:13:44Z</time>
      </trkpt>
      <trkpt lat="44.61917" lon="2.18166">
        <ele>382.26</ele>
        <time>2020-07-11T08:14:06Z</time>
      </trkpt>
      <trkpt lat="44.61919" lon="2.18166">
        <ele>382.26</ele>
        <time>2020-07-11T08:14:41Z</time>
      </trkpt>
      <trkpt lat="44.61916" lon="2.18162">
        <ele>382.26</ele>
        <time>2020-07-11T08:15:17Z</time>
      </trkpt>
      <trkpt lat="44.61891" lon="2.18155">
        <ele>382.74</ele>
        <time>2020-07-11T08:15:38Z</time>
      </trkpt>
      <trkpt lat="44.61886" lon="2.18151">
        <ele>383.22</ele>
        <time>2020-07-11T08:15:42Z</time>
      </trkpt>
      <trkpt lat="44.6186" lon="2.18146">
        <ele>384.18</ele>
        <time>2020-07-11T08:16:02Z</time>
      </trkpt>
      <trkpt lat="44.6185" lon="2.18146">
        <ele>385.15</ele>
        <time>2020-07-11T08:16:09Z</time>
      </trkpt>
      <trkpt lat="44.61845" lon="2.18146">
        <ele>383.7</ele>
        <time>2020-07-11T08:16:13Z</time>
      </trkpt>
      <trkpt lat="44.61842" lon="2.18146">
        <ele>385.15</ele>
        <time>2020-07-11T08:16:15Z</time>
      </trkpt>
      <trkpt lat="44.61818" lon="2.18143">
        <ele>385.63</ele>
        <time>2020-07-11T08:16:33Z</time>
      </trkpt>
      <trkpt lat="44.61794" lon="2.18131">
        <ele>386.59</ele>
        <time>2020-07-11T08:16:53Z</time>
      </trkpt>
      <trkpt lat="44.61785" lon="2.18125">
        <ele>387.55</ele>
        <time>2020-07-11T08:17:01Z</time>
      </trkpt>
      <trkpt lat="44.6176" lon="2.181">
        <ele>389.47</ele>
        <time>2020-07-11T08:17:24Z</time>
      </trkpt>
      <trkpt lat="44.61744" lon="2.18085">
        <ele>388.99</ele>
        <time>2020-07-11T08:17:40Z</time>
      </trkpt>
      <trkpt lat="44.61728" lon="2.18071">
        <ele>390.91</ele>
        <time>2020-07-11T08:17:54Z</time>
      </trkpt>
      <trkpt lat="44.61726" lon="2.1807">
        <ele>389.47</ele>
        <time>2020-07-11T08:17:56Z</time>
      </trkpt>
      <trkpt lat="44.61724" lon="2.18068">
        <ele>390.43</ele>
        <time>2020-07-11T08:17:59Z</time>
      </trkpt>
      <trkpt lat="44.617" lon="2.18045">
        <ele>390.43</ele>
        <time>2020-07-11T08:18:20Z</time>
      </trkpt>
      <trkpt lat="44.61687" lon="2.18008">
        <ele>390.91</ele>
        <time>2020-07-11T08:18:44Z</time>
      </trkpt>
      <trkpt lat="44.61693" lon="2.17983">
        <ele>390.43</ele>
        <time>2020-07-11T08:18:59Z</time>
      </trkpt>
      <trkpt lat="44.61697" lon="2.17972">
        <ele>392.36</ele>
        <time>2020-07-11T08:19:05Z</time>
      </trkpt>
      <trkpt lat="44.617" lon="2.17963">
        <ele>392.36</ele>
        <time>2020-07-11T08:19:10Z</time>
      </trkpt>
      <trkpt lat="44.61715" lon="2.17923">
        <ele>392.84</ele>
        <time>2020-07-11T08:19:33Z</time>
      </trkpt>
      <trkpt lat="44.61716" lon="2.17919">
        <ele>391.39</ele>
        <time>2020-07-11T08:19:35Z</time>
      </trkpt>
      <trkpt lat="44.6171" lon="2.17904">
        <ele>390.43</ele>
        <time>2020-07-11T08:19:46Z</time>
      </trkpt>
      <trkpt lat="44.61705" lon="2.17894">
        <ele>390.91</ele>
        <time>2020-07-11T08:19:53Z</time>
      </trkpt>
      <trkpt lat="44.61702" lon="2.1789">
        <ele>390.91</ele>
        <time>2020-07-11T08:19:56Z</time>
      </trkpt>
      <trkpt lat="44.617" lon="2.17887">
        <ele>389.47</ele>
        <time>2020-07-11T08:19:58Z</time>
      </trkpt>
      <trkpt lat="44.617" lon="2.17885">
        <ele>389.47</ele>
        <time>2020-07-11T08:19:59Z</time>
      </trkpt>
      <trkpt lat="44.61703" lon="2.17871">
        <ele>389.47</ele>
        <time>2020-07-11T08:20:07Z</time>
      </trkpt>
      <trkpt lat="44.61712" lon="2.17857">
        <ele>388.03</ele>
        <time>2020-07-11T08:20:19Z</time>
      </trkpt>
      <trkpt lat="44.61717" lon="2.17849">
        <ele>388.99</ele>
        <time>2020-07-11T08:20:26Z</time>
      </trkpt>
      <trkpt lat="44.61733" lon="2.17858">
        <ele>388.99</ele>
        <time>2020-07-11T08:20:42Z</time>
      </trkpt>
      <trkpt lat="44.61755" lon="2.17845">
        <ele>388.51</ele>
        <time>2020-07-11T08:21:03Z</time>
      </trkpt>
      <trkpt lat="44.61756" lon="2.17843">
        <ele>388.51</ele>
        <time>2020-07-11T08:21:04Z</time>
      </trkpt>
      <trkpt lat="44.61766" lon="2.17827">
        <ele>386.59</ele>
        <time>2020-07-11T08:21:13Z</time>
      </trkpt>
      <trkpt lat="44.61782" lon="2.17792">
        <ele>384.66</ele>
        <time>2020-07-11T08:21:37Z</time>
      </trkpt>
      <trkpt lat="44.618" lon="2.17776">
        <ele>382.26</ele>
        <time>2020-07-11T08:21:56Z</time>
      </trkpt>
      <trkpt lat="44.61827" lon="2.17778">
        <ele>379.38</ele>
        <time>2020-07-11T08:22:18Z</time>
      </trkpt>
      <trkpt lat="44.61852" lon="2.17764">
        <ele>376.01</ele>
        <time>2020-07-11T08:22:39Z</time>
      </trkpt>
      <trkpt lat="44.61853" lon="2.1776">
        <ele>375.53</ele>
        <time>2020-07-11T08:22:42Z</time>
      </trkpt>
      <trkpt lat="44.61859" lon="2.17744">
        <ele>375.53</ele>
        <time>2020-07-11T08:22:51Z</time>
      </trkpt>
      <trkpt lat="44.61868" lon="2.17721">
        <ele>377.94</ele>
        <time>2020-07-11T08:23:08Z</time>
      </trkpt>
      <trkpt lat="44.6187" lon="2.17697">
        <ele>380.82</ele>
        <time>2020-07-11T08:23:25Z</time>
      </trkpt>
      <trkpt lat="44.61878" lon="2.17677">
        <ele>381.3</ele>
        <time>2020-07-11T08:23:41Z</time>
      </trkpt>
      <trkpt lat="44.61886" lon="2.17654">
        <ele>381.78</ele>
        <time>2020-07-11T08:23:59Z</time>
      </trkpt>
      <trkpt lat="44.61887" lon="2.17621">
        <ele>382.26</ele>
        <time>2020-07-11T08:24:18Z</time>
      </trkpt>
      <trkpt lat="44.61888" lon="2.1762">
        <ele>380.82</ele>
        <time>2020-07-11T08:24:19Z</time>
      </trkpt>
      <trkpt lat="44.61895" lon="2.1761">
        <ele>382.26</ele>
        <time>2020-07-11T08:24:27Z</time>
      </trkpt>
      <trkpt lat="44.61906" lon="2.17608">
        <ele>382.26</ele>
        <time>2020-07-11T08:24:45Z</time>
      </trkpt>
      <trkpt lat="44.61916" lon="2.17597">
        <ele>381.78</ele>
        <time>2020-07-11T08:25:09Z</time>
      </trkpt>
      <trkpt lat="44.61931" lon="2.17576">
        <ele>380.34</ele>
        <time>2020-07-11T08:25:26Z</time>
      </trkpt>
      <trkpt lat="44.61939" lon="2.17564">
        <ele>379.38</ele>
        <time>2020-07-11T08:25:34Z</time>
      </trkpt>
      <trkpt lat="44.61941" lon="2.17561">
        <ele>380.82</ele>
        <time>2020-07-11T08:25:36Z</time>
      </trkpt>
      <trkpt lat="44.61958" lon="2.17527">
        <ele>379.38</ele>
        <time>2020-07-11T08:25:58Z</time>
      </trkpt>
      <trkpt lat="44.61961" lon="2.1752">
        <ele>377.45</ele>
        <time>2020-07-11T08:26:02Z</time>
      </trkpt>
      <trkpt lat="44.61972" lon="2.17496">
        <ele>376.49</ele>
        <time>2020-07-11T08:26:19Z</time>
      </trkpt>
      <trkpt lat="44.6198" lon="2.17485">
        <ele>375.53</ele>
        <time>2020-07-11T08:26:29Z</time>
      </trkpt>
      <trkpt lat="44.61992" lon="2.17455">
        <ele>373.61</ele>
        <time>2020-07-11T08:26:49Z</time>
      </trkpt>
      <trkpt lat="44.61998" lon="2.17424">
        <ele>373.61</ele>
        <time>2020-07-11T08:27:08Z</time>
      </trkpt>
      <trkpt lat="44.61998" lon="2.174">
        <ele>372.17</ele>
        <time>2020-07-11T08:27:22Z</time>
      </trkpt>
      <trkpt lat="44.6199" lon="2.17377">
        <ele>370.73</ele>
        <time>2020-07-11T08:27:37Z</time>
      </trkpt>
      <trkpt lat="44.6198" lon="2.17351">
        <ele>368.8</ele>
        <time>2020-07-11T08:27:56Z</time>
      </trkpt>
      <trkpt lat="44.61974" lon="2.17333">
        <ele>367.84</ele>
        <time>2020-07-11T08:28:09Z</time>
      </trkpt>
      <trkpt lat="44.61962" lon="2.17301">
        <ele>365.44</ele>
        <time>2020-07-11T08:28:30Z</time>
      </trkpt>
      <trkpt lat="44.61952" lon="2.17275">
        <ele>364</ele>
        <time>2020-07-11T08:28:49Z</time>
      </trkpt>
      <trkpt lat="44.61942" lon="2.17242">
        <ele>363.52</ele>
        <time>2020-07-11T08:29:09Z</time>
      </trkpt>
      <trkpt lat="44.61931" lon="2.17208">
        <ele>362.07</ele>
        <time>2020-07-11T08:29:32Z</time>
      </trkpt>
      <trkpt lat="44.61924" lon="2.1718">
        <ele>361.11</ele>
        <time>2020-07-11T08:29:49Z</time>
      </trkpt>
      <trkpt lat="44.61918" lon="2.17152">
        <ele>357.75</ele>
        <time>2020-07-11T08:30:08Z</time>
      </trkpt>
      <trkpt lat="44.61918" lon="2.1714">
        <ele>357.75</ele>
        <time>2020-07-11T08:30:15Z</time>
      </trkpt>
      <trkpt lat="44.61913" lon="2.17108">
        <ele>356.31</ele>
        <time>2020-07-11T08:30:34Z</time>
      </trkpt>
      <trkpt lat="44.6191" lon="2.17081">
        <ele>354.86</ele>
        <time>2020-07-11T08:30:50Z</time>
      </trkpt>
      <trkpt lat="44.61912" lon="2.17044">
        <ele>353.42</ele>
        <time>2020-07-11T08:31:10Z</time>
      </trkpt>
      <trkpt lat="44.61916" lon="2.17005">
        <ele>352.46</ele>
        <time>2020-07-11T08:31:32Z</time>
      </trkpt>
      <trkpt lat="44.61918" lon="2.16966">
        <ele>351.98</ele>
        <time>2020-07-11T08:31:53Z</time>
      </trkpt>
      <trkpt lat="44.6192" lon="2.16933">
        <ele>351.5</ele>
        <time>2020-07-11T08:32:13Z</time>
      </trkpt>
      <trkpt lat="44.61922" lon="2.169">
        <ele>351.02</ele>
        <time>2020-07-11T08:32:34Z</time>
      </trkpt>
      <trkpt lat="44.61927" lon="2.16871">
        <ele>350.54</ele>
        <time>2020-07-11T08:32:52Z</time>
      </trkpt>
      <trkpt lat="44.61928" lon="2.16859">
        <ele>350.06</ele>
        <time>2020-07-11T08:33:01Z</time>
      </trkpt>
      <trkpt lat="44.61914" lon="2.16847">
        <ele>350.06</ele>
        <time>2020-07-11T08:33:18Z</time>
      </trkpt>
      <trkpt lat="44.61904" lon="2.16841">
        <ele>351.5</ele>
        <time>2020-07-11T08:33:29Z</time>
      </trkpt>
      <trkpt lat="44.61882" lon="2.16836">
        <ele>351.5</ele>
        <time>2020-07-11T08:33:46Z</time>
      </trkpt>
      <trkpt lat="44.61862" lon="2.16831">
        <ele>349.1</ele>
        <time>2020-07-11T08:34:05Z</time>
      </trkpt>
      <trkpt lat="44.61859" lon="2.16831">
        <ele>350.06</ele>
        <time>2020-07-11T08:34:20Z</time>
      </trkpt>
      <trkpt lat="44.61848" lon="2.16828">
        <ele>350.54</ele>
        <time>2020-07-11T08:34:35Z</time>
      </trkpt>
      <trkpt lat="44.61846" lon="2.16827">
        <ele>349.1</ele>
        <time>2020-07-11T08:34:37Z</time>
      </trkpt>
      <trkpt lat="44.61829" lon="2.16823">
        <ele>349.58</ele>
        <time>2020-07-11T08:34:49Z</time>
      </trkpt>
      <trkpt lat="44.61824" lon="2.16822">
        <ele>348.13</ele>
        <time>2020-07-11T08:34:53Z</time>
      </trkpt>
      <trkpt lat="44.61812" lon="2.16821">
        <ele>347.65</ele>
        <time>2020-07-11T08:35:03Z</time>
      </trkpt>
      <trkpt lat="44.61786" lon="2.16815">
        <ele>345.73</ele>
        <time>2020-07-11T08:35:23Z</time>
      </trkpt>
      <trkpt lat="44.6178" lon="2.16818">
        <ele>343.81</ele>
        <time>2020-07-11T08:35:29Z</time>
      </trkpt>
      <trkpt lat="44.61778" lon="2.16819">
        <ele>345.73</ele>
        <time>2020-07-11T08:35:31Z</time>
      </trkpt>
      <trkpt lat="44.61753" lon="2.16828">
        <ele>342.85</ele>
        <time>2020-07-11T08:35:52Z</time>
      </trkpt>
      <trkpt lat="44.61743" lon="2.16836">
        <ele>341.41</ele>
        <time>2020-07-11T08:36:00Z</time>
      </trkpt>
      <trkpt lat="44.61741" lon="2.16838">
        <ele>342.85</ele>
        <time>2020-07-11T08:36:02Z</time>
      </trkpt>
      <trkpt lat="44.61736" lon="2.16844">
        <ele>340.92</ele>
        <time>2020-07-11T08:36:08Z</time>
      </trkpt>
      <trkpt lat="44.61726" lon="2.16851">
        <ele>340.92</ele>
        <time>2020-07-11T08:36:17Z</time>
      </trkpt>
      <trkpt lat="44.61708" lon="2.16852">
        <ele>341.89</ele>
        <time>2020-07-11T08:36:31Z</time>
      </trkpt>
      <trkpt lat="44.61706" lon="2.16852">
        <ele>340.44</ele>
        <time>2020-07-11T08:36:33Z</time>
      </trkpt>
      <trkpt lat="44.61705" lon="2.16852">
        <ele>340.44</ele>
        <time>2020-07-11T08:36:40Z</time>
      </trkpt>
      <trkpt lat="44.61691" lon="2.16848">
        <ele>340.92</ele>
        <time>2020-07-11T08:36:59Z</time>
      </trkpt>
      <trkpt lat="44.61689" lon="2.16844">
        <ele>340.92</ele>
        <time>2020-07-11T08:37:19Z</time>
      </trkpt>
      <trkpt lat="44.61689" lon="2.16847">
        <ele>340.92</ele>
        <time>2020-07-11T08:37:44Z</time>
      </trkpt>
      <trkpt lat="44.61687" lon="2.16846">
        <ele>340.92</ele>
        <time>2020-07-11T08:38:06Z</time>
      </trkpt>
      <trkpt lat="44.61689" lon="2.1685">
        <ele>340.92</ele>
        <time>2020-07-11T08:38:36Z</time>
      </trkpt>
      <trkpt lat="44.61686" lon="2.16846">
        <ele>340.44</ele>
        <time>2020-07-11T08:39:10Z</time>
      </trkpt>
      <trkpt lat="44.61686" lon="2.16848">
        <ele>340.44</ele>
        <time>2020-07-11T08:39:33Z</time>
      </trkpt>
      <trkpt lat="44.61687" lon="2.1685">
        <ele>340.44</ele>
        <time>2020-07-11T08:39:52Z</time>
      </trkpt>
      <trkpt lat="44.61688" lon="2.1685">
        <ele>340.44</ele>
        <time>2020-07-11T08:40:18Z</time>
      </trkpt>
      <trkpt lat="44.61687" lon="2.1685">
        <ele>341.89</ele>
        <time>2020-07-11T08:40:34Z</time>
      </trkpt>
      <trkpt lat="44.61685" lon="2.1685">
        <ele>341.89</ele>
        <time>2020-07-11T08:41:00Z</time>
      </trkpt>
      <trkpt lat="44.61687" lon="2.16848">
        <ele>341.89</ele>
        <time>2020-07-11T08:41:20Z</time>
      </trkpt>
      <trkpt lat="44.61686" lon="2.16849">
        <ele>341.89</ele>
        <time>2020-07-11T08:41:46Z</time>
      </trkpt>
      <trkpt lat="44.61686" lon="2.16848">
        <ele>341.89</ele>
        <time>2020-07-11T08:42:15Z</time>
      </trkpt>
      <trkpt lat="44.61687" lon="2.16848">
        <ele>341.89</ele>
        <time>2020-07-11T08:42:45Z</time>
      </trkpt>
      <trkpt lat="44.61686" lon="2.16849">
        <ele>341.89</ele>
        <time>2020-07-11T08:43:11Z</time>
      </trkpt>
      <trkpt lat="44.61686" lon="2.16848">
        <ele>340.44</ele>
        <time>2020-07-11T08:43:28Z</time>
      </trkpt>
      <trkpt lat="44.61684" lon="2.1685">
        <ele>340.44</ele>
        <time>2020-07-11T08:43:51Z</time>
      </trkpt>
      <trkpt lat="44.61682" lon="2.16847">
        <ele>341.41</ele>
        <time>2020-07-11T08:44:09Z</time>
      </trkpt>
      <trkpt lat="44.61683" lon="2.16845">
        <ele>341.89</ele>
        <time>2020-07-11T08:44:20Z</time>
      </trkpt>
      <trkpt lat="44.61684" lon="2.16845">
        <ele>340.44</ele>
        <time>2020-07-11T08:44:22Z</time>
      </trkpt>
      <trkpt lat="44.61686" lon="2.16846">
        <ele>340.44</ele>
        <time>2020-07-11T08:44:42Z</time>
      </trkpt>
      <trkpt lat="44.61686" lon="2.16851">
        <ele>340.44</ele>
        <time>2020-07-11T08:45:08Z</time>
      </trkpt>
      <trkpt lat="44.61684" lon="2.16853">
        <ele>340.44</ele>
        <time>2020-07-11T08:45:30Z</time>
      </trkpt>
      <trkpt lat="44.61686" lon="2.16846">
        <ele>340.44</ele>
        <time>2020-07-11T08:45:47Z</time>
      </trkpt>
      <trkpt lat="44.61683" lon="2.16841">
        <ele>339.48</ele>
        <time>2020-07-11T08:46:16Z</time>
      </trkpt>
      <trkpt lat="44.61684" lon="2.16813">
        <ele>337.08</ele>
        <time>2020-07-11T08:46:35Z</time>
      </trkpt>
      <trkpt lat="44.61683" lon="2.16789">
        <ele>334.68</ele>
        <time>2020-07-11T08:46:53Z</time>
      </trkpt>
      <trkpt lat="44.61683" lon="2.16776">
        <ele>332.27</ele>
        <time>2020-07-11T08:47:02Z</time>
      </trkpt>
      <trkpt lat="44.61682" lon="2.16752">
        <ele>330.35</ele>
        <time>2020-07-11T08:47:19Z</time>
      </trkpt>
      <trkpt lat="44.61681" lon="2.16733">
        <ele>327.95</ele>
        <time>2020-07-11T08:47:32Z</time>
      </trkpt>
      <trkpt lat="44.61676" lon="2.16704">
        <ele>326.99</ele>
        <time>2020-07-11T08:47:52Z</time>
      </trkpt>
      <trkpt lat="44.61671" lon="2.1668">
        <ele>324.58</ele>
        <time>2020-07-11T08:48:10Z</time>
      </trkpt>
      <trkpt lat="44.6167" lon="2.16666">
        <ele>323.14</ele>
        <time>2020-07-11T08:48:29Z</time>
      </trkpt>
      <trkpt lat="44.61664" lon="2.16641">
        <ele>320.74</ele>
        <time>2020-07-11T08:48:46Z</time>
      </trkpt>
      <trkpt lat="44.61659" lon="2.16615">
        <ele>318.33</ele>
        <time>2020-07-11T08:49:05Z</time>
      </trkpt>
      <trkpt lat="44.61651" lon="2.16589">
        <ele>315.93</ele>
        <time>2020-07-11T08:49:26Z</time>
      </trkpt>
      <trkpt lat="44.61648" lon="2.16584">
        <ele>314.49</ele>
        <time>2020-07-11T08:49:32Z</time>
      </trkpt>
      <trkpt lat="44.61642" lon="2.16568">
        <ele>312.57</ele>
        <time>2020-07-11T08:49:46Z</time>
      </trkpt>
      <trkpt lat="44.61642" lon="2.1656">
        <ele>309.2</ele>
        <time>2020-07-11T08:49:55Z</time>
      </trkpt>
      <trkpt lat="44.61639" lon="2.16546">
        <ele>309.2</ele>
        <time>2020-07-11T08:50:05Z</time>
      </trkpt>
      <trkpt lat="44.61628" lon="2.16528">
        <ele>305.84</ele>
        <time>2020-07-11T08:50:21Z</time>
      </trkpt>
      <trkpt lat="44.61617" lon="2.1651">
        <ele>304.39</ele>
        <time>2020-07-11T08:50:41Z</time>
      </trkpt>
      <trkpt lat="44.61606" lon="2.16496">
        <ele>301.03</ele>
        <time>2020-07-11T08:50:57Z</time>
      </trkpt>
      <trkpt lat="44.61602" lon="2.16488">
        <ele>300.07</ele>
        <time>2020-07-11T08:51:04Z</time>
      </trkpt>
      <trkpt lat="44.6161" lon="2.16469">
        <ele>299.11</ele>
        <time>2020-07-11T08:51:18Z</time>
      </trkpt>
      <trkpt lat="44.61612" lon="2.16463">
        <ele>298.63</ele>
        <time>2020-07-11T08:51:21Z</time>
      </trkpt>
      <trkpt lat="44.61613" lon="2.1645">
        <ele>298.63</ele>
        <time>2020-07-11T08:51:35Z</time>
      </trkpt>
      <trkpt lat="44.61613" lon="2.16449">
        <ele>297.67</ele>
        <time>2020-07-11T08:51:38Z</time>
      </trkpt>
      <trkpt lat="44.61599" lon="2.16413">
        <ele>295.26</ele>
        <time>2020-07-11T08:52:02Z</time>
      </trkpt>
      <trkpt lat="44.61582" lon="2.16397">
        <ele>294.3</ele>
        <time>2020-07-11T08:52:21Z</time>
      </trkpt>
      <trkpt lat="44.61571" lon="2.16396">
        <ele>293.34</ele>
        <time>2020-07-11T08:52:31Z</time>
      </trkpt>
      <trkpt lat="44.61548" lon="2.16395">
        <ele>292.38</ele>
        <time>2020-07-11T08:52:52Z</time>
      </trkpt>
      <trkpt lat="44.6152" lon="2.16389">
        <ele>291.42</ele>
        <time>2020-07-11T08:53:13Z</time>
      </trkpt>
      <trkpt lat="44.61493" lon="2.16389">
        <ele>290.46</ele>
        <time>2020-07-11T08:53:37Z</time>
      </trkpt>
      <trkpt lat="44.61465" lon="2.16394">
        <ele>290.46</ele>
        <time>2020-07-11T08:54:01Z</time>
      </trkpt>
      <trkpt lat="44.61462" lon="2.16394">
        <ele>289.01</ele>
        <time>2020-07-11T08:54:03Z</time>
      </trkpt>
      <trkpt lat="44.61458" lon="2.16394">
        <ele>289.01</ele>
        <time>2020-07-11T08:54:21Z</time>
      </trkpt>
      <trkpt lat="44.61451" lon="2.16394">
        <ele>289.01</ele>
        <time>2020-07-11T08:54:30Z</time>
      </trkpt>
      <trkpt lat="44.61425" lon="2.16409">
        <ele>287.09</ele>
        <time>2020-07-11T08:54:52Z</time>
      </trkpt>
      <trkpt lat="44.61401" lon="2.16425">
        <ele>286.61</ele>
        <time>2020-07-11T08:55:12Z</time>
      </trkpt>
      <trkpt lat="44.614" lon="2.16425">
        <ele>286.13</ele>
        <time>2020-07-11T08:55:13Z</time>
      </trkpt>
      <trkpt lat="44.61375" lon="2.16416">
        <ele>284.69</ele>
        <time>2020-07-11T08:55:33Z</time>
      </trkpt>
      <trkpt lat="44.61379" lon="2.16408">
        <ele>284.21</ele>
        <time>2020-07-11T08:55:46Z</time>
      </trkpt>
      <trkpt lat="44.61379" lon="2.16397">
        <ele>284.21</ele>
        <time>2020-07-11T08:56:04Z</time>
      </trkpt>
      <trkpt lat="44.61378" lon="2.16385">
        <ele>284.21</ele>
        <time>2020-07-11T08:56:22Z</time>
      </trkpt>
      <trkpt lat="44.61375" lon="2.16411">
        <ele>284.21</ele>
        <time>2020-07-11T08:56:39Z</time>
      </trkpt>
      <trkpt lat="44.61366" lon="2.16412">
        <ele>283.73</ele>
        <time>2020-07-11T08:56:52Z</time>
      </trkpt>
      <trkpt lat="44.61367" lon="2.16394">
        <ele>283.25</ele>
        <time>2020-07-11T08:57:09Z</time>
      </trkpt>
      <trkpt lat="44.61371" lon="2.16368">
        <ele>281.8</ele>
        <time>2020-07-11T08:57:24Z</time>
      </trkpt>
      <trkpt lat="44.61378" lon="2.16367">
        <ele>283.25</ele>
        <time>2020-07-11T08:57:41Z</time>
      </trkpt>
      <trkpt lat="44.61369" lon="2.16375">
        <ele>283.73</ele>
        <time>2020-07-11T08:57:59Z</time>
      </trkpt>
      <trkpt lat="44.61366" lon="2.1637">
        <ele>283.73</ele>
        <time>2020-07-11T08:58:22Z</time>
      </trkpt>
      <trkpt lat="44.61367" lon="2.16379">
        <ele>283.73</ele>
        <time>2020-07-11T08:58:32Z</time>
      </trkpt>
      <trkpt lat="44.61366" lon="2.16364">
        <ele>283.73</ele>
        <time>2020-07-11T08:59:34Z</time>
      </trkpt>
      <trkpt lat="44.61367" lon="2.16359">
        <ele>283.73</ele>
        <time>2020-07-11T08:59:35Z</time>
      </trkpt>
      <trkpt lat="44.61365" lon="2.16356">
        <ele>283.73</ele>
        <time>2020-07-11T08:59:36Z</time>
      </trkpt>
      <trkpt lat="44.61367" lon="2.16317">
        <ele>283.73</ele>
        <time>2020-07-11T08:59:52Z</time>
      </trkpt>
      <trkpt lat="44.61369" lon="2.16334">
        <ele>283.73</ele>
        <time>2020-07-11T09:00:08Z</time>
      </trkpt>
      <trkpt lat="44.61359" lon="2.16354">
        <ele>283.73</ele>
        <time>2020-07-11T09:00:34Z</time>
      </trkpt>
      <trkpt lat="44.61357" lon="2.16353">
        <ele>284.21</ele>
        <time>2020-07-11T09:01:01Z</time>
      </trkpt>
      <trkpt lat="44.61379" lon="2.16357">
        <ele>285.17</ele>
        <time>2020-07-11T09:01:28Z</time>
      </trkpt>
      <trkpt lat="44.61373" lon="2.16352">
        <ele>286.13</ele>
        <time>2020-07-11T09:01:47Z</time>
      </trkpt>
      <trkpt lat="44.61375" lon="2.16345">
        <ele>285.17</ele>
        <time>2020-07-11T09:02:06Z</time>
      </trkpt>
      <trkpt lat="44.61384" lon="2.16323">
        <ele>285.17</ele>
        <time>2020-07-11T09:02:21Z</time>
      </trkpt>
      <trkpt lat="44.61396" lon="2.16299">
        <ele>285.65</ele>
        <time>2020-07-11T09:02:42Z</time>
      </trkpt>
      <trkpt lat="44.61403" lon="2.16278">
        <ele>285.65</ele>
        <time>2020-07-11T09:02:59Z</time>
      </trkpt>
      <trkpt lat="44.61416" lon="2.16269">
        <ele>285.65</ele>
        <time>2020-07-11T09:03:16Z</time>
      </trkpt>
      <trkpt lat="44.61417" lon="2.16269">
        <ele>286.13</ele>
        <time>2020-07-11T09:03:17Z</time>
      </trkpt>
      <trkpt lat="44.6143" lon="2.16271">
        <ele>287.57</ele>
        <time>2020-07-11T09:03:32Z</time>
      </trkpt>
      <trkpt lat="44.61448" lon="2.16268">
        <ele>289.01</ele>
        <time>2020-07-11T09:03:50Z</time>
      </trkpt>
      <trkpt lat="44.61466" lon="2.16266">
        <ele>292.38</ele>
        <time>2020-07-11T09:04:10Z</time>
      </trkpt>
      <trkpt lat="44.61466" lon="2.16266">
        <ele>292.38</ele>
        <time>2020-07-11T09:04:11Z</time>
      </trkpt>
      <trkpt lat="44.61482" lon="2.16256">
        <ele>294.3</ele>
        <time>2020-07-11T09:04:31Z</time>
      </trkpt>
      <trkpt lat="44.61502" lon="2.16247">
        <ele>295.74</ele>
        <time>2020-07-11T09:04:50Z</time>
      </trkpt>
      <trkpt lat="44.61506" lon="2.16243">
        <ele>295.26</ele>
        <time>2020-07-11T09:04:55Z</time>
      </trkpt>
      <trkpt lat="44.61507" lon="2.16242">
        <ele>295.26</ele>
        <time>2020-07-11T09:04:56Z</time>
      </trkpt>
      <trkpt lat="44.61521" lon="2.16227">
        <ele>295.26</ele>
        <time>2020-07-11T09:05:16Z</time>
      </trkpt>
      <trkpt lat="44.61536" lon="2.16211">
        <ele>294.78</ele>
        <time>2020-07-11T09:05:33Z</time>
      </trkpt>
      <trkpt lat="44.61538" lon="2.16209">
        <ele>294.78</ele>
        <time>2020-07-11T09:05:35Z</time>
      </trkpt>
      <trkpt lat="44.61539" lon="2.16207">
        <ele>294.78</ele>
        <time>2020-07-11T09:05:37Z</time>
      </trkpt>
      <trkpt lat="44.61541" lon="2.16204">
        <ele>293.82</ele>
        <time>2020-07-11T09:05:39Z</time>
      </trkpt>
      <trkpt lat="44.61556" lon="2.16184">
        <ele>292.38</ele>
        <time>2020-07-11T09:05:57Z</time>
      </trkpt>
      <trkpt lat="44.61577" lon="2.16161">
        <ele>290.46</ele>
        <time>2020-07-11T09:06:19Z</time>
      </trkpt>
      <trkpt lat="44.61579" lon="2.16159">
        <ele>290.46</ele>
        <time>2020-07-11T09:06:21Z</time>
      </trkpt>
      <trkpt lat="44.61594" lon="2.16154">
        <ele>289.97</ele>
        <time>2020-07-11T09:06:36Z</time>
      </trkpt>
      <trkpt lat="44.61602" lon="2.16169">
        <ele>289.49</ele>
        <time>2020-07-11T09:06:53Z</time>
      </trkpt>
      <trkpt lat="44.61614" lon="2.16198">
        <ele>289.49</ele>
        <time>2020-07-11T09:07:15Z</time>
      </trkpt>
      <trkpt lat="44.61624" lon="2.16213">
        <ele>290.46</ele>
        <time>2020-07-11T09:07:36Z</time>
      </trkpt>
      <trkpt lat="44.61636" lon="2.16232">
        <ele>291.42</ele>
        <time>2020-07-11T09:07:56Z</time>
      </trkpt>
      <trkpt lat="44.61659" lon="2.16218">
        <ele>291.42</ele>
        <time>2020-07-11T09:08:16Z</time>
      </trkpt>
      <trkpt lat="44.61668" lon="2.16209">
        <ele>289.97</ele>
        <time>2020-07-11T09:08:27Z</time>
      </trkpt>
      <trkpt lat="44.61686" lon="2.16191">
        <ele>289.97</ele>
        <time>2020-07-11T09:08:46Z</time>
      </trkpt>
      <trkpt lat="44.61704" lon="2.16177">
        <ele>289.97</ele>
        <time>2020-07-11T09:09:04Z</time>
      </trkpt>
      <trkpt lat="44.61726" lon="2.16161">
        <ele>289.97</ele>
        <time>2020-07-11T09:09:24Z</time>
      </trkpt>
      <trkpt lat="44.61749" lon="2.16141">
        <ele>289.49</ele>
        <time>2020-07-11T09:09:47Z</time>
      </trkpt>
      <trkpt lat="44.6177" lon="2.16119">
        <ele>291.42</ele>
        <time>2020-07-11T09:10:07Z</time>
      </trkpt>
      <trkpt lat="44.61786" lon="2.161">
        <ele>291.42</ele>
        <time>2020-07-11T09:10:28Z</time>
      </trkpt>
      <trkpt lat="44.61793" lon="2.16085">
        <ele>289.49</ele>
        <time>2020-07-11T09:10:47Z</time>
      </trkpt>
      <trkpt lat="44.61793" lon="2.16083">
        <ele>289.49</ele>
        <time>2020-07-11T09:10:48Z</time>
      </trkpt>
      <trkpt lat="44.61799" lon="2.1606">
        <ele>289.01</ele>
        <time>2020-07-11T09:11:06Z</time>
      </trkpt>
      <trkpt lat="44.61797" lon="2.16063">
        <ele>289.01</ele>
        <time>2020-07-11T09:11:33Z</time>
      </trkpt>
      <trkpt lat="44.61808" lon="2.16058">
        <ele>289.01</ele>
        <time>2020-07-11T09:11:56Z</time>
      </trkpt>
      <trkpt lat="44.61828" lon="2.16042">
        <ele>288.05</ele>
        <time>2020-07-11T09:12:17Z</time>
      </trkpt>
      <trkpt lat="44.61848" lon="2.16022">
        <ele>288.05</ele>
        <time>2020-07-11T09:12:36Z</time>
      </trkpt>
      <trkpt lat="44.61871" lon="2.16001">
        <ele>287.09</ele>
        <time>2020-07-11T09:12:56Z</time>
      </trkpt>
      <trkpt lat="44.61893" lon="2.15981">
        <ele>286.61</ele>
        <time>2020-07-11T09:13:17Z</time>
      </trkpt>
      <trkpt lat="44.61909" lon="2.15965">
        <ele>288.05</ele>
        <time>2020-07-11T09:13:39Z</time>
      </trkpt>
      <trkpt lat="44.61913" lon="2.15963">
        <ele>287.09</ele>
        <time>2020-07-11T09:13:54Z</time>
      </trkpt>
      <trkpt lat="44.61922" lon="2.15955">
        <ele>287.57</ele>
        <time>2020-07-11T09:14:08Z</time>
      </trkpt>
      <trkpt lat="44.61925" lon="2.15952">
        <ele>286.13</ele>
        <time>2020-07-11T09:14:11Z</time>
      </trkpt>
      <trkpt lat="44.61944" lon="2.15935">
        <ele>286.13</ele>
        <time>2020-07-11T09:14:29Z</time>
      </trkpt>
      <trkpt lat="44.61961" lon="2.15923">
        <ele>286.13</ele>
        <time>2020-07-11T09:14:45Z</time>
      </trkpt>
      <trkpt lat="44.61967" lon="2.15898">
        <ele>286.13</ele>
        <time>2020-07-11T09:15:00Z</time>
      </trkpt>
      <trkpt lat="44.61976" lon="2.15871">
        <ele>284.69</ele>
        <time>2020-07-11T09:15:17Z</time>
      </trkpt>
      <trkpt lat="44.61984" lon="2.15843">
        <ele>284.21</ele>
        <time>2020-07-11T09:15:36Z</time>
      </trkpt>
      <trkpt lat="44.61985" lon="2.15829">
        <ele>285.65</ele>
        <time>2020-07-11T09:15:45Z</time>
      </trkpt>
      <trkpt lat="44.61986" lon="2.15818">
        <ele>285.17</ele>
        <time>2020-07-11T09:15:51Z</time>
      </trkpt>
      <trkpt lat="44.61992" lon="2.15785">
        <ele>285.65</ele>
        <time>2020-07-11T09:16:12Z</time>
      </trkpt>
      <trkpt lat="44.62001" lon="2.15751">
        <ele>287.09</ele>
        <time>2020-07-11T09:16:32Z</time>
      </trkpt>
      <trkpt lat="44.62005" lon="2.15729">
        <ele>287.57</ele>
        <time>2020-07-11T09:16:47Z</time>
      </trkpt>
      <trkpt lat="44.62006" lon="2.15722">
        <ele>287.57</ele>
        <time>2020-07-11T09:16:51Z</time>
      </trkpt>
      <trkpt lat="44.6201" lon="2.15687">
        <ele>289.01</ele>
        <time>2020-07-11T09:17:12Z</time>
      </trkpt>
      <trkpt lat="44.62014" lon="2.15658">
        <ele>289.49</ele>
        <time>2020-07-11T09:17:31Z</time>
      </trkpt>
      <trkpt lat="44.62016" lon="2.15628">
        <ele>290.46</ele>
        <time>2020-07-11T09:17:49Z</time>
      </trkpt>
      <trkpt lat="44.62018" lon="2.15619">
        <ele>290.94</ele>
        <time>2020-07-11T09:18:09Z</time>
      </trkpt>
      <trkpt lat="44.6202" lon="2.15616">
        <ele>290.94</ele>
        <time>2020-07-11T09:18:28Z</time>
      </trkpt>
      <trkpt lat="44.62024" lon="2.15606">
        <ele>291.42</ele>
        <time>2020-07-11T09:18:51Z</time>
      </trkpt>
      <trkpt lat="44.62025" lon="2.15604">
        <ele>291.42</ele>
        <time>2020-07-11T09:18:52Z</time>
      </trkpt>
      <trkpt lat="44.62046" lon="2.15589">
        <ele>293.34</ele>
        <time>2020-07-11T09:19:12Z</time>
      </trkpt>
      <trkpt lat="44.62052" lon="2.15585">
        <ele>293.82</ele>
        <time>2020-07-11T09:19:18Z</time>
      </trkpt>
      <trkpt lat="44.62053" lon="2.15584">
        <ele>293.82</ele>
        <time>2020-07-11T09:19:19Z</time>
      </trkpt>
      <trkpt lat="44.62055" lon="2.15583">
        <ele>293.82</ele>
        <time>2020-07-11T09:19:21Z</time>
      </trkpt>
      <trkpt lat="44.62071" lon="2.15573">
        <ele>293.82</ele>
        <time>2020-07-11T09:19:36Z</time>
      </trkpt>
      <trkpt lat="44.62081" lon="2.15566">
        <ele>294.3</ele>
        <time>2020-07-11T09:19:47Z</time>
      </trkpt>
      <trkpt lat="44.62103" lon="2.15555">
        <ele>293.34</ele>
        <time>2020-07-11T09:20:05Z</time>
      </trkpt>
      <trkpt lat="44.6211" lon="2.15551">
        <ele>294.78</ele>
        <time>2020-07-11T09:20:11Z</time>
      </trkpt>
      <trkpt lat="44.62134" lon="2.15537">
        <ele>294.78</ele>
        <time>2020-07-11T09:20:32Z</time>
      </trkpt>
      <trkpt lat="44.62156" lon="2.15527">
        <ele>295.26</ele>
        <time>2020-07-11T09:20:51Z</time>
      </trkpt>
      <trkpt lat="44.62181" lon="2.15516">
        <ele>293.82</ele>
        <time>2020-07-11T09:21:12Z</time>
      </trkpt>
      <trkpt lat="44.62203" lon="2.15506">
        <ele>294.78</ele>
        <time>2020-07-11T09:21:33Z</time>
      </trkpt>
      <trkpt lat="44.62222" lon="2.15498">
        <ele>293.82</ele>
        <time>2020-07-11T09:21:51Z</time>
      </trkpt>
      <trkpt lat="44.62238" lon="2.15488">
        <ele>293.34</ele>
        <time>2020-07-11T09:22:09Z</time>
      </trkpt>
      <trkpt lat="44.62249" lon="2.15482">
        <ele>293.34</ele>
        <time>2020-07-11T09:22:19Z</time>
      </trkpt>
      <trkpt lat="44.62256" lon="2.15477">
        <ele>294.3</ele>
        <time>2020-07-11T09:22:26Z</time>
      </trkpt>
      <trkpt lat="44.6226" lon="2.15475">
        <ele>293.34</ele>
        <time>2020-07-11T09:22:29Z</time>
      </trkpt>
      <trkpt lat="44.62284" lon="2.15456">
        <ele>293.34</ele>
        <time>2020-07-11T09:22:50Z</time>
      </trkpt>
      <trkpt lat="44.62309" lon="2.15439">
        <ele>292.86</ele>
        <time>2020-07-11T09:23:14Z</time>
      </trkpt>
      <trkpt lat="44.62312" lon="2.15437">
        <ele>291.42</ele>
        <time>2020-07-11T09:23:17Z</time>
      </trkpt>
      <trkpt lat="44.62316" lon="2.15435">
        <ele>292.86</ele>
        <time>2020-07-11T09:23:20Z</time>
      </trkpt>
      <trkpt lat="44.62324" lon="2.15411">
        <ele>293.82</ele>
        <time>2020-07-11T09:23:38Z</time>
      </trkpt>
      <trkpt lat="44.62342" lon="2.15396">
        <ele>292.38</ele>
        <time>2020-07-11T09:23:59Z</time>
      </trkpt>
      <trkpt lat="44.62344" lon="2.15396">
        <ele>293.82</ele>
        <time>2020-07-11T09:24:01Z</time>
      </trkpt>
      <trkpt lat="44.62346" lon="2.15396">
        <ele>292.38</ele>
        <time>2020-07-11T09:24:05Z</time>
      </trkpt>
      <trkpt lat="44.62352" lon="2.15393">
        <ele>292.38</ele>
        <time>2020-07-11T09:24:13Z</time>
      </trkpt>
      <trkpt lat="44.62372" lon="2.15389">
        <ele>290.46</ele>
        <time>2020-07-11T09:24:30Z</time>
      </trkpt>
      <trkpt lat="44.62383" lon="2.15387">
        <ele>289.97</ele>
        <time>2020-07-11T09:24:44Z</time>
      </trkpt>
      <trkpt lat="44.62411" lon="2.15386">
        <ele>288.53</ele>
        <time>2020-07-11T09:25:08Z</time>
      </trkpt>
      <trkpt lat="44.6243" lon="2.15385">
        <ele>287.09</ele>
        <time>2020-07-11T09:25:25Z</time>
      </trkpt>
      <trkpt lat="44.62432" lon="2.15385">
        <ele>288.53</ele>
        <time>2020-07-11T09:25:27Z</time>
      </trkpt>
      <trkpt lat="44.62454" lon="2.15387">
        <ele>288.05</ele>
        <time>2020-07-11T09:25:46Z</time>
      </trkpt>
      <trkpt lat="44.62456" lon="2.15388">
        <ele>286.61</ele>
        <time>2020-07-11T09:25:48Z</time>
      </trkpt>
      <trkpt lat="44.62478" lon="2.15388">
        <ele>285.17</ele>
        <time>2020-07-11T09:26:06Z</time>
      </trkpt>
      <trkpt lat="44.6249" lon="2.15387">
        <ele>284.21</ele>
        <time>2020-07-11T09:26:16Z</time>
      </trkpt>
      <trkpt lat="44.62502" lon="2.1539">
        <ele>282.77</ele>
        <time>2020-07-11T09:26:26Z</time>
      </trkpt>
      <trkpt lat="44.62511" lon="2.1539">
        <ele>282.77</ele>
        <time>2020-07-11T09:26:33Z</time>
      </trkpt>
      <trkpt lat="44.62536" lon="2.1539">
        <ele>279.88</ele>
        <time>2020-07-11T09:26:54Z</time>
      </trkpt>
      <trkpt lat="44.62562" lon="2.1539">
        <ele>277.96</ele>
        <time>2020-07-11T09:27:15Z</time>
      </trkpt>
      <trkpt lat="44.6258" lon="2.15388">
        <ele>277</ele>
        <time>2020-07-11T09:27:31Z</time>
      </trkpt>
      <trkpt lat="44.62582" lon="2.15373">
        <ele>277</ele>
        <time>2020-07-11T09:27:45Z</time>
      </trkpt>
      <trkpt lat="44.62576" lon="2.15368">
        <ele>277</ele>
        <time>2020-07-11T09:28:08Z</time>
      </trkpt>
      <trkpt lat="44.62576" lon="2.15368">
        <ele>277</ele>
        <time>2020-07-11T09:28:24Z</time>
      </trkpt>
      <trkpt lat="44.62577" lon="2.15366">
        <ele>277.48</ele>
        <time>2020-07-11T09:28:26Z</time>
      </trkpt>
      <trkpt lat="44.62584" lon="2.15335">
        <ele>277.96</ele>
        <time>2020-07-11T09:28:45Z</time>
      </trkpt>
      <trkpt lat="44.62585" lon="2.15313">
        <ele>277.96</ele>
        <time>2020-07-11T09:28:59Z</time>
      </trkpt>
      <trkpt lat="44.62582" lon="2.15303">
        <ele>276.04</ele>
        <time>2020-07-11T09:29:05Z</time>
      </trkpt>
      <trkpt lat="44.62582" lon="2.15301">
        <ele>277.96</ele>
        <time>2020-07-11T09:29:07Z</time>
      </trkpt>
      <trkpt lat="44.62582" lon="2.15297">
        <ele>276.52</ele>
        <time>2020-07-11T09:29:10Z</time>
      </trkpt>
      <trkpt lat="44.62582" lon="2.15282">
        <ele>277</ele>
        <time>2020-07-11T09:29:22Z</time>
      </trkpt>
      <trkpt lat="44.6258" lon="2.15259">
        <ele>275.56</ele>
        <time>2020-07-11T09:29:35Z</time>
      </trkpt>
      <trkpt lat="44.62576" lon="2.15217">
        <ele>277</ele>
        <time>2020-07-11T09:29:54Z</time>
      </trkpt>
      <trkpt lat="44.62575" lon="2.15211">
        <ele>276.52</ele>
        <time>2020-07-11T09:29:57Z</time>
      </trkpt>
      <trkpt lat="44.62572" lon="2.15188">
        <ele>275.56</ele>
        <time>2020-07-11T09:30:07Z</time>
      </trkpt>
      <trkpt lat="44.62571" lon="2.15173">
        <ele>277</ele>
        <time>2020-07-11T09:30:15Z</time>
      </trkpt>
      <trkpt lat="44.62572" lon="2.15163">
        <ele>275.56</ele>
        <time>2020-07-11T09:30:21Z</time>
      </trkpt>
      <trkpt lat="44.62572" lon="2.15159">
        <ele>277</ele>
        <time>2020-07-11T09:30:23Z</time>
      </trkpt>
      <trkpt lat="44.62572" lon="2.15143">
        <ele>277</ele>
        <time>2020-07-11T09:30:38Z</time>
      </trkpt>
      <trkpt lat="44.62572" lon="2.15134">
        <ele>277.48</ele>
        <time>2020-07-11T09:30:56Z</time>
      </trkpt>
      <trkpt lat="44.62569" lon="2.15103">
        <ele>278.44</ele>
        <time>2020-07-11T09:31:15Z</time>
      </trkpt>
      <trkpt lat="44.62568" lon="2.15071">
        <ele>279.4</ele>
        <time>2020-07-11T09:31:33Z</time>
      </trkpt>
      <trkpt lat="44.62572" lon="2.15044">
        <ele>281.32</ele>
        <time>2020-07-11T09:31:53Z</time>
      </trkpt>
      <trkpt lat="44.6258" lon="2.15021">
        <ele>282.28</ele>
        <time>2020-07-11T09:32:08Z</time>
      </trkpt>
      <trkpt lat="44.6258" lon="2.14995">
        <ele>283.73</ele>
        <time>2020-07-11T09:32:26Z</time>
      </trkpt>
      <trkpt lat="44.6258" lon="2.14971">
        <ele>284.21</ele>
        <time>2020-07-11T09:32:41Z</time>
      </trkpt>
      <trkpt lat="44.6258" lon="2.14965">
        <ele>284.69</ele>
        <time>2020-07-11T09:32:45Z</time>
      </trkpt>
      <trkpt lat="44.62574" lon="2.14933">
        <ele>282.77</ele>
        <time>2020-07-11T09:33:06Z</time>
      </trkpt>
      <trkpt lat="44.62567" lon="2.14901">
        <ele>279.88</ele>
        <time>2020-07-11T09:33:27Z</time>
      </trkpt>
      <trkpt lat="44.62564" lon="2.14876">
        <ele>278.92</ele>
        <time>2020-07-11T09:33:46Z</time>
      </trkpt>
      <trkpt lat="44.62561" lon="2.14853">
        <ele>277</ele>
        <time>2020-07-11T09:34:03Z</time>
      </trkpt>
      <trkpt lat="44.62561" lon="2.14851">
        <ele>276.04</ele>
        <time>2020-07-11T09:34:04Z</time>
      </trkpt>
      <trkpt lat="44.62568" lon="2.14819">
        <ele>275.56</ele>
        <time>2020-07-11T09:34:23Z</time>
      </trkpt>
      <trkpt lat="44.6257" lon="2.14814">
        <ele>274.59</ele>
        <time>2020-07-11T09:34:27Z</time>
      </trkpt>
      <trkpt lat="44.62575" lon="2.14804">
        <ele>274.59</ele>
        <time>2020-07-11T09:34:35Z</time>
      </trkpt>
      <trkpt lat="44.62578" lon="2.14798">
        <ele>273.15</ele>
        <time>2020-07-11T09:34:39Z</time>
      </trkpt>
      <trkpt lat="44.62587" lon="2.14769">
        <ele>270.75</ele>
        <time>2020-07-11T09:34:59Z</time>
      </trkpt>
      <trkpt lat="44.62594" lon="2.14744">
        <ele>268.35</ele>
        <time>2020-07-11T09:35:17Z</time>
      </trkpt>
      <trkpt lat="44.62593" lon="2.14738">
        <ele>267.86</ele>
        <time>2020-07-11T09:35:32Z</time>
      </trkpt>
      <trkpt lat="44.62595" lon="2.14713">
        <ele>265.46</ele>
        <time>2020-07-11T09:35:49Z</time>
      </trkpt>
      <trkpt lat="44.62596" lon="2.14704">
        <ele>264.5</ele>
        <time>2020-07-11T09:36:08Z</time>
      </trkpt>
      <trkpt lat="44.62598" lon="2.14672">
        <ele>261.62</ele>
        <time>2020-07-11T09:36:27Z</time>
      </trkpt>
      <trkpt lat="44.62597" lon="2.14653">
        <ele>260.65</ele>
        <time>2020-07-11T09:36:38Z</time>
      </trkpt>
      <trkpt lat="44.62601" lon="2.14632">
        <ele>259.69</ele>
        <time>2020-07-11T09:36:49Z</time>
      </trkpt>
      <trkpt lat="44.62601" lon="2.14593">
        <ele>257.29</ele>
        <time>2020-07-11T09:37:11Z</time>
      </trkpt>
      <trkpt lat="44.62601" lon="2.14571">
        <ele>256.33</ele>
        <time>2020-07-11T09:37:28Z</time>
      </trkpt>
      <trkpt lat="44.62606" lon="2.14543">
        <ele>253.44</ele>
        <time>2020-07-11T09:37:47Z</time>
      </trkpt>
      <trkpt lat="44.62606" lon="2.14514">
        <ele>251.52</ele>
        <time>2020-07-11T09:38:05Z</time>
      </trkpt>
      <trkpt lat="44.62607" lon="2.14481">
        <ele>250.56</ele>
        <time>2020-07-11T09:38:23Z</time>
      </trkpt>
      <trkpt lat="44.62611" lon="2.14455">
        <ele>250.08</ele>
        <time>2020-07-11T09:38:38Z</time>
      </trkpt>
      <trkpt lat="44.62614" lon="2.14434">
        <ele>250.08</ele>
        <time>2020-07-11T09:38:53Z</time>
      </trkpt>
      <trkpt lat="44.62618" lon="2.14427">
        <ele>250.08</ele>
        <time>2020-07-11T09:38:58Z</time>
      </trkpt>
      <trkpt lat="44.62623" lon="2.14423">
        <ele>249.6</ele>
        <time>2020-07-11T09:39:04Z</time>
      </trkpt>
      <trkpt lat="44.62626" lon="2.14424">
        <ele>249.6</ele>
        <time>2020-07-11T09:39:18Z</time>
      </trkpt>
      <trkpt lat="44.62625" lon="2.14422">
        <ele>249.6</ele>
        <time>2020-07-11T09:39:38Z</time>
      </trkpt>
      <trkpt lat="44.62624" lon="2.14421">
        <ele>249.6</ele>
        <time>2020-07-11T09:39:59Z</time>
      </trkpt>
      <trkpt lat="44.62621" lon="2.14423">
        <ele>249.12</ele>
        <time>2020-07-11T09:40:25Z</time>
      </trkpt>
      <trkpt lat="44.62625" lon="2.14422">
        <ele>249.12</ele>
        <time>2020-07-11T09:40:51Z</time>
      </trkpt>
      <trkpt lat="44.62619" lon="2.14418">
        <ele>249.12</ele>
        <time>2020-07-11T09:41:13Z</time>
      </trkpt>
      <trkpt lat="44.62618" lon="2.14416">
        <ele>249.12</ele>
        <time>2020-07-11T09:41:36Z</time>
      </trkpt>
      <trkpt lat="44.62621" lon="2.14419">
        <ele>249.12</ele>
        <time>2020-07-11T09:41:53Z</time>
      </trkpt>
      <trkpt lat="44.62626" lon="2.14424">
        <ele>249.12</ele>
        <time>2020-07-11T09:42:10Z</time>
      </trkpt>
      <trkpt lat="44.62625" lon="2.14422">
        <ele>248.64</ele>
        <time>2020-07-11T09:42:41Z</time>
      </trkpt>
      <trkpt lat="44.62626" lon="2.14418">
        <ele>248.64</ele>
        <time>2020-07-11T09:43:08Z</time>
      </trkpt>
      <trkpt lat="44.62623" lon="2.14419">
        <ele>248.64</ele>
        <time>2020-07-11T09:43:28Z</time>
      </trkpt>
      <trkpt lat="44.62622" lon="2.14425">
        <ele>248.64</ele>
        <time>2020-07-11T09:43:49Z</time>
      </trkpt>
      <trkpt lat="44.62624" lon="2.14423">
        <ele>248.16</ele>
        <time>2020-07-11T09:44:02Z</time>
      </trkpt>
      <trkpt lat="44.62624" lon="2.14427">
        <ele>248.16</ele>
        <time>2020-07-11T09:44:28Z</time>
      </trkpt>
      <trkpt lat="44.62626" lon="2.14419">
        <ele>248.16</ele>
        <time>2020-07-11T09:44:58Z</time>
      </trkpt>
      <trkpt lat="44.62624" lon="2.14424">
        <ele>247.68</ele>
        <time>2020-07-11T09:45:23Z</time>
      </trkpt>
      <trkpt lat="44.62626" lon="2.14425">
        <ele>249.12</ele>
        <time>2020-07-11T09:45:47Z</time>
      </trkpt>
      <trkpt lat="44.62625" lon="2.14429">
        <ele>248.16</ele>
        <time>2020-07-11T09:46:09Z</time>
      </trkpt>
      <trkpt lat="44.62625" lon="2.14434">
        <ele>248.64</ele>
        <time>2020-07-11T09:46:19Z</time>
      </trkpt>
      <trkpt lat="44.62646" lon="2.14494">
        <ele>248.64</ele>
        <time>2020-07-11T09:48:10Z</time>
      </trkpt>
      <trkpt lat="44.62639" lon="2.14465">
        <ele>248.64</ele>
        <time>2020-07-11T09:48:35Z</time>
      </trkpt>
      <trkpt lat="44.62638" lon="2.14485">
        <ele>248.64</ele>
        <time>2020-07-11T09:48:51Z</time>
      </trkpt>
      <trkpt lat="44.62639" lon="2.14487">
        <ele>248.64</ele>
        <time>2020-07-11T09:48:52Z</time>
      </trkpt>
      <trkpt lat="44.62669" lon="2.14547">
        <ele>248.64</ele>
        <time>2020-07-11T09:49:14Z</time>
      </trkpt>
      <trkpt lat="44.62621" lon="2.14421">
        <ele>247.68</ele>
        <time>2020-07-11T10:06:49Z</time>
      </trkpt>
      <trkpt lat="44.62623" lon="2.14423">
        <ele>247.68</ele>
        <time>2020-07-11T10:07:15Z</time>
      </trkpt>
      <trkpt lat="44.62625" lon="2.14425">
        <ele>247.68</ele>
        <time>2020-07-11T10:07:48Z</time>
      </trkpt>
      <trkpt lat="44.62627" lon="2.14423">
        <ele>247.68</ele>
        <time>2020-07-11T10:08:15Z</time>
      </trkpt>
      <trkpt lat="44.62626" lon="2.14421">
        <ele>247.68</ele>
        <time>2020-07-11T10:08:44Z</time>
      </trkpt>
      <trkpt lat="44.62625" lon="2.14423">
        <ele>247.68</ele>
        <time>2020-07-11T10:09:20Z</time>
      </trkpt>
      <trkpt lat="44.62625" lon="2.14422">
        <ele>247.68</ele>
        <time>2020-07-11T10:09:46Z</time>
      </trkpt>
      <trkpt lat="44.62624" lon="2.14419">
        <ele>247.68</ele>
        <time>2020-07-11T10:10:25Z</time>
      </trkpt>
      <trkpt lat="44.62625" lon="2.1442">
        <ele>247.68</ele>
        <time>2020-07-11T10:10:56Z</time>
      </trkpt>
      <trkpt lat="44.62626" lon="2.14422">
        <ele>247.2</ele>
        <time>2020-07-11T10:11:24Z</time>
      </trkpt>
      <trkpt lat="44.62625" lon="2.1442">
        <ele>247.2</ele>
        <time>2020-07-11T10:11:46Z</time>
      </trkpt>
      <trkpt lat="44.62624" lon="2.14419">
        <ele>247.2</ele>
        <time>2020-07-11T10:12:04Z</time>
      </trkpt>
      <trkpt lat="44.62624" lon="2.14418">
        <ele>247.2</ele>
        <time>2020-07-11T10:12:26Z</time>
      </trkpt>
      <trkpt lat="44.62624" lon="2.14419">
        <ele>247.2</ele>
        <time>2020-07-11T10:12:46Z</time>
      </trkpt>
      <trkpt lat="44.62624" lon="2.14419">
        <ele>247.2</ele>
        <time>2020-07-11T10:13:12Z</time>
      </trkpt>
      <trkpt lat="44.62624" lon="2.14418">
        <ele>247.2</ele>
        <time>2020-07-11T10:13:32Z</time>
      </trkpt>
      <trkpt lat="44.62627" lon="2.14421">
        <ele>247.2</ele>
        <time>2020-07-11T10:14:04Z</time>
      </trkpt>
      <trkpt lat="44.62626" lon="2.14423">
        <ele>247.2</ele>
        <time>2020-07-11T10:14:33Z</time>
      </trkpt>
      <trkpt lat="44.62627" lon="2.14423">
        <ele>247.2</ele>
        <time>2020-07-11T10:15:01Z</time>
      </trkpt>
      <trkpt lat="44.62624" lon="2.14418">
        <ele>247.2</ele>
        <time>2020-07-11T10:15:27Z</time>
      </trkpt>
      <trkpt lat="44.62626" lon="2.14419">
        <ele>247.2</ele>
        <time>2020-07-11T10:15:51Z</time>
      </trkpt>
      <trkpt lat="44.62625" lon="2.1442">
        <ele>247.2</ele>
        <time>2020-07-11T10:16:09Z</time>
      </trkpt>
      <trkpt lat="44.62625" lon="2.14421">
        <ele>246.72</ele>
        <time>2020-07-11T10:16:34Z</time>
      </trkpt>
      <trkpt lat="44.62625" lon="2.14421">
        <ele>246.72</ele>
        <time>2020-07-11T10:16:59Z</time>
      </trkpt>
      <trkpt lat="44.62626" lon="2.14423">
        <ele>246.72</ele>
        <time>2020-07-11T10:17:15Z</time>
      </trkpt>
      <trkpt lat="44.62627" lon="2.14426">
        <ele>246.72</ele>
        <time>2020-07-11T10:17:50Z</time>
      </trkpt>
      <trkpt lat="44.62625" lon="2.14422">
        <ele>246.72</ele>
        <time>2020-07-11T10:18:25Z</time>
      </trkpt>
      <trkpt lat="44.62623" lon="2.14419">
        <ele>246.72</ele>
        <time>2020-07-11T10:18:57Z</time>
      </trkpt>
      <trkpt lat="44.62622" lon="2.14417">
        <ele>246.72</ele>
        <time>2020-07-11T10:19:22Z</time>
      </trkpt>
      <trkpt lat="44.62621" lon="2.14416">
        <ele>246.72</ele>
        <time>2020-07-11T10:19:45Z</time>
      </trkpt>
      <trkpt lat="44.62622" lon="2.14419">
        <ele>246.72</ele>
        <time>2020-07-11T10:20:09Z</time>
      </trkpt>
      <trkpt lat="44.62623" lon="2.14419">
        <ele>246.72</ele>
        <time>2020-07-11T10:20:29Z</time>
      </trkpt>
      <trkpt lat="44.62623" lon="2.14418">
        <ele>246.72</ele>
        <time>2020-07-11T10:20:49Z</time>
      </trkpt>
      <trkpt lat="44.62625" lon="2.1442">
        <ele>246.72</ele>
        <time>2020-07-11T10:21:08Z</time>
      </trkpt>
      <trkpt lat="44.62624" lon="2.14422">
        <ele>246.72</ele>
        <time>2020-07-11T10:21:21Z</time>
      </trkpt>
      <trkpt lat="44.62624" lon="2.14419">
        <ele>246.72</ele>
        <time>2020-07-11T10:21:41Z</time>
      </trkpt>
      <trkpt lat="44.62624" lon="2.14421">
        <ele>247.68</ele>
        <time>2020-07-11T10:22:02Z</time>
      </trkpt>
      <trkpt lat="44.62626" lon="2.14421">
        <ele>247.68</ele>
        <time>2020-07-11T10:22:24Z</time>
      </trkpt>
      <trkpt lat="44.62626" lon="2.14419">
        <ele>247.68</ele>
        <time>2020-07-11T10:22:50Z</time>
      </trkpt>
      <trkpt lat="44.62625" lon="2.1442">
        <ele>247.68</ele>
        <time>2020-07-11T10:23:15Z</time>
      </trkpt>
      <trkpt lat="44.62625" lon="2.14421">
        <ele>247.2</ele>
        <time>2020-07-11T10:23:50Z</time>
      </trkpt>
      <trkpt lat="44.62624" lon="2.14421">
        <ele>247.2</ele>
        <time>2020-07-11T10:24:07Z</time>
      </trkpt>
      <trkpt lat="44.62625" lon="2.14421">
        <ele>247.2</ele>
        <time>2020-07-11T10:24:28Z</time>
      </trkpt>
      <trkpt lat="44.62626" lon="2.14422">
        <ele>247.2</ele>
        <time>2020-07-11T10:24:47Z</time>
      </trkpt>
      <trkpt lat="44.62625" lon="2.1442">
        <ele>247.2</ele>
        <time>2020-07-11T10:25:12Z</time>
      </trkpt>
      <trkpt lat="44.62622" lon="2.14419">
        <ele>247.2</ele>
        <time>2020-07-11T10:25:32Z</time>
      </trkpt>
      <trkpt lat="44.62623" lon="2.14419">
        <ele>247.2</ele>
        <time>2020-07-11T10:25:56Z</time>
      </trkpt>
      <trkpt lat="44.62622" lon="2.14417">
        <ele>247.2</ele>
        <time>2020-07-11T10:26:10Z</time>
      </trkpt>
      <trkpt lat="44.62623" lon="2.14418">
        <ele>247.2</ele>
        <time>2020-07-11T10:26:25Z</time>
      </trkpt>
      <trkpt lat="44.62624" lon="2.14417">
        <ele>247.2</ele>
        <time>2020-07-11T10:26:48Z</time>
      </trkpt>
      <trkpt lat="44.62624" lon="2.14416">
        <ele>247.2</ele>
        <time>2020-07-11T10:27:04Z</time>
      </trkpt>
      <trkpt lat="44.62623" lon="2.14418">
        <ele>247.2</ele>
        <time>2020-07-11T10:27:22Z</time>
      </trkpt>
      <trkpt lat="44.62623" lon="2.14418">
        <ele>247.2</ele>
        <time>2020-07-11T10:27:46Z</time>
      </trkpt>
      <trkpt lat="44.62621" lon="2.14415">
        <ele>247.2</ele>
        <time>2020-07-11T10:28:06Z</time>
      </trkpt>
      <trkpt lat="44.6262" lon="2.14414">
        <ele>247.2</ele>
        <time>2020-07-11T10:28:20Z</time>
      </trkpt>
      <trkpt lat="44.62621" lon="2.14418">
        <ele>247.2</ele>
        <time>2020-07-11T10:28:46Z</time>
      </trkpt>
      <trkpt lat="44.62621" lon="2.14417">
        <ele>247.2</ele>
        <time>2020-07-11T10:29:10Z</time>
      </trkpt>
      <trkpt lat="44.62623" lon="2.14418">
        <ele>247.2</ele>
        <time>2020-07-11T10:29:42Z</time>
      </trkpt>
      <trkpt lat="44.62624" lon="2.1442">
        <ele>247.2</ele>
        <time>2020-07-11T10:29:59Z</time>
      </trkpt>
      <trkpt lat="44.62624" lon="2.14421">
        <ele>247.2</ele>
        <time>2020-07-11T10:30:17Z</time>
      </trkpt>
      <trkpt lat="44.62624" lon="2.1442">
        <ele>247.2</ele>
        <time>2020-07-11T10:30:35Z</time>
      </trkpt>
      <trkpt lat="44.62625" lon="2.14423">
        <ele>247.2</ele>
        <time>2020-07-11T10:30:59Z</time>
      </trkpt>
      <trkpt lat="44.62626" lon="2.14423">
        <ele>247.2</ele>
        <time>2020-07-11T10:31:21Z</time>
      </trkpt>
      <trkpt lat="44.62625" lon="2.14426">
        <ele>247.2</ele>
        <time>2020-07-11T10:31:41Z</time>
      </trkpt>
      <trkpt lat="44.62622" lon="2.14416">
        <ele>247.2</ele>
        <time>2020-07-11T10:32:05Z</time>
      </trkpt>
      <trkpt lat="44.62622" lon="2.14415">
        <ele>247.2</ele>
        <time>2020-07-11T10:32:24Z</time>
      </trkpt>
      <trkpt lat="44.62623" lon="2.14419">
        <ele>247.2</ele>
        <time>2020-07-11T10:32:51Z</time>
      </trkpt>
      <trkpt lat="44.62623" lon="2.14418">
        <ele>247.2</ele>
        <time>2020-07-11T10:33:15Z</time>
      </trkpt>
      <trkpt lat="44.62623" lon="2.14417">
        <ele>247.2</ele>
        <time>2020-07-11T10:33:37Z</time>
      </trkpt>
      <trkpt lat="44.62621" lon="2.14416">
        <ele>247.2</ele>
        <time>2020-07-11T10:33:54Z</time>
      </trkpt>
      <trkpt lat="44.62623" lon="2.14418">
        <ele>247.2</ele>
        <time>2020-07-11T10:34:14Z</time>
      </trkpt>
      <trkpt lat="44.62625" lon="2.14421">
        <ele>247.2</ele>
        <time>2020-07-11T10:34:45Z</time>
      </trkpt>
      <trkpt lat="44.62625" lon="2.1442">
        <ele>247.2</ele>
        <time>2020-07-11T10:35:07Z</time>
      </trkpt>
      <trkpt lat="44.62624" lon="2.14418">
        <ele>247.2</ele>
        <time>2020-07-11T10:35:34Z</time>
      </trkpt>
      <trkpt lat="44.62623" lon="2.14418">
        <ele>247.2</ele>
        <time>2020-07-11T10:35:57Z</time>
      </trkpt>
      <trkpt lat="44.62622" lon="2.14418">
        <ele>247.2</ele>
        <time>2020-07-11T10:36:16Z</time>
      </trkpt>
      <trkpt lat="44.62624" lon="2.14417">
        <ele>246.72</ele>
        <time>2020-07-11T10:36:40Z</time>
      </trkpt>
      <trkpt lat="44.62623" lon="2.14418">
        <ele>246.72</ele>
        <time>2020-07-11T10:37:07Z</time>
      </trkpt>
      <trkpt lat="44.62623" lon="2.14417">
        <ele>246.72</ele>
        <time>2020-07-11T10:37:33Z</time>
      </trkpt>
      <trkpt lat="44.62622" lon="2.1442">
        <ele>246.72</ele>
        <time>2020-07-11T10:37:54Z</time>
      </trkpt>
      <trkpt lat="44.62623" lon="2.14418">
        <ele>246.72</ele>
        <time>2020-07-11T10:38:25Z</time>
      </trkpt>
      <trkpt lat="44.62625" lon="2.1442">
        <ele>246.72</ele>
        <time>2020-07-11T10:38:50Z</time>
      </trkpt>
      <trkpt lat="44.62623" lon="2.1442">
        <ele>246.72</ele>
        <time>2020-07-11T10:39:16Z</time>
      </trkpt>
      <trkpt lat="44.62624" lon="2.1442">
        <ele>246.72</ele>
        <time>2020-07-11T10:39:37Z</time>
      </trkpt>
      <trkpt lat="44.62626" lon="2.14421">
        <ele>246.72</ele>
        <time>2020-07-11T10:40:06Z</time>
      </trkpt>
      <trkpt lat="44.62624" lon="2.1442">
        <ele>246.72</ele>
        <time>2020-07-11T10:40:40Z</time>
      </trkpt>
      <trkpt lat="44.62624" lon="2.1442">
        <ele>246.72</ele>
        <time>2020-07-11T10:40:56Z</time>
      </trkpt>
      <trkpt lat="44.62624" lon="2.14419">
        <ele>246.72</ele>
        <time>2020-07-11T10:41:19Z</time>
      </trkpt>
      <trkpt lat="44.62623" lon="2.14422">
        <ele>246.72</ele>
        <time>2020-07-11T10:41:40Z</time>
      </trkpt>
      <trkpt lat="44.62625" lon="2.1442">
        <ele>246.72</ele>
        <time>2020-07-11T10:42:02Z</time>
      </trkpt>
      <trkpt lat="44.62624" lon="2.14419">
        <ele>246.72</ele>
        <time>2020-07-11T10:42:25Z</time>
      </trkpt>
      <trkpt lat="44.62625" lon="2.14421">
        <ele>246.72</ele>
        <time>2020-07-11T10:42:47Z</time>
      </trkpt>
      <trkpt lat="44.62625" lon="2.1442">
        <ele>246.72</ele>
        <time>2020-07-11T10:43:11Z</time>
      </trkpt>
      <trkpt lat="44.62625" lon="2.14419">
        <ele>246.72</ele>
        <time>2020-07-11T10:43:29Z</time>
      </trkpt>
      <trkpt lat="44.62625" lon="2.14422">
        <ele>246.72</ele>
        <time>2020-07-11T10:43:54Z</time>
      </trkpt>
      <trkpt lat="44.62625" lon="2.14423">
        <ele>246.23</ele>
        <time>2020-07-11T10:44:14Z</time>
      </trkpt>
      <trkpt lat="44.62625" lon="2.14424">
        <ele>246.23</ele>
        <time>2020-07-11T10:44:34Z</time>
      </trkpt>
      <trkpt lat="44.62625" lon="2.14424">
        <ele>246.23</ele>
        <time>2020-07-11T10:44:58Z</time>
      </trkpt>
      <trkpt lat="44.62625" lon="2.14424">
        <ele>246.23</ele>
        <time>2020-07-11T10:45:20Z</time>
      </trkpt>
      <trkpt lat="44.62626" lon="2.14423">
        <ele>246.23</ele>
        <time>2020-07-11T10:45:38Z</time>
      </trkpt>
      <trkpt lat="44.62624" lon="2.1442">
        <ele>246.72</ele>
        <time>2020-07-11T10:45:54Z</time>
      </trkpt>
      <trkpt lat="44.62626" lon="2.14419">
        <ele>246.72</ele>
        <time>2020-07-11T10:46:18Z</time>
      </trkpt>
      <trkpt lat="44.62626" lon="2.14421">
        <ele>246.72</ele>
        <time>2020-07-11T10:46:41Z</time>
      </trkpt>
      <trkpt lat="44.62625" lon="2.14416">
        <ele>246.23</ele>
        <time>2020-07-11T10:47:08Z</time>
      </trkpt>
      <trkpt lat="44.62628" lon="2.14424">
        <ele>246.23</ele>
        <time>2020-07-11T10:47:35Z</time>
      </trkpt>
      <trkpt lat="44.62627" lon="2.14423">
        <ele>246.23</ele>
        <time>2020-07-11T10:48:05Z</time>
      </trkpt>
      <trkpt lat="44.62628" lon="2.14423">
        <ele>246.23</ele>
        <time>2020-07-11T10:48:31Z</time>
      </trkpt>
      <trkpt lat="44.62625" lon="2.14422">
        <ele>246.23</ele>
        <time>2020-07-11T10:48:51Z</time>
      </trkpt>
      <trkpt lat="44.6263" lon="2.14424">
        <ele>246.23</ele>
        <time>2020-07-11T10:49:20Z</time>
      </trkpt>
      <trkpt lat="44.62629" lon="2.14422">
        <ele>246.23</ele>
        <time>2020-07-11T10:49:47Z</time>
      </trkpt>
      <trkpt lat="44.62625" lon="2.14426">
        <ele>246.23</ele>
        <time>2020-07-11T10:50:13Z</time>
      </trkpt>
      <trkpt lat="44.62626" lon="2.14423">
        <ele>246.72</ele>
        <time>2020-07-11T10:50:37Z</time>
      </trkpt>
      <trkpt lat="44.62626" lon="2.14419">
        <ele>246.72</ele>
        <time>2020-07-11T10:51:05Z</time>
      </trkpt>
      <trkpt lat="44.62626" lon="2.14424">
        <ele>246.72</ele>
        <time>2020-07-11T10:51:42Z</time>
      </trkpt>
      <trkpt lat="44.62624" lon="2.14422">
        <ele>246.23</ele>
        <time>2020-07-11T10:52:04Z</time>
      </trkpt>
      <trkpt lat="44.62623" lon="2.1442">
        <ele>246.23</ele>
        <time>2020-07-11T10:52:32Z</time>
      </trkpt>
      <trkpt lat="44.62619" lon="2.14417">
        <ele>246.23</ele>
        <time>2020-07-11T10:52:49Z</time>
      </trkpt>
      <trkpt lat="44.62619" lon="2.14416">
        <ele>246.72</ele>
        <time>2020-07-11T10:52:50Z</time>
      </trkpt>
      <trkpt lat="44.62618" lon="2.14413">
        <ele>246.72</ele>
        <time>2020-07-11T10:52:52Z</time>
      </trkpt>
      <trkpt lat="44.62619" lon="2.14408">
        <ele>246.72</ele>
        <time>2020-07-11T10:52:55Z</time>
      </trkpt>
      <trkpt lat="44.62621" lon="2.14384">
        <ele>246.72</ele>
        <time>2020-07-11T10:53:11Z</time>
      </trkpt>
      <trkpt lat="44.62619" lon="2.14355">
        <ele>245.75</ele>
        <time>2020-07-11T10:53:30Z</time>
      </trkpt>
      <trkpt lat="44.62615" lon="2.14329">
        <ele>245.75</ele>
        <time>2020-07-11T10:53:47Z</time>
      </trkpt>
      <trkpt lat="44.62611" lon="2.14319">
        <ele>245.75</ele>
        <time>2020-07-11T10:54:06Z</time>
      </trkpt>
      <trkpt lat="44.62603" lon="2.14297">
        <ele>245.75</ele>
        <time>2020-07-11T10:54:22Z</time>
      </trkpt>
      <trkpt lat="44.62602" lon="2.14291">
        <ele>245.75</ele>
        <time>2020-07-11T10:54:38Z</time>
      </trkpt>
      <trkpt lat="44.62602" lon="2.14293">
        <ele>247.2</ele>
        <time>2020-07-11T10:54:44Z</time>
      </trkpt>
      <trkpt lat="44.62601" lon="2.14293">
        <ele>247.2</ele>
        <time>2020-07-11T10:55:00Z</time>
      </trkpt>
      <trkpt lat="44.62598" lon="2.14274">
        <ele>247.2</ele>
        <time>2020-07-11T10:55:18Z</time>
      </trkpt>
      <trkpt lat="44.62586" lon="2.14251">
        <ele>247.2</ele>
        <time>2020-07-11T10:55:35Z</time>
      </trkpt>
      <trkpt lat="44.62578" lon="2.14235">
        <ele>248.16</ele>
        <time>2020-07-11T10:55:47Z</time>
      </trkpt>
      <trkpt lat="44.62564" lon="2.14214">
        <ele>248.16</ele>
        <time>2020-07-11T10:56:04Z</time>
      </trkpt>
      <trkpt lat="44.62551" lon="2.14197">
        <ele>249.6</ele>
        <time>2020-07-11T10:56:22Z</time>
      </trkpt>
      <trkpt lat="44.62541" lon="2.14171">
        <ele>251.04</ele>
        <time>2020-07-11T10:56:43Z</time>
      </trkpt>
      <trkpt lat="44.62538" lon="2.14142">
        <ele>252</ele>
        <time>2020-07-11T10:57:02Z</time>
      </trkpt>
      <trkpt lat="44.62535" lon="2.14114">
        <ele>254.89</ele>
        <time>2020-07-11T10:57:24Z</time>
      </trkpt>
      <trkpt lat="44.62533" lon="2.14091">
        <ele>256.33</ele>
        <time>2020-07-11T10:57:40Z</time>
      </trkpt>
      <trkpt lat="44.62531" lon="2.1407">
        <ele>257.29</ele>
        <time>2020-07-11T10:57:56Z</time>
      </trkpt>
      <trkpt lat="44.62524" lon="2.14049">
        <ele>258.73</ele>
        <time>2020-07-11T10:58:13Z</time>
      </trkpt>
      <trkpt lat="44.62524" lon="2.14047">
        <ele>257.29</ele>
        <time>2020-07-11T10:58:15Z</time>
      </trkpt>
      <trkpt lat="44.62524" lon="2.14042">
        <ele>258.73</ele>
        <time>2020-07-11T10:58:19Z</time>
      </trkpt>
      <trkpt lat="44.62524" lon="2.14039">
        <ele>257.29</ele>
        <time>2020-07-11T10:58:21Z</time>
      </trkpt>
      <trkpt lat="44.62524" lon="2.1403">
        <ele>258.25</ele>
        <time>2020-07-11T10:58:28Z</time>
      </trkpt>
      <trkpt lat="44.62522" lon="2.14001">
        <ele>258.73</ele>
        <time>2020-07-11T10:58:47Z</time>
      </trkpt>
      <trkpt lat="44.62521" lon="2.13985">
        <ele>256.81</ele>
        <time>2020-07-11T10:59:02Z</time>
      </trkpt>
      <trkpt lat="44.62521" lon="2.13984">
        <ele>256.81</ele>
        <time>2020-07-11T10:59:03Z</time>
      </trkpt>
      <trkpt lat="44.62517" lon="2.13954">
        <ele>255.37</ele>
        <time>2020-07-11T10:59:20Z</time>
      </trkpt>
      <trkpt lat="44.62513" lon="2.13928">
        <ele>252.96</ele>
        <time>2020-07-11T10:59:39Z</time>
      </trkpt>
      <trkpt lat="44.62505" lon="2.13907">
        <ele>251.04</ele>
        <time>2020-07-11T10:59:57Z</time>
      </trkpt>
      <trkpt lat="44.62496" lon="2.13879">
        <ele>249.6</ele>
        <time>2020-07-11T11:00:16Z</time>
      </trkpt>
      <trkpt lat="44.62489" lon="2.13852">
        <ele>247.68</ele>
        <time>2020-07-11T11:00:35Z</time>
      </trkpt>
      <trkpt lat="44.62478" lon="2.13822">
        <ele>246.23</ele>
        <time>2020-07-11T11:00:53Z</time>
      </trkpt>
      <trkpt lat="44.62468" lon="2.13794">
        <ele>246.23</ele>
        <time>2020-07-11T11:01:14Z</time>
      </trkpt>
      <trkpt lat="44.62456" lon="2.13761">
        <ele>246.23</ele>
        <time>2020-07-11T11:01:34Z</time>
      </trkpt>
      <trkpt lat="44.6245" lon="2.13729">
        <ele>246.23</ele>
        <time>2020-07-11T11:01:53Z</time>
      </trkpt>
      <trkpt lat="44.62447" lon="2.13703">
        <ele>247.2</ele>
        <time>2020-07-11T11:02:13Z</time>
      </trkpt>
      <trkpt lat="44.62437" lon="2.1367">
        <ele>248.16</ele>
        <time>2020-07-11T11:02:34Z</time>
      </trkpt>
      <trkpt lat="44.62423" lon="2.13652">
        <ele>248.64</ele>
        <time>2020-07-11T11:02:52Z</time>
      </trkpt>
      <trkpt lat="44.62413" lon="2.13626">
        <ele>250.08</ele>
        <time>2020-07-11T11:03:12Z</time>
      </trkpt>
      <trkpt lat="44.62406" lon="2.13614">
        <ele>250.56</ele>
        <time>2020-07-11T11:03:30Z</time>
      </trkpt>
      <trkpt lat="44.62409" lon="2.13617">
        <ele>251.04</ele>
        <time>2020-07-11T11:03:46Z</time>
      </trkpt>
      <trkpt lat="44.62408" lon="2.1361">
        <ele>251.04</ele>
        <time>2020-07-11T11:04:00Z</time>
      </trkpt>
      <trkpt lat="44.62408" lon="2.136">
        <ele>251.04</ele>
        <time>2020-07-11T11:04:08Z</time>
      </trkpt>
      <trkpt lat="44.62402" lon="2.13582">
        <ele>251.04</ele>
        <time>2020-07-11T11:04:24Z</time>
      </trkpt>
      <trkpt lat="44.62393" lon="2.13551">
        <ele>251.04</ele>
        <time>2020-07-11T11:04:41Z</time>
      </trkpt>
      <trkpt lat="44.62387" lon="2.13524">
        <ele>251.04</ele>
        <time>2020-07-11T11:04:59Z</time>
      </trkpt>
      <trkpt lat="44.62378" lon="2.13496">
        <ele>251.04</ele>
        <time>2020-07-11T11:05:17Z</time>
      </trkpt>
      <trkpt lat="44.62363" lon="2.1347">
        <ele>251.04</ele>
        <time>2020-07-11T11:05:36Z</time>
      </trkpt>
      <trkpt lat="44.62352" lon="2.13446">
        <ele>251.52</ele>
        <time>2020-07-11T11:05:57Z</time>
      </trkpt>
      <trkpt lat="44.62344" lon="2.13422">
        <ele>252</ele>
        <time>2020-07-11T11:06:16Z</time>
      </trkpt>
      <trkpt lat="44.62334" lon="2.13391">
        <ele>252.96</ele>
        <time>2020-07-11T11:06:36Z</time>
      </trkpt>
      <trkpt lat="44.62332" lon="2.13364">
        <ele>253.93</ele>
        <time>2020-07-11T11:06:58Z</time>
      </trkpt>
      <trkpt lat="44.62332" lon="2.13333">
        <ele>254.89</ele>
        <time>2020-07-11T11:07:18Z</time>
      </trkpt>
      <trkpt lat="44.62332" lon="2.13309">
        <ele>255.85</ele>
        <time>2020-07-11T11:07:34Z</time>
      </trkpt>
      <trkpt lat="44.62332" lon="2.13281">
        <ele>257.29</ele>
        <time>2020-07-11T11:07:52Z</time>
      </trkpt>
      <trkpt lat="44.62335" lon="2.13255">
        <ele>258.25</ele>
        <time>2020-07-11T11:08:10Z</time>
      </trkpt>
      <trkpt lat="44.62338" lon="2.13229">
        <ele>258.73</ele>
        <time>2020-07-11T11:08:29Z</time>
      </trkpt>
      <trkpt lat="44.62341" lon="2.13218">
        <ele>259.21</ele>
        <time>2020-07-11T11:08:46Z</time>
      </trkpt>
      <trkpt lat="44.62345" lon="2.13198">
        <ele>259.69</ele>
        <time>2020-07-11T11:09:02Z</time>
      </trkpt>
      <trkpt lat="44.62345" lon="2.13197">
        <ele>259.69</ele>
        <time>2020-07-11T11:09:03Z</time>
      </trkpt>
      <trkpt lat="44.62347" lon="2.13181">
        <ele>260.65</ele>
        <time>2020-07-11T11:09:14Z</time>
      </trkpt>
      <trkpt lat="44.6235" lon="2.13142">
        <ele>262.1</ele>
        <time>2020-07-11T11:09:35Z</time>
      </trkpt>
      <trkpt lat="44.62353" lon="2.13117">
        <ele>264.02</ele>
        <time>2020-07-11T11:09:52Z</time>
      </trkpt>
      <trkpt lat="44.62356" lon="2.13092">
        <ele>265.46</ele>
        <time>2020-07-11T11:10:10Z</time>
      </trkpt>
      <trkpt lat="44.62352" lon="2.13064">
        <ele>266.42</ele>
        <time>2020-07-11T11:10:27Z</time>
      </trkpt>
      <trkpt lat="44.62352" lon="2.13039">
        <ele>267.86</ele>
        <time>2020-07-11T11:10:46Z</time>
      </trkpt>
      <trkpt lat="44.62355" lon="2.13014">
        <ele>269.31</ele>
        <time>2020-07-11T11:11:03Z</time>
      </trkpt>
      <trkpt lat="44.6236" lon="2.13018">
        <ele>269.31</ele>
        <time>2020-07-11T11:11:26Z</time>
      </trkpt>
      <trkpt lat="44.62364" lon="2.13019">
        <ele>269.31</ele>
        <time>2020-07-11T11:11:53Z</time>
      </trkpt>
      <trkpt lat="44.62365" lon="2.13019">
        <ele>267.86</ele>
        <time>2020-07-11T11:12:25Z</time>
      </trkpt>
      <trkpt lat="44.62354" lon="2.13011">
        <ele>269.31</ele>
        <time>2020-07-11T11:12:32Z</time>
      </trkpt>
      <trkpt lat="44.62352" lon="2.12995">
        <ele>270.27</ele>
        <time>2020-07-11T11:12:42Z</time>
      </trkpt>
      <trkpt lat="44.62353" lon="2.12967">
        <ele>271.71</ele>
        <time>2020-07-11T11:13:00Z</time>
      </trkpt>
      <trkpt lat="44.62355" lon="2.12937">
        <ele>272.19</ele>
        <time>2020-07-11T11:13:18Z</time>
      </trkpt>
      <trkpt lat="44.62356" lon="2.12906">
        <ele>272.67</ele>
        <time>2020-07-11T11:13:36Z</time>
      </trkpt>
      <trkpt lat="44.62356" lon="2.12874">
        <ele>273.63</ele>
        <time>2020-07-11T11:13:54Z</time>
      </trkpt>
      <trkpt lat="44.62357" lon="2.12854">
        <ele>273.63</ele>
        <time>2020-07-11T11:14:07Z</time>
      </trkpt>
      <trkpt lat="44.62357" lon="2.12838">
        <ele>273.63</ele>
        <time>2020-07-11T11:14:15Z</time>
      </trkpt>
      <trkpt lat="44.62359" lon="2.12808">
        <ele>274.11</ele>
        <time>2020-07-11T11:14:32Z</time>
      </trkpt>
      <trkpt lat="44.62357" lon="2.12776">
        <ele>275.07</ele>
        <time>2020-07-11T11:14:50Z</time>
      </trkpt>
      <trkpt lat="44.62355" lon="2.12743">
        <ele>275.07</ele>
        <time>2020-07-11T11:15:09Z</time>
      </trkpt>
      <trkpt lat="44.62356" lon="2.12734">
        <ele>275.56</ele>
        <time>2020-07-11T11:15:14Z</time>
      </trkpt>
      <trkpt lat="44.62353" lon="2.127">
        <ele>275.56</ele>
        <time>2020-07-11T11:15:33Z</time>
      </trkpt>
      <trkpt lat="44.62348" lon="2.12673">
        <ele>276.52</ele>
        <time>2020-07-11T11:15:50Z</time>
      </trkpt>
      <trkpt lat="44.62346" lon="2.12666">
        <ele>276.52</ele>
        <time>2020-07-11T11:15:57Z</time>
      </trkpt>
      <trkpt lat="44.62336" lon="2.12659">
        <ele>277.48</ele>
        <time>2020-07-11T11:16:14Z</time>
      </trkpt>
      <trkpt lat="44.62331" lon="2.1266">
        <ele>277</ele>
        <time>2020-07-11T11:16:19Z</time>
      </trkpt>
      <trkpt lat="44.62325" lon="2.12663">
        <ele>277.48</ele>
        <time>2020-07-11T11:16:24Z</time>
      </trkpt>
      <trkpt lat="44.62309" lon="2.12674">
        <ele>278.44</ele>
        <time>2020-07-11T11:16:41Z</time>
      </trkpt>
      <trkpt lat="44.62291" lon="2.12692">
        <ele>278.92</ele>
        <time>2020-07-11T11:16:58Z</time>
      </trkpt>
      <trkpt lat="44.62281" lon="2.12694">
        <ele>277.48</ele>
        <time>2020-07-11T11:17:07Z</time>
      </trkpt>
      <trkpt lat="44.6226" lon="2.12702">
        <ele>277</ele>
        <time>2020-07-11T11:17:27Z</time>
      </trkpt>
      <trkpt lat="44.62237" lon="2.12704">
        <ele>276.04</ele>
        <time>2020-07-11T11:17:46Z</time>
      </trkpt>
      <trkpt lat="44.62212" lon="2.12706">
        <ele>274.11</ele>
        <time>2020-07-11T11:18:07Z</time>
      </trkpt>
      <trkpt lat="44.62196" lon="2.12706">
        <ele>271.71</ele>
        <time>2020-07-11T11:18:21Z</time>
      </trkpt>
      <trkpt lat="44.62168" lon="2.12707">
        <ele>267.86</ele>
        <time>2020-07-11T11:18:44Z</time>
      </trkpt>
      <trkpt lat="44.62156" lon="2.12707">
        <ele>266.42</ele>
        <time>2020-07-11T11:19:02Z</time>
      </trkpt>
      <trkpt lat="44.62153" lon="2.12705">
        <ele>265.46</ele>
        <time>2020-07-11T11:19:06Z</time>
      </trkpt>
      <trkpt lat="44.62147" lon="2.12704">
        <ele>265.46</ele>
        <time>2020-07-11T11:19:11Z</time>
      </trkpt>
      <trkpt lat="44.62123" lon="2.12703">
        <ele>263.54</ele>
        <time>2020-07-11T11:19:30Z</time>
      </trkpt>
      <trkpt lat="44.62105" lon="2.12698">
        <ele>263.54</ele>
        <time>2020-07-11T11:19:48Z</time>
      </trkpt>
      <trkpt lat="44.62103" lon="2.127">
        <ele>263.54</ele>
        <time>2020-07-11T11:20:13Z</time>
      </trkpt>
      <trkpt lat="44.62091" lon="2.12699">
        <ele>264.98</ele>
        <time>2020-07-11T11:20:22Z</time>
      </trkpt>
      <trkpt lat="44.62073" lon="2.12687">
        <ele>267.86</ele>
        <time>2020-07-11T11:20:43Z</time>
      </trkpt>
      <trkpt lat="44.62058" lon="2.12681">
        <ele>268.83</ele>
        <time>2020-07-11T11:21:02Z</time>
      </trkpt>
      <trkpt lat="44.6204" lon="2.12679">
        <ele>271.71</ele>
        <time>2020-07-11T11:21:21Z</time>
      </trkpt>
      <trkpt lat="44.62023" lon="2.12672">
        <ele>274.11</ele>
        <time>2020-07-11T11:21:43Z</time>
      </trkpt>
      <trkpt lat="44.6202" lon="2.1265">
        <ele>275.56</ele>
        <time>2020-07-11T11:22:03Z</time>
      </trkpt>
      <trkpt lat="44.62009" lon="2.12615">
        <ele>277</ele>
        <time>2020-07-11T11:22:23Z</time>
      </trkpt>
      <trkpt lat="44.62002" lon="2.12588">
        <ele>277.96</ele>
        <time>2020-07-11T11:22:42Z</time>
      </trkpt>
      <trkpt lat="44.61992" lon="2.12554">
        <ele>278.44</ele>
        <time>2020-07-11T11:23:03Z</time>
      </trkpt>
      <trkpt lat="44.61984" lon="2.12528">
        <ele>279.4</ele>
        <time>2020-07-11T11:23:23Z</time>
      </trkpt>
      <trkpt lat="44.61972" lon="2.12504">
        <ele>280.84</ele>
        <time>2020-07-11T11:23:43Z</time>
      </trkpt>
      <trkpt lat="44.61955" lon="2.12485">
        <ele>282.28</ele>
        <time>2020-07-11T11:24:06Z</time>
      </trkpt>
      <trkpt lat="44.61942" lon="2.12473">
        <ele>283.25</ele>
        <time>2020-07-11T11:24:24Z</time>
      </trkpt>
      <trkpt lat="44.61917" lon="2.12444">
        <ele>282.77</ele>
        <time>2020-07-11T11:24:45Z</time>
      </trkpt>
      <trkpt lat="44.61896" lon="2.12442">
        <ele>283.25</ele>
        <time>2020-07-11T11:25:05Z</time>
      </trkpt>
      <trkpt lat="44.61877" lon="2.12448">
        <ele>284.21</ele>
        <time>2020-07-11T11:25:21Z</time>
      </trkpt>
      <trkpt lat="44.6187" lon="2.12453">
        <ele>283.25</ele>
        <time>2020-07-11T11:25:27Z</time>
      </trkpt>
      <trkpt lat="44.61849" lon="2.12459">
        <ele>283.25</ele>
        <time>2020-07-11T11:25:45Z</time>
      </trkpt>
      <trkpt lat="44.61846" lon="2.12458">
        <ele>282.77</ele>
        <time>2020-07-11T11:25:47Z</time>
      </trkpt>
      <trkpt lat="44.61843" lon="2.12458">
        <ele>284.21</ele>
        <time>2020-07-11T11:25:50Z</time>
      </trkpt>
      <trkpt lat="44.61822" lon="2.12459">
        <ele>285.17</ele>
        <time>2020-07-11T11:26:06Z</time>
      </trkpt>
      <trkpt lat="44.61813" lon="2.12454">
        <ele>286.13</ele>
        <time>2020-07-11T11:26:15Z</time>
      </trkpt>
      <trkpt lat="44.61807" lon="2.12449">
        <ele>286.13</ele>
        <time>2020-07-11T11:26:22Z</time>
      </trkpt>
      <trkpt lat="44.61803" lon="2.12444">
        <ele>286.13</ele>
        <time>2020-07-11T11:26:27Z</time>
      </trkpt>
      <trkpt lat="44.6179" lon="2.12423">
        <ele>284.69</ele>
        <time>2020-07-11T11:26:44Z</time>
      </trkpt>
      <trkpt lat="44.6178" lon="2.12405">
        <ele>284.69</ele>
        <time>2020-07-11T11:26:59Z</time>
      </trkpt>
      <trkpt lat="44.61767" lon="2.12387">
        <ele>284.21</ele>
        <time>2020-07-11T11:27:15Z</time>
      </trkpt>
      <trkpt lat="44.61753" lon="2.12362">
        <ele>285.17</ele>
        <time>2020-07-11T11:27:33Z</time>
      </trkpt>
      <trkpt lat="44.61733" lon="2.12348">
        <ele>284.69</ele>
        <time>2020-07-11T11:27:54Z</time>
      </trkpt>
      <trkpt lat="44.61717" lon="2.12344">
        <ele>284.69</ele>
        <time>2020-07-11T11:28:12Z</time>
      </trkpt>
      <trkpt lat="44.61708" lon="2.12336">
        <ele>286.13</ele>
        <time>2020-07-11T11:28:21Z</time>
      </trkpt>
      <trkpt lat="44.61689" lon="2.12324">
        <ele>286.13</ele>
        <time>2020-07-11T11:28:38Z</time>
      </trkpt>
      <trkpt lat="44.61667" lon="2.12308">
        <ele>286.61</ele>
        <time>2020-07-11T11:28:57Z</time>
      </trkpt>
      <trkpt lat="44.61652" lon="2.123">
        <ele>284.69</ele>
        <time>2020-07-11T11:29:14Z</time>
      </trkpt>
      <trkpt lat="44.6165" lon="2.12298">
        <ele>283.25</ele>
        <time>2020-07-11T11:29:17Z</time>
      </trkpt>
      <trkpt lat="44.61635" lon="2.12272">
        <ele>281.32</ele>
        <time>2020-07-11T11:29:40Z</time>
      </trkpt>
      <trkpt lat="44.61619" lon="2.12249">
        <ele>278.44</ele>
        <time>2020-07-11T11:30:02Z</time>
      </trkpt>
      <trkpt lat="44.61601" lon="2.12223">
        <ele>276.04</ele>
        <time>2020-07-11T11:30:23Z</time>
      </trkpt>
      <trkpt lat="44.61585" lon="2.1219">
        <ele>276.04</ele>
        <time>2020-07-11T11:30:42Z</time>
      </trkpt>
      <trkpt lat="44.61573" lon="2.12174">
        <ele>275.07</ele>
        <time>2020-07-11T11:30:54Z</time>
      </trkpt>
      <trkpt lat="44.61553" lon="2.12152">
        <ele>274.11</ele>
        <time>2020-07-11T11:31:17Z</time>
      </trkpt>
      <trkpt lat="44.61547" lon="2.12132">
        <ele>272.67</ele>
        <time>2020-07-11T11:31:36Z</time>
      </trkpt>
      <trkpt lat="44.61545" lon="2.12118">
        <ele>272.19</ele>
        <time>2020-07-11T11:31:43Z</time>
      </trkpt>
      <trkpt lat="44.61539" lon="2.12088">
        <ele>271.23</ele>
        <time>2020-07-11T11:32:03Z</time>
      </trkpt>
      <trkpt lat="44.61535" lon="2.12055">
        <ele>270.75</ele>
        <time>2020-07-11T11:32:26Z</time>
      </trkpt>
      <trkpt lat="44.61535" lon="2.12046">
        <ele>270.75</ele>
        <time>2020-07-11T11:32:45Z</time>
      </trkpt>
      <trkpt lat="44.61534" lon="2.12043">
        <ele>272.67</ele>
        <time>2020-07-11T11:33:01Z</time>
      </trkpt>
      <trkpt lat="44.61532" lon="2.12027">
        <ele>272.67</ele>
        <time>2020-07-11T11:33:10Z</time>
      </trkpt>
      <trkpt lat="44.61529" lon="2.12009">
        <ele>273.15</ele>
        <time>2020-07-11T11:33:26Z</time>
      </trkpt>
      <trkpt lat="44.61527" lon="2.11983">
        <ele>275.07</ele>
        <time>2020-07-11T11:33:46Z</time>
      </trkpt>
      <trkpt lat="44.61523" lon="2.11961">
        <ele>277</ele>
        <time>2020-07-11T11:34:06Z</time>
      </trkpt>
      <trkpt lat="44.6152" lon="2.11937">
        <ele>279.88</ele>
        <time>2020-07-11T11:34:24Z</time>
      </trkpt>
      <trkpt lat="44.61513" lon="2.11912">
        <ele>281.32</ele>
        <time>2020-07-11T11:34:43Z</time>
      </trkpt>
      <trkpt lat="44.61508" lon="2.11893">
        <ele>283.73</ele>
        <time>2020-07-11T11:35:03Z</time>
      </trkpt>
      <trkpt lat="44.61499" lon="2.1189">
        <ele>284.21</ele>
        <time>2020-07-11T11:35:20Z</time>
      </trkpt>
      <trkpt lat="44.61476" lon="2.1189">
        <ele>284.69</ele>
        <time>2020-07-11T11:35:40Z</time>
      </trkpt>
      <trkpt lat="44.61465" lon="2.11889">
        <ele>283.25</ele>
        <time>2020-07-11T11:35:49Z</time>
      </trkpt>
      <trkpt lat="44.61447" lon="2.11878">
        <ele>280.36</ele>
        <time>2020-07-11T11:36:11Z</time>
      </trkpt>
      <trkpt lat="44.61443" lon="2.11877">
        <ele>281.8</ele>
        <time>2020-07-11T11:36:14Z</time>
      </trkpt>
      <trkpt lat="44.61438" lon="2.11874">
        <ele>279.88</ele>
        <time>2020-07-11T11:36:18Z</time>
      </trkpt>
      <trkpt lat="44.61413" lon="2.11863">
        <ele>279.4</ele>
        <time>2020-07-11T11:36:42Z</time>
      </trkpt>
      <trkpt lat="44.61395" lon="2.11851">
        <ele>277.48</ele>
        <time>2020-07-11T11:37:02Z</time>
      </trkpt>
      <trkpt lat="44.61373" lon="2.1184">
        <ele>277</ele>
        <time>2020-07-11T11:37:24Z</time>
      </trkpt>
      <trkpt lat="44.61354" lon="2.11836">
        <ele>277</ele>
        <time>2020-07-11T11:37:44Z</time>
      </trkpt>
      <trkpt lat="44.61353" lon="2.11834">
        <ele>277</ele>
        <time>2020-07-11T11:38:07Z</time>
      </trkpt>
      <trkpt lat="44.6134" lon="2.11851">
        <ele>274.59</ele>
        <time>2020-07-11T11:38:26Z</time>
      </trkpt>
      <trkpt lat="44.61334" lon="2.11859">
        <ele>274.11</ele>
        <time>2020-07-11T11:38:33Z</time>
      </trkpt>
      <trkpt lat="44.61317" lon="2.11883">
        <ele>273.15</ele>
        <time>2020-07-11T11:38:53Z</time>
      </trkpt>
      <trkpt lat="44.61299" lon="2.11909">
        <ele>272.19</ele>
        <time>2020-07-11T11:39:15Z</time>
      </trkpt>
      <trkpt lat="44.61282" lon="2.11932">
        <ele>271.23</ele>
        <time>2020-07-11T11:39:35Z</time>
      </trkpt>
      <trkpt lat="44.61263" lon="2.11955">
        <ele>270.27</ele>
        <time>2020-07-11T11:39:55Z</time>
      </trkpt>
      <trkpt lat="44.61251" lon="2.11969">
        <ele>268.83</ele>
        <time>2020-07-11T11:40:12Z</time>
      </trkpt>
      <trkpt lat="44.61249" lon="2.11969">
        <ele>268.83</ele>
        <time>2020-07-11T11:40:31Z</time>
      </trkpt>
      <trkpt lat="44.61242" lon="2.11972">
        <ele>268.35</ele>
        <time>2020-07-11T11:40:56Z</time>
      </trkpt>
      <trkpt lat="44.61232" lon="2.11969">
        <ele>268.35</ele>
        <time>2020-07-11T11:41:12Z</time>
      </trkpt>
      <trkpt lat="44.61226" lon="2.11963">
        <ele>269.79</ele>
        <time>2020-07-11T11:41:18Z</time>
      </trkpt>
      <trkpt lat="44.61218" lon="2.11958">
        <ele>270.75</ele>
        <time>2020-07-11T11:41:25Z</time>
      </trkpt>
      <trkpt lat="44.61208" lon="2.11963">
        <ele>270.27</ele>
        <time>2020-07-11T11:41:34Z</time>
      </trkpt>
      <trkpt lat="44.61195" lon="2.11971">
        <ele>270.27</ele>
        <time>2020-07-11T11:41:48Z</time>
      </trkpt>
      <trkpt lat="44.61179" lon="2.11977">
        <ele>271.71</ele>
        <time>2020-07-11T11:42:05Z</time>
      </trkpt>
      <trkpt lat="44.61168" lon="2.11973">
        <ele>273.15</ele>
        <time>2020-07-11T11:42:23Z</time>
      </trkpt>
      <trkpt lat="44.61169" lon="2.11975">
        <ele>272.67</ele>
        <time>2020-07-11T11:42:49Z</time>
      </trkpt>
      <trkpt lat="44.61166" lon="2.11974">
        <ele>272.67</ele>
        <time>2020-07-11T11:43:06Z</time>
      </trkpt>
      <trkpt lat="44.61167" lon="2.11971">
        <ele>272.67</ele>
        <time>2020-07-11T11:43:28Z</time>
      </trkpt>
      <trkpt lat="44.61168" lon="2.1197">
        <ele>272.67</ele>
        <time>2020-07-11T11:43:52Z</time>
      </trkpt>
      <trkpt lat="44.61166" lon="2.11969">
        <ele>272.67</ele>
        <time>2020-07-11T11:44:26Z</time>
      </trkpt>
      <trkpt lat="44.61167" lon="2.11968">
        <ele>272.67</ele>
        <time>2020-07-11T11:44:55Z</time>
      </trkpt>
      <trkpt lat="44.61165" lon="2.11966">
        <ele>272.67</ele>
        <time>2020-07-11T11:45:04Z</time>
      </trkpt>
      <trkpt lat="44.61153" lon="2.11937">
        <ele>272.67</ele>
        <time>2020-07-11T11:45:23Z</time>
      </trkpt>
      <trkpt lat="44.61144" lon="2.11906">
        <ele>273.63</ele>
        <time>2020-07-11T11:45:44Z</time>
      </trkpt>
      <trkpt lat="44.61136" lon="2.1187">
        <ele>275.07</ele>
        <time>2020-07-11T11:46:06Z</time>
      </trkpt>
      <trkpt lat="44.61136" lon="2.11864">
        <ele>275.07</ele>
        <time>2020-07-11T11:46:26Z</time>
      </trkpt>
      <trkpt lat="44.61133" lon="2.11845">
        <ele>275.56</ele>
        <time>2020-07-11T11:46:41Z</time>
      </trkpt>
      <trkpt lat="44.61134" lon="2.11834">
        <ele>276.04</ele>
        <time>2020-07-11T11:46:55Z</time>
      </trkpt>
      <trkpt lat="44.61133" lon="2.11831">
        <ele>276.04</ele>
        <time>2020-07-11T11:47:10Z</time>
      </trkpt>
      <trkpt lat="44.61134" lon="2.11831">
        <ele>276.04</ele>
        <time>2020-07-11T11:47:36Z</time>
      </trkpt>
      <trkpt lat="44.61134" lon="2.11831">
        <ele>276.04</ele>
        <time>2020-07-11T11:47:59Z</time>
      </trkpt>
      <trkpt lat="44.61128" lon="2.1182">
        <ele>276.04</ele>
        <time>2020-07-11T11:48:07Z</time>
      </trkpt>
      <trkpt lat="44.6112" lon="2.11797">
        <ele>276.52</ele>
        <time>2020-07-11T11:48:24Z</time>
      </trkpt>
      <trkpt lat="44.61121" lon="2.11787">
        <ele>277</ele>
        <time>2020-07-11T11:48:43Z</time>
      </trkpt>
      <trkpt lat="44.61127" lon="2.11777">
        <ele>277</ele>
        <time>2020-07-11T11:49:13Z</time>
      </trkpt>
      <trkpt lat="44.61112" lon="2.11763">
        <ele>278.44</ele>
        <time>2020-07-11T11:49:33Z</time>
      </trkpt>
      <trkpt lat="44.61107" lon="2.11767">
        <ele>277.48</ele>
        <time>2020-07-11T11:49:46Z</time>
      </trkpt>
      <trkpt lat="44.61094" lon="2.11785">
        <ele>276.52</ele>
        <time>2020-07-11T11:50:01Z</time>
      </trkpt>
      <trkpt lat="44.61091" lon="2.11788">
        <ele>276.52</ele>
        <time>2020-07-11T11:50:03Z</time>
      </trkpt>
      <trkpt lat="44.61078" lon="2.118">
        <ele>277</ele>
        <time>2020-07-11T11:50:19Z</time>
      </trkpt>
      <trkpt lat="44.61055" lon="2.11813">
        <ele>278.44</ele>
        <time>2020-07-11T11:50:40Z</time>
      </trkpt>
      <trkpt lat="44.61034" lon="2.11822">
        <ele>279.4</ele>
        <time>2020-07-11T11:51:00Z</time>
      </trkpt>
      <trkpt lat="44.61031" lon="2.11823">
        <ele>279.88</ele>
        <time>2020-07-11T11:51:18Z</time>
      </trkpt>
      <trkpt lat="44.61017" lon="2.11828">
        <ele>282.77</ele>
        <time>2020-07-11T11:51:38Z</time>
      </trkpt>
      <trkpt lat="44.61004" lon="2.11831">
        <ele>285.65</ele>
        <time>2020-07-11T11:51:58Z</time>
      </trkpt>
      <trkpt lat="44.60989" lon="2.11834">
        <ele>287.09</ele>
        <time>2020-07-11T11:52:16Z</time>
      </trkpt>
      <trkpt lat="44.60981" lon="2.11836">
        <ele>289.49</ele>
        <time>2020-07-11T11:52:32Z</time>
      </trkpt>
      <trkpt lat="44.60981" lon="2.11834">
        <ele>289.49</ele>
        <time>2020-07-11T11:52:58Z</time>
      </trkpt>
      <trkpt lat="44.60979" lon="2.11829">
        <ele>288.05</ele>
        <time>2020-07-11T11:53:06Z</time>
      </trkpt>
      <trkpt lat="44.6097" lon="2.11799">
        <ele>288.05</ele>
        <time>2020-07-11T11:53:27Z</time>
      </trkpt>
      <trkpt lat="44.60966" lon="2.11787">
        <ele>289.49</ele>
        <time>2020-07-11T11:53:34Z</time>
      </trkpt>
      <trkpt lat="44.6096" lon="2.11762">
        <ele>289.97</ele>
        <time>2020-07-11T11:53:50Z</time>
      </trkpt>
      <trkpt lat="44.60954" lon="2.11727">
        <ele>287.57</ele>
        <time>2020-07-11T11:54:14Z</time>
      </trkpt>
      <trkpt lat="44.60953" lon="2.11689">
        <ele>288.53</ele>
        <time>2020-07-11T11:54:35Z</time>
      </trkpt>
      <trkpt lat="44.60953" lon="2.11687">
        <ele>288.53</ele>
        <time>2020-07-11T11:54:36Z</time>
      </trkpt>
      <trkpt lat="44.60959" lon="2.11675">
        <ele>287.57</ele>
        <time>2020-07-11T11:54:44Z</time>
      </trkpt>
      <trkpt lat="44.60976" lon="2.11644">
        <ele>286.61</ele>
        <time>2020-07-11T11:55:05Z</time>
      </trkpt>
      <trkpt lat="44.60979" lon="2.11633">
        <ele>286.61</ele>
        <time>2020-07-11T11:55:12Z</time>
      </trkpt>
      <trkpt lat="44.60992" lon="2.11597">
        <ele>286.61</ele>
        <time>2020-07-11T11:55:33Z</time>
      </trkpt>
      <trkpt lat="44.61003" lon="2.11575">
        <ele>287.57</ele>
        <time>2020-07-11T11:55:50Z</time>
      </trkpt>
      <trkpt lat="44.61014" lon="2.11561">
        <ele>287.57</ele>
        <time>2020-07-11T11:56:05Z</time>
      </trkpt>
      <trkpt lat="44.61022" lon="2.11547">
        <ele>288.05</ele>
        <time>2020-07-11T11:56:22Z</time>
      </trkpt>
      <trkpt lat="44.6103" lon="2.11521">
        <ele>289.01</ele>
        <time>2020-07-11T11:56:41Z</time>
      </trkpt>
      <trkpt lat="44.61028" lon="2.11515">
        <ele>289.01</ele>
        <time>2020-07-11T11:56:46Z</time>
      </trkpt>
      <trkpt lat="44.61022" lon="2.11474">
        <ele>289.49</ele>
        <time>2020-07-11T11:57:09Z</time>
      </trkpt>
      <trkpt lat="44.61021" lon="2.1145">
        <ele>289.49</ele>
        <time>2020-07-11T11:57:22Z</time>
      </trkpt>
      <trkpt lat="44.61022" lon="2.11441">
        <ele>288.05</ele>
        <time>2020-07-11T11:57:27Z</time>
      </trkpt>
      <trkpt lat="44.61024" lon="2.11438">
        <ele>289.49</ele>
        <time>2020-07-11T11:57:30Z</time>
      </trkpt>
      <trkpt lat="44.61039" lon="2.11429">
        <ele>290.94</ele>
        <time>2020-07-11T11:57:49Z</time>
      </trkpt>
      <trkpt lat="44.61062" lon="2.11418">
        <ele>292.38</ele>
        <time>2020-07-11T11:58:08Z</time>
      </trkpt>
      <trkpt lat="44.61067" lon="2.11417">
        <ele>292.86</ele>
        <time>2020-07-11T11:58:14Z</time>
      </trkpt>
      <trkpt lat="44.61074" lon="2.11414">
        <ele>292.86</ele>
        <time>2020-07-11T11:58:21Z</time>
      </trkpt>
      <trkpt lat="44.61099" lon="2.11404">
        <ele>294.78</ele>
        <time>2020-07-11T11:58:45Z</time>
      </trkpt>
      <trkpt lat="44.61106" lon="2.11403">
        <ele>295.74</ele>
        <time>2020-07-11T11:58:59Z</time>
      </trkpt>
      <trkpt lat="44.61111" lon="2.11401">
        <ele>296.22</ele>
        <time>2020-07-11T11:59:12Z</time>
      </trkpt>
      <trkpt lat="44.61123" lon="2.11397">
        <ele>297.18</ele>
        <time>2020-07-11T11:59:27Z</time>
      </trkpt>
      <trkpt lat="44.61128" lon="2.11392">
        <ele>298.15</ele>
        <time>2020-07-11T11:59:39Z</time>
      </trkpt>
      <trkpt lat="44.61136" lon="2.1138">
        <ele>299.11</ele>
        <time>2020-07-11T11:59:54Z</time>
      </trkpt>
      <trkpt lat="44.6115" lon="2.11361">
        <ele>301.03</ele>
        <time>2020-07-11T12:00:17Z</time>
      </trkpt>
      <trkpt lat="44.61161" lon="2.11348">
        <ele>302.47</ele>
        <time>2020-07-11T12:00:37Z</time>
      </trkpt>
      <trkpt lat="44.61171" lon="2.11334">
        <ele>304.39</ele>
        <time>2020-07-11T12:00:53Z</time>
      </trkpt>
      <trkpt lat="44.61183" lon="2.11316">
        <ele>305.36</ele>
        <time>2020-07-11T12:01:12Z</time>
      </trkpt>
      <trkpt lat="44.61197" lon="2.11286">
        <ele>306.32</ele>
        <time>2020-07-11T12:01:32Z</time>
      </trkpt>
      <trkpt lat="44.61206" lon="2.11262">
        <ele>307.76</ele>
        <time>2020-07-11T12:01:50Z</time>
      </trkpt>
      <trkpt lat="44.61207" lon="2.11259">
        <ele>309.68</ele>
        <time>2020-07-11T12:01:53Z</time>
      </trkpt>
      <trkpt lat="44.61221" lon="2.11236">
        <ele>309.68</ele>
        <time>2020-07-11T12:02:13Z</time>
      </trkpt>
      <trkpt lat="44.61236" lon="2.11233">
        <ele>310.16</ele>
        <time>2020-07-11T12:02:28Z</time>
      </trkpt>
      <trkpt lat="44.61251" lon="2.11229">
        <ele>310.64</ele>
        <time>2020-07-11T12:02:46Z</time>
      </trkpt>
      <trkpt lat="44.61259" lon="2.11227">
        <ele>310.16</ele>
        <time>2020-07-11T12:02:54Z</time>
      </trkpt>
      <trkpt lat="44.6127" lon="2.11222">
        <ele>311.6</ele>
        <time>2020-07-11T12:03:04Z</time>
      </trkpt>
      <trkpt lat="44.61287" lon="2.11215">
        <ele>312.09</ele>
        <time>2020-07-11T12:03:19Z</time>
      </trkpt>
      <trkpt lat="44.61304" lon="2.11203">
        <ele>313.05</ele>
        <time>2020-07-11T12:03:37Z</time>
      </trkpt>
      <trkpt lat="44.61319" lon="2.11189">
        <ele>314.49</ele>
        <time>2020-07-11T12:03:57Z</time>
      </trkpt>
      <trkpt lat="44.61347" lon="2.11173">
        <ele>316.41</ele>
        <time>2020-07-11T12:04:17Z</time>
      </trkpt>
      <trkpt lat="44.6136" lon="2.11161">
        <ele>317.37</ele>
        <time>2020-07-11T12:04:33Z</time>
      </trkpt>
      <trkpt lat="44.61373" lon="2.11153">
        <ele>317.85</ele>
        <time>2020-07-11T12:04:49Z</time>
      </trkpt>
      <trkpt lat="44.61394" lon="2.11144">
        <ele>319.3</ele>
        <time>2020-07-11T12:05:06Z</time>
      </trkpt>
      <trkpt lat="44.61412" lon="2.11133">
        <ele>321.22</ele>
        <time>2020-07-11T12:05:24Z</time>
      </trkpt>
      <trkpt lat="44.61429" lon="2.1112">
        <ele>323.62</ele>
        <time>2020-07-11T12:05:44Z</time>
      </trkpt>
      <trkpt lat="44.61448" lon="2.11107">
        <ele>325.06</ele>
        <time>2020-07-11T12:06:04Z</time>
      </trkpt>
      <trkpt lat="44.61457" lon="2.11103">
        <ele>326.02</ele>
        <time>2020-07-11T12:06:13Z</time>
      </trkpt>
      <trkpt lat="44.61473" lon="2.1109">
        <ele>328.43</ele>
        <time>2020-07-11T12:06:31Z</time>
      </trkpt>
      <trkpt lat="44.61489" lon="2.11077">
        <ele>331.31</ele>
        <time>2020-07-11T12:06:50Z</time>
      </trkpt>
      <trkpt lat="44.61505" lon="2.11063">
        <ele>332.75</ele>
        <time>2020-07-11T12:07:11Z</time>
      </trkpt>
      <trkpt lat="44.61519" lon="2.11051">
        <ele>334.68</ele>
        <time>2020-07-11T12:07:30Z</time>
      </trkpt>
      <trkpt lat="44.61533" lon="2.1104">
        <ele>335.64</ele>
        <time>2020-07-11T12:07:46Z</time>
      </trkpt>
      <trkpt lat="44.6154" lon="2.11036">
        <ele>335.64</ele>
        <time>2020-07-11T12:07:53Z</time>
      </trkpt>
      <trkpt lat="44.61558" lon="2.11028">
        <ele>336.12</ele>
        <time>2020-07-11T12:08:11Z</time>
      </trkpt>
      <trkpt lat="44.61562" lon="2.11025">
        <ele>336.6</ele>
        <time>2020-07-11T12:08:15Z</time>
      </trkpt>
      <trkpt lat="44.61581" lon="2.1101">
        <ele>337.56</ele>
        <time>2020-07-11T12:08:34Z</time>
      </trkpt>
      <trkpt lat="44.616" lon="2.10999">
        <ele>338.04</ele>
        <time>2020-07-11T12:08:54Z</time>
      </trkpt>
      <trkpt lat="44.61611" lon="2.10993">
        <ele>338.04</ele>
        <time>2020-07-11T12:09:04Z</time>
      </trkpt>
      <trkpt lat="44.61625" lon="2.10986">
        <ele>338.04</ele>
        <time>2020-07-11T12:09:17Z</time>
      </trkpt>
      <trkpt lat="44.61638" lon="2.10979">
        <ele>338.52</ele>
        <time>2020-07-11T12:09:31Z</time>
      </trkpt>
      <trkpt lat="44.61647" lon="2.10971">
        <ele>338.52</ele>
        <time>2020-07-11T12:09:39Z</time>
      </trkpt>
      <trkpt lat="44.61658" lon="2.10957">
        <ele>338.52</ele>
        <time>2020-07-11T12:09:55Z</time>
      </trkpt>
      <trkpt lat="44.61664" lon="2.10946">
        <ele>339</ele>
        <time>2020-07-11T12:10:13Z</time>
      </trkpt>
      <trkpt lat="44.61678" lon="2.10917">
        <ele>339</ele>
        <time>2020-07-11T12:10:38Z</time>
      </trkpt>
      <trkpt lat="44.61681" lon="2.10913">
        <ele>339.48</ele>
        <time>2020-07-11T12:10:42Z</time>
      </trkpt>
      <trkpt lat="44.61698" lon="2.10892">
        <ele>339.48</ele>
        <time>2020-07-11T12:10:56Z</time>
      </trkpt>
      <trkpt lat="44.61707" lon="2.10876">
        <ele>339.96</ele>
        <time>2020-07-11T12:11:11Z</time>
      </trkpt>
      <trkpt lat="44.61723" lon="2.10847">
        <ele>339.96</ele>
        <time>2020-07-11T12:11:31Z</time>
      </trkpt>
      <trkpt lat="44.61727" lon="2.10842">
        <ele>339.96</ele>
        <time>2020-07-11T12:11:47Z</time>
      </trkpt>
      <trkpt lat="44.61732" lon="2.10846">
        <ele>339</ele>
        <time>2020-07-11T12:11:58Z</time>
      </trkpt>
      <trkpt lat="44.61739" lon="2.10846">
        <ele>338.52</ele>
        <time>2020-07-11T12:12:10Z</time>
      </trkpt>
      <trkpt lat="44.61748" lon="2.10843">
        <ele>337.56</ele>
        <time>2020-07-11T12:12:28Z</time>
      </trkpt>
      <trkpt lat="44.61767" lon="2.10843">
        <ele>337.08</ele>
        <time>2020-07-11T12:12:48Z</time>
      </trkpt>
      <trkpt lat="44.61786" lon="2.10844">
        <ele>338.52</ele>
        <time>2020-07-11T12:13:09Z</time>
      </trkpt>
      <trkpt lat="44.61798" lon="2.10844">
        <ele>339</ele>
        <time>2020-07-11T12:13:27Z</time>
      </trkpt>
      <trkpt lat="44.61802" lon="2.10845">
        <ele>337.56</ele>
        <time>2020-07-11T12:13:33Z</time>
      </trkpt>
      <trkpt lat="44.6182" lon="2.10844">
        <ele>336.12</ele>
        <time>2020-07-11T12:13:54Z</time>
      </trkpt>
      <trkpt lat="44.61834" lon="2.10839">
        <ele>335.64</ele>
        <time>2020-07-11T12:14:13Z</time>
      </trkpt>
      <trkpt lat="44.61859" lon="2.10833">
        <ele>337.56</ele>
        <time>2020-07-11T12:14:32Z</time>
      </trkpt>
      <trkpt lat="44.61869" lon="2.10831">
        <ele>337.56</ele>
        <time>2020-07-11T12:14:43Z</time>
      </trkpt>
      <trkpt lat="44.6187" lon="2.10831">
        <ele>337.56</ele>
        <time>2020-07-11T12:14:44Z</time>
      </trkpt>
      <trkpt lat="44.61891" lon="2.10821">
        <ele>338.52</ele>
        <time>2020-07-11T12:15:00Z</time>
      </trkpt>
      <trkpt lat="44.61916" lon="2.10808">
        <ele>339.48</ele>
        <time>2020-07-11T12:15:22Z</time>
      </trkpt>
      <trkpt lat="44.61934" lon="2.10798">
        <ele>340.44</ele>
        <time>2020-07-11T12:15:40Z</time>
      </trkpt>
      <trkpt lat="44.61946" lon="2.10796">
        <ele>340.44</ele>
        <time>2020-07-11T12:15:58Z</time>
      </trkpt>
      <trkpt lat="44.61959" lon="2.10784">
        <ele>341.41</ele>
        <time>2020-07-11T12:16:16Z</time>
      </trkpt>
      <trkpt lat="44.61979" lon="2.10772">
        <ele>341.89</ele>
        <time>2020-07-11T12:16:37Z</time>
      </trkpt>
      <trkpt lat="44.61993" lon="2.10771">
        <ele>342.85</ele>
        <time>2020-07-11T12:16:54Z</time>
      </trkpt>
      <trkpt lat="44.61988" lon="2.10776">
        <ele>342.85</ele>
        <time>2020-07-11T12:17:11Z</time>
      </trkpt>
      <trkpt lat="44.61988" lon="2.10777">
        <ele>342.85</ele>
        <time>2020-07-11T12:17:39Z</time>
      </trkpt>
      <trkpt lat="44.61988" lon="2.10774">
        <ele>342.85</ele>
        <time>2020-07-11T12:18:02Z</time>
      </trkpt>
      <trkpt lat="44.61987" lon="2.10776">
        <ele>342.85</ele>
        <time>2020-07-11T12:18:33Z</time>
      </trkpt>
      <trkpt lat="44.61995" lon="2.10768">
        <ele>341.89</ele>
        <time>2020-07-11T12:18:51Z</time>
      </trkpt>
      <trkpt lat="44.6201" lon="2.10758">
        <ele>342.85</ele>
        <time>2020-07-11T12:19:09Z</time>
      </trkpt>
      <trkpt lat="44.62019" lon="2.10751">
        <ele>342.85</ele>
        <time>2020-07-11T12:19:26Z</time>
      </trkpt>
      <trkpt lat="44.6202" lon="2.10756">
        <ele>341.89</ele>
        <time>2020-07-11T12:19:42Z</time>
      </trkpt>
      <trkpt lat="44.62024" lon="2.10762">
        <ele>341.89</ele>
        <time>2020-07-11T12:20:01Z</time>
      </trkpt>
      <trkpt lat="44.62033" lon="2.10767">
        <ele>341.89</ele>
        <time>2020-07-11T12:20:16Z</time>
      </trkpt>
      <trkpt lat="44.62038" lon="2.10772">
        <ele>341.41</ele>
        <time>2020-07-11T12:20:20Z</time>
      </trkpt>
      <trkpt lat="44.62054" lon="2.10793">
        <ele>341.89</ele>
        <time>2020-07-11T12:20:39Z</time>
      </trkpt>
      <trkpt lat="44.62071" lon="2.10803">
        <ele>340.92</ele>
        <time>2020-07-11T12:20:54Z</time>
      </trkpt>
      <trkpt lat="44.62087" lon="2.10819">
        <ele>342.37</ele>
        <time>2020-07-11T12:21:11Z</time>
      </trkpt>
      <trkpt lat="44.62101" lon="2.10824">
        <ele>343.33</ele>
        <time>2020-07-11T12:21:29Z</time>
      </trkpt>
      <trkpt lat="44.62106" lon="2.1083">
        <ele>343.33</ele>
        <time>2020-07-11T12:21:53Z</time>
      </trkpt>
      <trkpt lat="44.62117" lon="2.10845">
        <ele>343.81</ele>
        <time>2020-07-11T12:22:12Z</time>
      </trkpt>
      <trkpt lat="44.62132" lon="2.10855">
        <ele>344.77</ele>
        <time>2020-07-11T12:22:28Z</time>
      </trkpt>
      <trkpt lat="44.62139" lon="2.10854">
        <ele>345.25</ele>
        <time>2020-07-11T12:22:42Z</time>
      </trkpt>
      <trkpt lat="44.62147" lon="2.10835">
        <ele>345.25</ele>
        <time>2020-07-11T12:23:31Z</time>
      </trkpt>
      <trkpt lat="44.62122" lon="2.10844">
        <ele>345.25</ele>
        <time>2020-07-11T12:23:49Z</time>
      </trkpt>
      <trkpt lat="44.62115" lon="2.10842">
        <ele>343.81</ele>
        <time>2020-07-11T12:23:56Z</time>
      </trkpt>
      <trkpt lat="44.62107" lon="2.10837">
        <ele>342.85</ele>
        <time>2020-07-11T12:24:04Z</time>
      </trkpt>
      <trkpt lat="44.62088" lon="2.10817">
        <ele>342.37</ele>
        <time>2020-07-11T12:24:23Z</time>
      </trkpt>
      <trkpt lat="44.62068" lon="2.10801">
        <ele>340.92</ele>
        <time>2020-07-11T12:24:41Z</time>
      </trkpt>
      <trkpt lat="44.62051" lon="2.10787">
        <ele>340.92</ele>
        <time>2020-07-11T12:25:00Z</time>
      </trkpt>
      <trkpt lat="44.6205" lon="2.10786">
        <ele>342.37</ele>
        <time>2020-07-11T12:25:02Z</time>
      </trkpt>
      <trkpt lat="44.62023" lon="2.10768">
        <ele>342.85</ele>
        <time>2020-07-11T12:25:23Z</time>
      </trkpt>
      <trkpt lat="44.62" lon="2.10756">
        <ele>343.33</ele>
        <time>2020-07-11T12:25:41Z</time>
      </trkpt>
      <trkpt lat="44.61998" lon="2.10751">
        <ele>344.77</ele>
        <time>2020-07-11T12:25:44Z</time>
      </trkpt>
      <trkpt lat="44.61992" lon="2.10732">
        <ele>345.25</ele>
        <time>2020-07-11T12:25:57Z</time>
      </trkpt>
      <trkpt lat="44.61985" lon="2.10717">
        <ele>346.69</ele>
        <time>2020-07-11T12:26:14Z</time>
      </trkpt>
      <trkpt lat="44.61978" lon="2.10696">
        <ele>347.17</ele>
        <time>2020-07-11T12:26:30Z</time>
      </trkpt>
      <trkpt lat="44.61969" lon="2.10668">
        <ele>349.1</ele>
        <time>2020-07-11T12:26:51Z</time>
      </trkpt>
      <trkpt lat="44.61958" lon="2.10644">
        <ele>350.54</ele>
        <time>2020-07-11T12:27:07Z</time>
      </trkpt>
      <trkpt lat="44.61949" lon="2.10619">
        <ele>351.02</ele>
        <time>2020-07-11T12:27:26Z</time>
      </trkpt>
      <trkpt lat="44.61947" lon="2.10615">
        <ele>349.58</ele>
        <time>2020-07-11T12:27:30Z</time>
      </trkpt>
      <trkpt lat="44.61936" lon="2.10596">
        <ele>349.1</ele>
        <time>2020-07-11T12:27:44Z</time>
      </trkpt>
      <trkpt lat="44.61921" lon="2.10569">
        <ele>346.21</ele>
        <time>2020-07-11T12:28:04Z</time>
      </trkpt>
      <trkpt lat="44.61902" lon="2.10541">
        <ele>343.33</ele>
        <time>2020-07-11T12:28:25Z</time>
      </trkpt>
      <trkpt lat="44.61883" lon="2.10517">
        <ele>341.89</ele>
        <time>2020-07-11T12:28:45Z</time>
      </trkpt>
      <trkpt lat="44.61867" lon="2.10492">
        <ele>341.41</ele>
        <time>2020-07-11T12:29:08Z</time>
      </trkpt>
      <trkpt lat="44.61862" lon="2.10482">
        <ele>341.41</ele>
        <time>2020-07-11T12:29:25Z</time>
      </trkpt>
      <trkpt lat="44.61846" lon="2.10461">
        <ele>341.89</ele>
        <time>2020-07-11T12:29:40Z</time>
      </trkpt>
      <trkpt lat="44.61843" lon="2.10451">
        <ele>341.41</ele>
        <time>2020-07-11T12:29:45Z</time>
      </trkpt>
      <trkpt lat="44.61839" lon="2.10447">
        <ele>341.41</ele>
        <time>2020-07-11T12:29:49Z</time>
      </trkpt>
      <trkpt lat="44.6183" lon="2.10424">
        <ele>340.92</ele>
        <time>2020-07-11T12:30:03Z</time>
      </trkpt>
      <trkpt lat="44.61821" lon="2.1039">
        <ele>340.92</ele>
        <time>2020-07-11T12:30:24Z</time>
      </trkpt>
      <trkpt lat="44.61814" lon="2.1036">
        <ele>340.92</ele>
        <time>2020-07-11T12:30:44Z</time>
      </trkpt>
      <trkpt lat="44.61801" lon="2.10325">
        <ele>339.96</ele>
        <time>2020-07-11T12:31:04Z</time>
      </trkpt>
      <trkpt lat="44.61795" lon="2.10291">
        <ele>340.92</ele>
        <time>2020-07-11T12:31:23Z</time>
      </trkpt>
      <trkpt lat="44.61789" lon="2.10258">
        <ele>340.92</ele>
        <time>2020-07-11T12:31:41Z</time>
      </trkpt>
      <trkpt lat="44.61779" lon="2.10212">
        <ele>341.89</ele>
        <time>2020-07-11T12:32:03Z</time>
      </trkpt>
      <trkpt lat="44.61773" lon="2.10183">
        <ele>342.37</ele>
        <time>2020-07-11T12:32:19Z</time>
      </trkpt>
      <trkpt lat="44.61769" lon="2.10166">
        <ele>342.85</ele>
        <time>2020-07-11T12:32:29Z</time>
      </trkpt>
      <trkpt lat="44.61767" lon="2.10159">
        <ele>341.41</ele>
        <time>2020-07-11T12:32:33Z</time>
      </trkpt>
      <trkpt lat="44.61765" lon="2.10152">
        <ele>342.85</ele>
        <time>2020-07-11T12:32:37Z</time>
      </trkpt>
      <trkpt lat="44.61753" lon="2.10115">
        <ele>344.29</ele>
        <time>2020-07-11T12:32:57Z</time>
      </trkpt>
      <trkpt lat="44.61751" lon="2.10108">
        <ele>342.85</ele>
        <time>2020-07-11T12:33:01Z</time>
      </trkpt>
      <trkpt lat="44.61744" lon="2.10093">
        <ele>344.29</ele>
        <time>2020-07-11T12:33:11Z</time>
      </trkpt>
      <trkpt lat="44.6173" lon="2.10064">
        <ele>345.25</ele>
        <time>2020-07-11T12:33:31Z</time>
      </trkpt>
      <trkpt lat="44.61716" lon="2.10034">
        <ele>345.73</ele>
        <time>2020-07-11T12:33:50Z</time>
      </trkpt>
      <trkpt lat="44.61704" lon="2.10001">
        <ele>346.69</ele>
        <time>2020-07-11T12:34:10Z</time>
      </trkpt>
      <trkpt lat="44.61692" lon="2.09971">
        <ele>347.65</ele>
        <time>2020-07-11T12:34:28Z</time>
      </trkpt>
      <trkpt lat="44.61675" lon="2.09939">
        <ele>347.17</ele>
        <time>2020-07-11T12:34:49Z</time>
      </trkpt>
      <trkpt lat="44.61668" lon="2.09922">
        <ele>348.13</ele>
        <time>2020-07-11T12:35:00Z</time>
      </trkpt>
      <trkpt lat="44.61667" lon="2.0992">
        <ele>347.17</ele>
        <time>2020-07-11T12:35:02Z</time>
      </trkpt>
      <trkpt lat="44.61666" lon="2.09918">
        <ele>348.62</ele>
        <time>2020-07-11T12:35:04Z</time>
      </trkpt>
      <trkpt lat="44.61657" lon="2.09898">
        <ele>348.62</ele>
        <time>2020-07-11T12:35:19Z</time>
      </trkpt>
      <trkpt lat="44.61638" lon="2.09873">
        <ele>348.62</ele>
        <time>2020-07-11T12:35:40Z</time>
      </trkpt>
      <trkpt lat="44.61618" lon="2.09845">
        <ele>349.1</ele>
        <time>2020-07-11T12:36:00Z</time>
      </trkpt>
      <trkpt lat="44.61602" lon="2.09819">
        <ele>349.58</ele>
        <time>2020-07-11T12:36:18Z</time>
      </trkpt>
      <trkpt lat="44.61584" lon="2.09793">
        <ele>350.54</ele>
        <time>2020-07-11T12:36:39Z</time>
      </trkpt>
      <trkpt lat="44.61567" lon="2.0977">
        <ele>351.02</ele>
        <time>2020-07-11T12:36:57Z</time>
      </trkpt>
      <trkpt lat="44.61553" lon="2.0975">
        <ele>351.5</ele>
        <time>2020-07-11T12:37:12Z</time>
      </trkpt>
      <trkpt lat="44.61532" lon="2.09719">
        <ele>352.94</ele>
        <time>2020-07-11T12:37:34Z</time>
      </trkpt>
      <trkpt lat="44.61523" lon="2.09706">
        <ele>353.42</ele>
        <time>2020-07-11T12:37:52Z</time>
      </trkpt>
      <trkpt lat="44.61515" lon="2.09697">
        <ele>353.42</ele>
        <time>2020-07-11T12:38:14Z</time>
      </trkpt>
      <trkpt lat="44.61508" lon="2.09689">
        <ele>354.86</ele>
        <time>2020-07-11T12:38:22Z</time>
      </trkpt>
      <trkpt lat="44.61488" lon="2.09662">
        <ele>355.83</ele>
        <time>2020-07-11T12:38:46Z</time>
      </trkpt>
      <trkpt lat="44.61485" lon="2.09654">
        <ele>355.83</ele>
        <time>2020-07-11T12:38:52Z</time>
      </trkpt>
      <trkpt lat="44.61476" lon="2.09628">
        <ele>357.75</ele>
        <time>2020-07-11T12:39:11Z</time>
      </trkpt>
      <trkpt lat="44.61472" lon="2.09599">
        <ele>358.71</ele>
        <time>2020-07-11T12:39:32Z</time>
      </trkpt>
      <trkpt lat="44.61474" lon="2.09571">
        <ele>360.15</ele>
        <time>2020-07-11T12:39:53Z</time>
      </trkpt>
      <trkpt lat="44.61475" lon="2.09539">
        <ele>361.59</ele>
        <time>2020-07-11T12:40:14Z</time>
      </trkpt>
      <trkpt lat="44.61477" lon="2.09505">
        <ele>362.55</ele>
        <time>2020-07-11T12:40:37Z</time>
      </trkpt>
      <trkpt lat="44.6148" lon="2.09471">
        <ele>363.04</ele>
        <time>2020-07-11T12:40:59Z</time>
      </trkpt>
      <trkpt lat="44.61483" lon="2.09446">
        <ele>364.48</ele>
        <time>2020-07-11T12:41:18Z</time>
      </trkpt>
      <trkpt lat="44.61484" lon="2.09416">
        <ele>365.44</ele>
        <time>2020-07-11T12:41:38Z</time>
      </trkpt>
      <trkpt lat="44.61487" lon="2.09386">
        <ele>365.44</ele>
        <time>2020-07-11T12:41:57Z</time>
      </trkpt>
      <trkpt lat="44.61489" lon="2.09353">
        <ele>366.88</ele>
        <time>2020-07-11T12:42:18Z</time>
      </trkpt>
      <trkpt lat="44.61493" lon="2.09317">
        <ele>367.36</ele>
        <time>2020-07-11T12:42:43Z</time>
      </trkpt>
      <trkpt lat="44.61496" lon="2.09282">
        <ele>368.8</ele>
        <time>2020-07-11T12:43:04Z</time>
      </trkpt>
      <trkpt lat="44.61501" lon="2.09245">
        <ele>369.76</ele>
        <time>2020-07-11T12:43:28Z</time>
      </trkpt>
      <trkpt lat="44.61502" lon="2.09218">
        <ele>369.76</ele>
        <time>2020-07-11T12:43:47Z</time>
      </trkpt>
      <trkpt lat="44.61503" lon="2.09202">
        <ele>370.73</ele>
        <time>2020-07-11T12:44:06Z</time>
      </trkpt>
      <trkpt lat="44.61509" lon="2.09175">
        <ele>371.21</ele>
        <time>2020-07-11T12:44:24Z</time>
      </trkpt>
      <trkpt lat="44.61509" lon="2.09141">
        <ele>372.17</ele>
        <time>2020-07-11T12:44:42Z</time>
      </trkpt>
      <trkpt lat="44.61511" lon="2.09121">
        <ele>372.17</ele>
        <time>2020-07-11T12:44:54Z</time>
      </trkpt>
      <trkpt lat="44.6151" lon="2.09108">
        <ele>373.61</ele>
        <time>2020-07-11T12:45:00Z</time>
      </trkpt>
      <trkpt lat="44.61508" lon="2.09086">
        <ele>373.61</ele>
        <time>2020-07-11T12:45:16Z</time>
      </trkpt>
      <trkpt lat="44.61512" lon="2.09081">
        <ele>374.09</ele>
        <time>2020-07-11T12:45:36Z</time>
      </trkpt>
      <trkpt lat="44.61514" lon="2.09063">
        <ele>374.09</ele>
        <time>2020-07-11T12:45:51Z</time>
      </trkpt>
      <trkpt lat="44.61517" lon="2.09032">
        <ele>375.53</ele>
        <time>2020-07-11T12:46:10Z</time>
      </trkpt>
      <trkpt lat="44.61511" lon="2.09002">
        <ele>376.97</ele>
        <time>2020-07-11T12:46:29Z</time>
      </trkpt>
      <trkpt lat="44.61498" lon="2.08975">
        <ele>377.45</ele>
        <time>2020-07-11T12:46:48Z</time>
      </trkpt>
      <trkpt lat="44.6148" lon="2.08951">
        <ele>379.38</ele>
        <time>2020-07-11T12:47:09Z</time>
      </trkpt>
      <trkpt lat="44.61471" lon="2.08935">
        <ele>379.86</ele>
        <time>2020-07-11T12:47:30Z</time>
      </trkpt>
      <trkpt lat="44.6147" lon="2.08926">
        <ele>380.34</ele>
        <time>2020-07-11T12:47:55Z</time>
      </trkpt>
      <trkpt lat="44.6146" lon="2.08916">
        <ele>381.78</ele>
        <time>2020-07-11T12:48:13Z</time>
      </trkpt>
      <trkpt lat="44.61455" lon="2.08911">
        <ele>382.26</ele>
        <time>2020-07-11T12:48:31Z</time>
      </trkpt>
      <trkpt lat="44.61456" lon="2.08912">
        <ele>382.74</ele>
        <time>2020-07-11T12:48:45Z</time>
      </trkpt>
      <trkpt lat="44.61456" lon="2.08912">
        <ele>382.74</ele>
        <time>2020-07-11T12:48:59Z</time>
      </trkpt>
      <trkpt lat="44.61456" lon="2.08912">
        <ele>383.22</ele>
        <time>2020-07-11T12:49:16Z</time>
      </trkpt>
      <trkpt lat="44.61452" lon="2.08907">
        <ele>383.22</ele>
        <time>2020-07-11T12:49:33Z</time>
      </trkpt>
      <trkpt lat="44.61442" lon="2.08894">
        <ele>382.26</ele>
        <time>2020-07-11T12:49:50Z</time>
      </trkpt>
      <trkpt lat="44.61429" lon="2.08869">
        <ele>381.78</ele>
        <time>2020-07-11T12:50:08Z</time>
      </trkpt>
      <trkpt lat="44.61423" lon="2.08845">
        <ele>379.86</ele>
        <time>2020-07-11T12:50:26Z</time>
      </trkpt>
      <trkpt lat="44.61419" lon="2.08827">
        <ele>379.86</ele>
        <time>2020-07-11T12:50:39Z</time>
      </trkpt>
      <trkpt lat="44.61418" lon="2.08823">
        <ele>379.86</ele>
        <time>2020-07-11T12:50:42Z</time>
      </trkpt>
      <trkpt lat="44.61413" lon="2.08789">
        <ele>378.9</ele>
        <time>2020-07-11T12:51:03Z</time>
      </trkpt>
      <trkpt lat="44.61408" lon="2.08757">
        <ele>378.9</ele>
        <time>2020-07-11T12:51:22Z</time>
      </trkpt>
      <trkpt lat="44.61403" lon="2.08737">
        <ele>378.42</ele>
        <time>2020-07-11T12:51:36Z</time>
      </trkpt>
      <trkpt lat="44.61392" lon="2.08703">
        <ele>379.38</ele>
        <time>2020-07-11T12:51:56Z</time>
      </trkpt>
      <trkpt lat="44.61376" lon="2.08702">
        <ele>379.86</ele>
        <time>2020-07-11T12:52:10Z</time>
      </trkpt>
      <trkpt lat="44.6137" lon="2.08705">
        <ele>377.94</ele>
        <time>2020-07-11T12:52:16Z</time>
      </trkpt>
      <trkpt lat="44.61365" lon="2.08708">
        <ele>379.38</ele>
        <time>2020-07-11T12:52:20Z</time>
      </trkpt>
      <trkpt lat="44.61361" lon="2.08711">
        <ele>377.94</ele>
        <time>2020-07-11T12:52:23Z</time>
      </trkpt>
      <trkpt lat="44.61339" lon="2.08725">
        <ele>378.9</ele>
        <time>2020-07-11T12:52:44Z</time>
      </trkpt>
      <trkpt lat="44.61321" lon="2.08732">
        <ele>377.94</ele>
        <time>2020-07-11T12:53:00Z</time>
      </trkpt>
      <trkpt lat="44.61315" lon="2.08725">
        <ele>379.38</ele>
        <time>2020-07-11T12:53:12Z</time>
      </trkpt>
      <trkpt lat="44.61305" lon="2.08708">
        <ele>381.3</ele>
        <time>2020-07-11T12:53:32Z</time>
      </trkpt>
      <trkpt lat="44.61301" lon="2.08697">
        <ele>383.22</ele>
        <time>2020-07-11T12:53:41Z</time>
      </trkpt>
      <trkpt lat="44.61299" lon="2.08695">
        <ele>381.78</ele>
        <time>2020-07-11T12:53:47Z</time>
      </trkpt>
      <trkpt lat="44.61284" lon="2.08695">
        <ele>379.86</ele>
        <time>2020-07-11T12:54:07Z</time>
      </trkpt>
      <trkpt lat="44.61261" lon="2.08694">
        <ele>378.9</ele>
        <time>2020-07-11T12:54:29Z</time>
      </trkpt>
      <trkpt lat="44.61231" lon="2.08692">
        <ele>377.45</ele>
        <time>2020-07-11T12:54:55Z</time>
      </trkpt>
      <trkpt lat="44.61205" lon="2.08687">
        <ele>376.01</ele>
        <time>2020-07-11T12:55:17Z</time>
      </trkpt>
      <trkpt lat="44.6118" lon="2.08678">
        <ele>373.61</ele>
        <time>2020-07-11T12:55:41Z</time>
      </trkpt>
      <trkpt lat="44.6116" lon="2.08668">
        <ele>370.24</ele>
        <time>2020-07-11T12:56:03Z</time>
      </trkpt>
      <trkpt lat="44.61171" lon="2.08649">
        <ele>370.24</ele>
        <time>2020-07-11T12:56:22Z</time>
      </trkpt>
      <trkpt lat="44.61174" lon="2.08643">
        <ele>371.69</ele>
        <time>2020-07-11T12:56:27Z</time>
      </trkpt>
      <trkpt lat="44.61187" lon="2.08625">
        <ele>371.69</ele>
        <time>2020-07-11T12:56:45Z</time>
      </trkpt>
      <trkpt lat="44.61202" lon="2.08598">
        <ele>372.17</ele>
        <time>2020-07-11T12:57:09Z</time>
      </trkpt>
      <trkpt lat="44.61215" lon="2.0857">
        <ele>372.65</ele>
        <time>2020-07-11T12:57:27Z</time>
      </trkpt>
      <trkpt lat="44.61212" lon="2.08538">
        <ele>373.61</ele>
        <time>2020-07-11T12:57:48Z</time>
      </trkpt>
      <trkpt lat="44.61204" lon="2.08526">
        <ele>375.05</ele>
        <time>2020-07-11T12:58:05Z</time>
      </trkpt>
      <trkpt lat="44.61203" lon="2.08527">
        <ele>375.53</ele>
        <time>2020-07-11T12:58:29Z</time>
      </trkpt>
      <trkpt lat="44.612" lon="2.08529">
        <ele>375.53</ele>
        <time>2020-07-11T12:59:00Z</time>
      </trkpt>
      <trkpt lat="44.61204" lon="2.08526">
        <ele>374.57</ele>
        <time>2020-07-11T12:59:14Z</time>
      </trkpt>
      <trkpt lat="44.61202" lon="2.08527">
        <ele>375.53</ele>
        <time>2020-07-11T12:59:39Z</time>
      </trkpt>
      <trkpt lat="44.61204" lon="2.08522">
        <ele>375.53</ele>
        <time>2020-07-11T13:00:01Z</time>
      </trkpt>
      <trkpt lat="44.61201" lon="2.08524">
        <ele>376.01</ele>
        <time>2020-07-11T13:00:26Z</time>
      </trkpt>
      <trkpt lat="44.6121" lon="2.08521">
        <ele>376.97</ele>
        <time>2020-07-11T13:02:52Z</time>
      </trkpt>
      <trkpt lat="44.61203" lon="2.08525">
        <ele>376.97</ele>
        <time>2020-07-11T13:03:17Z</time>
      </trkpt>
      <trkpt lat="44.61201" lon="2.08525">
        <ele>376.97</ele>
        <time>2020-07-11T13:03:50Z</time>
      </trkpt>
      <trkpt lat="44.61204" lon="2.08525">
        <ele>376.97</ele>
        <time>2020-07-11T13:04:19Z</time>
      </trkpt>
      <trkpt lat="44.61203" lon="2.08528">
        <ele>376.97</ele>
        <time>2020-07-11T13:04:57Z</time>
      </trkpt>
      <trkpt lat="44.61202" lon="2.08524">
        <ele>376.97</ele>
        <time>2020-07-11T13:05:40Z</time>
      </trkpt>
      <trkpt lat="44.61203" lon="2.08523">
        <ele>376.97</ele>
        <time>2020-07-11T13:06:14Z</time>
      </trkpt>
      <trkpt lat="44.61202" lon="2.08523">
        <ele>376.97</ele>
        <time>2020-07-11T13:06:44Z</time>
      </trkpt>
      <trkpt lat="44.61202" lon="2.08529">
        <ele>376.97</ele>
        <time>2020-07-11T13:07:10Z</time>
      </trkpt>
      <trkpt lat="44.61202" lon="2.08528">
        <ele>376.97</ele>
        <time>2020-07-11T13:07:48Z</time>
      </trkpt>
      <trkpt lat="44.61206" lon="2.08521">
        <ele>376.97</ele>
        <time>2020-07-11T13:08:17Z</time>
      </trkpt>
      <trkpt lat="44.61202" lon="2.08528">
        <ele>376.97</ele>
        <time>2020-07-11T13:08:41Z</time>
      </trkpt>
      <trkpt lat="44.612" lon="2.08529">
        <ele>376.97</ele>
        <time>2020-07-11T13:09:06Z</time>
      </trkpt>
      <trkpt lat="44.61203" lon="2.08527">
        <ele>376.97</ele>
        <time>2020-07-11T13:09:31Z</time>
      </trkpt>
      <trkpt lat="44.61201" lon="2.08535">
        <ele>376.97</ele>
        <time>2020-07-11T13:09:58Z</time>
      </trkpt>
      <trkpt lat="44.61205" lon="2.08524">
        <ele>376.97</ele>
        <time>2020-07-11T13:10:18Z</time>
      </trkpt>
      <trkpt lat="44.61209" lon="2.08519">
        <ele>377.45</ele>
        <time>2020-07-11T13:10:43Z</time>
      </trkpt>
      <trkpt lat="44.61205" lon="2.08523">
        <ele>377.45</ele>
        <time>2020-07-11T13:11:07Z</time>
      </trkpt>
      <trkpt lat="44.61208" lon="2.08522">
        <ele>377.45</ele>
        <time>2020-07-11T13:11:35Z</time>
      </trkpt>
      <trkpt lat="44.61207" lon="2.08518">
        <ele>377.45</ele>
        <time>2020-07-11T13:11:54Z</time>
      </trkpt>
      <trkpt lat="44.61213" lon="2.08528">
        <ele>377.45</ele>
        <time>2020-07-11T13:12:17Z</time>
      </trkpt>
      <trkpt lat="44.61209" lon="2.08529">
        <ele>377.45</ele>
        <time>2020-07-11T13:12:46Z</time>
      </trkpt>
      <trkpt lat="44.61203" lon="2.08525">
        <ele>377.45</ele>
        <time>2020-07-11T13:13:07Z</time>
      </trkpt>
      <trkpt lat="44.61203" lon="2.08523">
        <ele>377.94</ele>
        <time>2020-07-11T13:13:28Z</time>
      </trkpt>
      <trkpt lat="44.61203" lon="2.08525">
        <ele>377.94</ele>
        <time>2020-07-11T13:13:59Z</time>
      </trkpt>
      <trkpt lat="44.61204" lon="2.08524">
        <ele>377.94</ele>
        <time>2020-07-11T13:14:23Z</time>
      </trkpt>
      <trkpt lat="44.61203" lon="2.08523">
        <ele>378.42</ele>
        <time>2020-07-11T13:14:53Z</time>
      </trkpt>
      <trkpt lat="44.612" lon="2.08518">
        <ele>378.42</ele>
        <time>2020-07-11T13:15:17Z</time>
      </trkpt>
      <trkpt lat="44.61195" lon="2.085">
        <ele>379.38</ele>
        <time>2020-07-11T13:15:37Z</time>
      </trkpt>
      <trkpt lat="44.61194" lon="2.08478">
        <ele>380.82</ele>
        <time>2020-07-11T13:15:56Z</time>
      </trkpt>
      <trkpt lat="44.61193" lon="2.08448">
        <ele>381.3</ele>
        <time>2020-07-11T13:16:17Z</time>
      </trkpt>
      <trkpt lat="44.61195" lon="2.0842">
        <ele>381.78</ele>
        <time>2020-07-11T13:16:36Z</time>
      </trkpt>
      <trkpt lat="44.61198" lon="2.08399">
        <ele>380.34</ele>
        <time>2020-07-11T13:16:49Z</time>
      </trkpt>
      <trkpt lat="44.61201" lon="2.08369">
        <ele>379.86</ele>
        <time>2020-07-11T13:17:09Z</time>
      </trkpt>
      <trkpt lat="44.61204" lon="2.08335">
        <ele>379.38</ele>
        <time>2020-07-11T13:17:29Z</time>
      </trkpt>
      <trkpt lat="44.6121" lon="2.08298">
        <ele>378.42</ele>
        <time>2020-07-11T13:17:51Z</time>
      </trkpt>
      <trkpt lat="44.61211" lon="2.08291">
        <ele>376.97</ele>
        <time>2020-07-11T13:17:55Z</time>
      </trkpt>
      <trkpt lat="44.61219" lon="2.08255">
        <ele>376.97</ele>
        <time>2020-07-11T13:18:15Z</time>
      </trkpt>
      <trkpt lat="44.61219" lon="2.08254">
        <ele>376.49</ele>
        <time>2020-07-11T13:18:16Z</time>
      </trkpt>
      <trkpt lat="44.61226" lon="2.08227">
        <ele>376.49</ele>
        <time>2020-07-11T13:18:35Z</time>
      </trkpt>
      <trkpt lat="44.61231" lon="2.08206">
        <ele>375.05</ele>
        <time>2020-07-11T13:18:48Z</time>
      </trkpt>
      <trkpt lat="44.61224" lon="2.08169">
        <ele>373.13</ele>
        <time>2020-07-11T13:19:11Z</time>
      </trkpt>
      <trkpt lat="44.61211" lon="2.08135">
        <ele>373.13</ele>
        <time>2020-07-11T13:19:32Z</time>
      </trkpt>
      <trkpt lat="44.61196" lon="2.08107">
        <ele>372.17</ele>
        <time>2020-07-11T13:19:51Z</time>
      </trkpt>
      <trkpt lat="44.61176" lon="2.0808">
        <ele>372.17</ele>
        <time>2020-07-11T13:20:10Z</time>
      </trkpt>
      <trkpt lat="44.61162" lon="2.08053">
        <ele>373.61</ele>
        <time>2020-07-11T13:20:31Z</time>
      </trkpt>
      <trkpt lat="44.61147" lon="2.08031">
        <ele>374.09</ele>
        <time>2020-07-11T13:20:51Z</time>
      </trkpt>
      <trkpt lat="44.61138" lon="2.08005">
        <ele>375.53</ele>
        <time>2020-07-11T13:21:09Z</time>
      </trkpt>
      <trkpt lat="44.61132" lon="2.07972">
        <ele>377.45</ele>
        <time>2020-07-11T13:21:29Z</time>
      </trkpt>
      <trkpt lat="44.61131" lon="2.07957">
        <ele>378.9</ele>
        <time>2020-07-11T13:21:48Z</time>
      </trkpt>
      <trkpt lat="44.61138" lon="2.07946">
        <ele>379.86</ele>
        <time>2020-07-11T13:22:03Z</time>
      </trkpt>
      <trkpt lat="44.61155" lon="2.07942">
        <ele>379.86</ele>
        <time>2020-07-11T13:22:20Z</time>
      </trkpt>
      <trkpt lat="44.61156" lon="2.07942">
        <ele>380.34</ele>
        <time>2020-07-11T13:22:32Z</time>
      </trkpt>
      <trkpt lat="44.61159" lon="2.07941">
        <ele>380.34</ele>
        <time>2020-07-11T13:22:45Z</time>
      </trkpt>
      <trkpt lat="44.61159" lon="2.07941">
        <ele>380.34</ele>
        <time>2020-07-11T13:23:03Z</time>
      </trkpt>
      <trkpt lat="44.61159" lon="2.07941">
        <ele>380.34</ele>
        <time>2020-07-11T13:23:04Z</time>
      </trkpt>
      <trkpt lat="44.61161" lon="2.0794">
        <ele>380.34</ele>
        <time>2020-07-11T13:23:07Z</time>
      </trkpt>
      <trkpt lat="44.61168" lon="2.07938">
        <ele>380.34</ele>
        <time>2020-07-11T13:23:13Z</time>
      </trkpt>
      <trkpt lat="44.61192" lon="2.0793">
        <ele>380.34</ele>
        <time>2020-07-11T13:23:35Z</time>
      </trkpt>
      <trkpt lat="44.61217" lon="2.07921">
        <ele>380.82</ele>
        <time>2020-07-11T13:23:57Z</time>
      </trkpt>
      <trkpt lat="44.61236" lon="2.07912">
        <ele>381.3</ele>
        <time>2020-07-11T13:24:15Z</time>
      </trkpt>
      <trkpt lat="44.61234" lon="2.07898">
        <ele>381.3</ele>
        <time>2020-07-11T13:24:30Z</time>
      </trkpt>
      <trkpt lat="44.61226" lon="2.07888">
        <ele>381.3</ele>
        <time>2020-07-11T13:24:47Z</time>
      </trkpt>
      <trkpt lat="44.61212" lon="2.07875">
        <ele>381.78</ele>
        <time>2020-07-11T13:25:04Z</time>
      </trkpt>
      <trkpt lat="44.61193" lon="2.07857">
        <ele>381.78</ele>
        <time>2020-07-11T13:25:23Z</time>
      </trkpt>
      <trkpt lat="44.61183" lon="2.07848">
        <ele>379.86</ele>
        <time>2020-07-11T13:25:35Z</time>
      </trkpt>
      <trkpt lat="44.61174" lon="2.07835">
        <ele>379.86</ele>
        <time>2020-07-11T13:25:46Z</time>
      </trkpt>
      <trkpt lat="44.61157" lon="2.07809">
        <ele>378.9</ele>
        <time>2020-07-11T13:26:06Z</time>
      </trkpt>
      <trkpt lat="44.61141" lon="2.07784">
        <ele>378.42</ele>
        <time>2020-07-11T13:26:26Z</time>
      </trkpt>
      <trkpt lat="44.61124" lon="2.07758">
        <ele>377.94</ele>
        <time>2020-07-11T13:26:47Z</time>
      </trkpt>
      <trkpt lat="44.61118" lon="2.07748">
        <ele>378.42</ele>
        <time>2020-07-11T13:26:54Z</time>
      </trkpt>
      <trkpt lat="44.6111" lon="2.07739">
        <ele>377.45</ele>
        <time>2020-07-11T13:27:03Z</time>
      </trkpt>
      <trkpt lat="44.61098" lon="2.0772">
        <ele>377.45</ele>
        <time>2020-07-11T13:27:19Z</time>
      </trkpt>
      <trkpt lat="44.61096" lon="2.07715">
        <ele>377.45</ele>
        <time>2020-07-11T13:27:33Z</time>
      </trkpt>
      <trkpt lat="44.6109" lon="2.07712">
        <ele>377.45</ele>
        <time>2020-07-11T13:27:44Z</time>
      </trkpt>
      <trkpt lat="44.6109" lon="2.07711">
        <ele>377.45</ele>
        <time>2020-07-11T13:27:47Z</time>
      </trkpt>
      <trkpt lat="44.61077" lon="2.07693">
        <ele>376.97</ele>
        <time>2020-07-11T13:28:06Z</time>
      </trkpt>
      <trkpt lat="44.61067" lon="2.0768">
        <ele>376.01</ele>
        <time>2020-07-11T13:28:22Z</time>
      </trkpt>
      <trkpt lat="44.61052" lon="2.0766">
        <ele>376.01</ele>
        <time>2020-07-11T13:28:41Z</time>
      </trkpt>
      <trkpt lat="44.61042" lon="2.07642">
        <ele>375.05</ele>
        <time>2020-07-11T13:29:00Z</time>
      </trkpt>
      <trkpt lat="44.61038" lon="2.07618">
        <ele>375.05</ele>
        <time>2020-07-11T13:29:17Z</time>
      </trkpt>
      <trkpt lat="44.61035" lon="2.07604">
        <ele>375.05</ele>
        <time>2020-07-11T13:29:33Z</time>
      </trkpt>
      <trkpt lat="44.61036" lon="2.07592">
        <ele>374.57</ele>
        <time>2020-07-11T13:29:47Z</time>
      </trkpt>
      <trkpt lat="44.61039" lon="2.07568">
        <ele>373.13</ele>
        <time>2020-07-11T13:30:05Z</time>
      </trkpt>
      <trkpt lat="44.61042" lon="2.07537">
        <ele>371.21</ele>
        <time>2020-07-11T13:30:26Z</time>
      </trkpt>
      <trkpt lat="44.61037" lon="2.07509">
        <ele>370.73</ele>
        <time>2020-07-11T13:30:44Z</time>
      </trkpt>
      <trkpt lat="44.61033" lon="2.07489">
        <ele>369.28</ele>
        <time>2020-07-11T13:31:03Z</time>
      </trkpt>
      <trkpt lat="44.6103" lon="2.07468">
        <ele>368.8</ele>
        <time>2020-07-11T13:31:18Z</time>
      </trkpt>
      <trkpt lat="44.61027" lon="2.07437">
        <ele>366.88</ele>
        <time>2020-07-11T13:31:38Z</time>
      </trkpt>
      <trkpt lat="44.61025" lon="2.07406">
        <ele>366.4</ele>
        <time>2020-07-11T13:31:59Z</time>
      </trkpt>
      <trkpt lat="44.61022" lon="2.07375">
        <ele>364.96</ele>
        <time>2020-07-11T13:32:17Z</time>
      </trkpt>
      <trkpt lat="44.61017" lon="2.07334">
        <ele>364.96</ele>
        <time>2020-07-11T13:32:41Z</time>
      </trkpt>
      <trkpt lat="44.61013" lon="2.07299">
        <ele>364.48</ele>
        <time>2020-07-11T13:33:02Z</time>
      </trkpt>
      <trkpt lat="44.61008" lon="2.07282">
        <ele>364.48</ele>
        <time>2020-07-11T13:33:19Z</time>
      </trkpt>
      <trkpt lat="44.61006" lon="2.07273">
        <ele>364</ele>
        <time>2020-07-11T13:33:35Z</time>
      </trkpt>
      <trkpt lat="44.61003" lon="2.07272">
        <ele>363.52</ele>
        <time>2020-07-11T13:34:07Z</time>
      </trkpt>
      <trkpt lat="44.61004" lon="2.07272">
        <ele>363.52</ele>
        <time>2020-07-11T13:34:35Z</time>
      </trkpt>
      <trkpt lat="44.61004" lon="2.07273">
        <ele>363.52</ele>
        <time>2020-07-11T13:35:00Z</time>
      </trkpt>
      <trkpt lat="44.61006" lon="2.0727">
        <ele>364.96</ele>
        <time>2020-07-11T13:35:06Z</time>
      </trkpt>
      <trkpt lat="44.61006" lon="2.07266">
        <ele>363.52</ele>
        <time>2020-07-11T13:35:13Z</time>
      </trkpt>
      <trkpt lat="44.61007" lon="2.07238">
        <ele>364</ele>
        <time>2020-07-11T13:35:30Z</time>
      </trkpt>
      <trkpt lat="44.61013" lon="2.07218">
        <ele>363.52</ele>
        <time>2020-07-11T13:35:43Z</time>
      </trkpt>
      <trkpt lat="44.61019" lon="2.0721">
        <ele>365.44</ele>
        <time>2020-07-11T13:35:49Z</time>
      </trkpt>
      <trkpt lat="44.61023" lon="2.07202">
        <ele>364</ele>
        <time>2020-07-11T13:35:55Z</time>
      </trkpt>
      <trkpt lat="44.61035" lon="2.07174">
        <ele>363.04</ele>
        <time>2020-07-11T13:36:13Z</time>
      </trkpt>
      <trkpt lat="44.61038" lon="2.07166">
        <ele>364.48</ele>
        <time>2020-07-11T13:36:18Z</time>
      </trkpt>
      <trkpt lat="44.61044" lon="2.0715">
        <ele>363.04</ele>
        <time>2020-07-11T13:36:27Z</time>
      </trkpt>
      <trkpt lat="44.61046" lon="2.07142">
        <ele>363.52</ele>
        <time>2020-07-11T13:36:32Z</time>
      </trkpt>
      <trkpt lat="44.61046" lon="2.07138">
        <ele>362.55</ele>
        <time>2020-07-11T13:36:34Z</time>
      </trkpt>
      <trkpt lat="44.61051" lon="2.0711">
        <ele>362.07</ele>
        <time>2020-07-11T13:36:51Z</time>
      </trkpt>
      <trkpt lat="44.61055" lon="2.07092">
        <ele>362.07</ele>
        <time>2020-07-11T13:37:07Z</time>
      </trkpt>
      <trkpt lat="44.61059" lon="2.07065">
        <ele>360.63</ele>
        <time>2020-07-11T13:37:25Z</time>
      </trkpt>
      <trkpt lat="44.6106" lon="2.0706">
        <ele>362.07</ele>
        <time>2020-07-11T13:37:28Z</time>
      </trkpt>
      <trkpt lat="44.61061" lon="2.07044">
        <ele>360.63</ele>
        <time>2020-07-11T13:37:37Z</time>
      </trkpt>
      <trkpt lat="44.61063" lon="2.07015">
        <ele>358.23</ele>
        <time>2020-07-11T13:37:55Z</time>
      </trkpt>
      <trkpt lat="44.61065" lon="2.0699">
        <ele>356.79</ele>
        <time>2020-07-11T13:38:10Z</time>
      </trkpt>
      <trkpt lat="44.61069" lon="2.06956">
        <ele>354.38</ele>
        <time>2020-07-11T13:38:30Z</time>
      </trkpt>
      <trkpt lat="44.6107" lon="2.06947">
        <ele>353.42</ele>
        <time>2020-07-11T13:38:37Z</time>
      </trkpt>
      <trkpt lat="44.61072" lon="2.0692">
        <ele>352.46</ele>
        <time>2020-07-11T13:38:55Z</time>
      </trkpt>
      <trkpt lat="44.61073" lon="2.06892">
        <ele>349.58</ele>
        <time>2020-07-11T13:39:12Z</time>
      </trkpt>
      <trkpt lat="44.61076" lon="2.0687">
        <ele>346.69</ele>
        <time>2020-07-11T13:39:29Z</time>
      </trkpt>
      <trkpt lat="44.61077" lon="2.06858">
        <ele>346.21</ele>
        <time>2020-07-11T13:39:38Z</time>
      </trkpt>
      <trkpt lat="44.61082" lon="2.06828">
        <ele>343.33</ele>
        <time>2020-07-11T13:39:56Z</time>
      </trkpt>
      <trkpt lat="44.61084" lon="2.06795">
        <ele>341.41</ele>
        <time>2020-07-11T13:40:18Z</time>
      </trkpt>
      <trkpt lat="44.61087" lon="2.06762">
        <ele>339.96</ele>
        <time>2020-07-11T13:40:38Z</time>
      </trkpt>
      <trkpt lat="44.61088" lon="2.06733">
        <ele>339.96</ele>
        <time>2020-07-11T13:40:56Z</time>
      </trkpt>
      <trkpt lat="44.61088" lon="2.06723">
        <ele>338.52</ele>
        <time>2020-07-11T13:41:02Z</time>
      </trkpt>
      <trkpt lat="44.6109" lon="2.06691">
        <ele>338.04</ele>
        <time>2020-07-11T13:41:20Z</time>
      </trkpt>
      <trkpt lat="44.61091" lon="2.06681">
        <ele>338.04</ele>
        <time>2020-07-11T13:41:27Z</time>
      </trkpt>
      <trkpt lat="44.61092" lon="2.06672">
        <ele>338.04</ele>
        <time>2020-07-11T13:41:41Z</time>
      </trkpt>
      <trkpt lat="44.61092" lon="2.0667">
        <ele>338.52</ele>
        <time>2020-07-11T13:41:59Z</time>
      </trkpt>
      <trkpt lat="44.61092" lon="2.06652">
        <ele>338.04</ele>
        <time>2020-07-11T13:42:11Z</time>
      </trkpt>
      <trkpt lat="44.61093" lon="2.06619">
        <ele>336.12</ele>
        <time>2020-07-11T13:42:30Z</time>
      </trkpt>
      <trkpt lat="44.61094" lon="2.06594">
        <ele>336.6</ele>
        <time>2020-07-11T13:42:45Z</time>
      </trkpt>
      <trkpt lat="44.61094" lon="2.0656">
        <ele>334.68</ele>
        <time>2020-07-11T13:43:05Z</time>
      </trkpt>
      <trkpt lat="44.61094" lon="2.06523">
        <ele>335.16</ele>
        <time>2020-07-11T13:43:26Z</time>
      </trkpt>
      <trkpt lat="44.61094" lon="2.0652">
        <ele>333.23</ele>
        <time>2020-07-11T13:43:28Z</time>
      </trkpt>
      <trkpt lat="44.61094" lon="2.06487">
        <ele>332.75</ele>
        <time>2020-07-11T13:43:46Z</time>
      </trkpt>
      <trkpt lat="44.61092" lon="2.06461">
        <ele>331.31</ele>
        <time>2020-07-11T13:44:01Z</time>
      </trkpt>
      <trkpt lat="44.61092" lon="2.06458">
        <ele>332.75</ele>
        <time>2020-07-11T13:44:03Z</time>
      </trkpt>
      <trkpt lat="44.61091" lon="2.06453">
        <ele>331.31</ele>
        <time>2020-07-11T13:44:06Z</time>
      </trkpt>
      <trkpt lat="44.61086" lon="2.06422">
        <ele>329.39</ele>
        <time>2020-07-11T13:44:26Z</time>
      </trkpt>
      <trkpt lat="44.61083" lon="2.06401">
        <ele>328.91</ele>
        <time>2020-07-11T13:44:44Z</time>
      </trkpt>
      <trkpt lat="44.61082" lon="2.06402">
        <ele>328.43</ele>
        <time>2020-07-11T13:45:06Z</time>
      </trkpt>
      <trkpt lat="44.61082" lon="2.06401">
        <ele>327.95</ele>
        <time>2020-07-11T13:45:35Z</time>
      </trkpt>
      <trkpt lat="44.61082" lon="2.064">
        <ele>327.95</ele>
        <time>2020-07-11T13:45:39Z</time>
      </trkpt>
      <trkpt lat="44.61078" lon="2.06385">
        <ele>326.99</ele>
        <time>2020-07-11T13:45:50Z</time>
      </trkpt>
      <trkpt lat="44.61073" lon="2.06357">
        <ele>325.54</ele>
        <time>2020-07-11T13:46:09Z</time>
      </trkpt>
      <trkpt lat="44.61065" lon="2.06327">
        <ele>324.58</ele>
        <time>2020-07-11T13:46:28Z</time>
      </trkpt>
      <trkpt lat="44.61064" lon="2.06323">
        <ele>322.66</ele>
        <time>2020-07-11T13:46:30Z</time>
      </trkpt>
      <trkpt lat="44.61062" lon="2.06294">
        <ele>321.7</ele>
        <time>2020-07-11T13:46:48Z</time>
      </trkpt>
      <trkpt lat="44.61061" lon="2.06281">
        <ele>320.26</ele>
        <time>2020-07-11T13:46:56Z</time>
      </trkpt>
      <trkpt lat="44.61057" lon="2.06253">
        <ele>318.81</ele>
        <time>2020-07-11T13:47:14Z</time>
      </trkpt>
      <trkpt lat="44.61056" lon="2.06223">
        <ele>317.85</ele>
        <time>2020-07-11T13:47:34Z</time>
      </trkpt>
      <trkpt lat="44.61054" lon="2.06215">
        <ele>316.41</ele>
        <time>2020-07-11T13:47:39Z</time>
      </trkpt>
      <trkpt lat="44.61048" lon="2.06184">
        <ele>314.49</ele>
        <time>2020-07-11T13:47:59Z</time>
      </trkpt>
      <trkpt lat="44.61043" lon="2.06158">
        <ele>314.49</ele>
        <time>2020-07-11T13:48:16Z</time>
      </trkpt>
      <trkpt lat="44.61041" lon="2.06147">
        <ele>312.57</ele>
        <time>2020-07-11T13:48:22Z</time>
      </trkpt>
      <trkpt lat="44.61038" lon="2.06122">
        <ele>313.05</ele>
        <time>2020-07-11T13:48:37Z</time>
      </trkpt>
      <trkpt lat="44.61038" lon="2.06119">
        <ele>311.6</ele>
        <time>2020-07-11T13:48:39Z</time>
      </trkpt>
      <trkpt lat="44.61039" lon="2.06103">
        <ele>312.57</ele>
        <time>2020-07-11T13:48:49Z</time>
      </trkpt>
      <trkpt lat="44.6104" lon="2.06101">
        <ele>310.64</ele>
        <time>2020-07-11T13:48:50Z</time>
      </trkpt>
      <trkpt lat="44.61042" lon="2.0608">
        <ele>309.68</ele>
        <time>2020-07-11T13:49:08Z</time>
      </trkpt>
      <trkpt lat="44.61047" lon="2.06061">
        <ele>309.2</ele>
        <time>2020-07-11T13:49:24Z</time>
      </trkpt>
      <trkpt lat="44.61052" lon="2.06033">
        <ele>308.72</ele>
        <time>2020-07-11T13:49:41Z</time>
      </trkpt>
      <trkpt lat="44.61052" lon="2.06026">
        <ele>307.28</ele>
        <time>2020-07-11T13:49:45Z</time>
      </trkpt>
      <trkpt lat="44.61057" lon="2.0599">
        <ele>306.8</ele>
        <time>2020-07-11T13:50:06Z</time>
      </trkpt>
      <trkpt lat="44.61062" lon="2.05969">
        <ele>305.36</ele>
        <time>2020-07-11T13:50:24Z</time>
      </trkpt>
      <trkpt lat="44.61063" lon="2.05939">
        <ele>303.43</ele>
        <time>2020-07-11T13:50:42Z</time>
      </trkpt>
      <trkpt lat="44.61066" lon="2.05908">
        <ele>302.47</ele>
        <time>2020-07-11T13:51:00Z</time>
      </trkpt>
      <trkpt lat="44.61069" lon="2.05882">
        <ele>302.95</ele>
        <time>2020-07-11T13:51:15Z</time>
      </trkpt>
      <trkpt lat="44.61069" lon="2.0587">
        <ele>301.51</ele>
        <time>2020-07-11T13:51:22Z</time>
      </trkpt>
      <trkpt lat="44.61068" lon="2.05858">
        <ele>300.07</ele>
        <time>2020-07-11T13:51:29Z</time>
      </trkpt>
      <trkpt lat="44.61068" lon="2.05854">
        <ele>301.99</ele>
        <time>2020-07-11T13:51:32Z</time>
      </trkpt>
      <trkpt lat="44.61067" lon="2.05848">
        <ele>300.07</ele>
        <time>2020-07-11T13:51:36Z</time>
      </trkpt>
      <trkpt lat="44.61067" lon="2.05844">
        <ele>301.99</ele>
        <time>2020-07-11T13:51:38Z</time>
      </trkpt>
      <trkpt lat="44.61071" lon="2.05834">
        <ele>300.55</ele>
        <time>2020-07-11T13:51:45Z</time>
      </trkpt>
      <trkpt lat="44.61075" lon="2.0583">
        <ele>300.07</ele>
        <time>2020-07-11T13:52:06Z</time>
      </trkpt>
      <trkpt lat="44.61073" lon="2.0583">
        <ele>300.07</ele>
        <time>2020-07-11T13:52:34Z</time>
      </trkpt>
      <trkpt lat="44.61076" lon="2.05832">
        <ele>300.07</ele>
        <time>2020-07-11T13:53:05Z</time>
      </trkpt>
      <trkpt lat="44.61077" lon="2.05831">
        <ele>299.59</ele>
        <time>2020-07-11T13:53:33Z</time>
      </trkpt>
      <trkpt lat="44.61076" lon="2.05829">
        <ele>299.59</ele>
        <time>2020-07-11T13:54:02Z</time>
      </trkpt>
      <trkpt lat="44.61076" lon="2.05833">
        <ele>299.59</ele>
        <time>2020-07-11T13:54:33Z</time>
      </trkpt>
      <trkpt lat="44.61075" lon="2.05831">
        <ele>299.59</ele>
        <time>2020-07-11T13:55:02Z</time>
      </trkpt>
      <trkpt lat="44.61073" lon="2.05831">
        <ele>299.11</ele>
        <time>2020-07-11T13:55:31Z</time>
      </trkpt>
      <trkpt lat="44.61072" lon="2.05828">
        <ele>299.11</ele>
        <time>2020-07-11T13:55:58Z</time>
      </trkpt>
      <trkpt lat="44.61074" lon="2.05828">
        <ele>299.11</ele>
        <time>2020-07-11T13:56:21Z</time>
      </trkpt>
      <trkpt lat="44.61076" lon="2.0583">
        <ele>299.59</ele>
        <time>2020-07-11T13:56:54Z</time>
      </trkpt>
      <trkpt lat="44.61076" lon="2.05828">
        <ele>299.59</ele>
        <time>2020-07-11T13:57:33Z</time>
      </trkpt>
      <trkpt lat="44.61075" lon="2.05831">
        <ele>299.59</ele>
        <time>2020-07-11T13:58:04Z</time>
      </trkpt>
      <trkpt lat="44.6107" lon="2.05828">
        <ele>299.59</ele>
        <time>2020-07-11T13:58:19Z</time>
      </trkpt>
      <trkpt lat="44.61066" lon="2.05811">
        <ele>298.15</ele>
        <time>2020-07-11T13:58:35Z</time>
      </trkpt>
      <trkpt lat="44.61065" lon="2.05791">
        <ele>296.7</ele>
        <time>2020-07-11T13:58:54Z</time>
      </trkpt>
      <trkpt lat="44.61062" lon="2.05769">
        <ele>293.82</ele>
        <time>2020-07-11T13:59:12Z</time>
      </trkpt>
      <trkpt lat="44.61058" lon="2.05759">
        <ele>292.38</ele>
        <time>2020-07-11T13:59:22Z</time>
      </trkpt>
      <trkpt lat="44.61054" lon="2.05737">
        <ele>289.01</ele>
        <time>2020-07-11T13:59:41Z</time>
      </trkpt>
      <trkpt lat="44.61048" lon="2.05715">
        <ele>285.65</ele>
        <time>2020-07-11T13:59:58Z</time>
      </trkpt>
      <trkpt lat="44.61044" lon="2.05693">
        <ele>283.25</ele>
        <time>2020-07-11T14:00:14Z</time>
      </trkpt>
      <trkpt lat="44.61044" lon="2.05673">
        <ele>280.36</ele>
        <time>2020-07-11T14:00:32Z</time>
      </trkpt>
      <trkpt lat="44.61045" lon="2.05674">
        <ele>281.8</ele>
        <time>2020-07-11T14:00:40Z</time>
      </trkpt>
      <trkpt lat="44.61043" lon="2.05657">
        <ele>279.88</ele>
        <time>2020-07-11T14:00:53Z</time>
      </trkpt>
      <trkpt lat="44.61042" lon="2.05639">
        <ele>278.92</ele>
        <time>2020-07-11T14:01:05Z</time>
      </trkpt>
      <trkpt lat="44.61043" lon="2.05614">
        <ele>277.48</ele>
        <time>2020-07-11T14:01:22Z</time>
      </trkpt>
      <trkpt lat="44.61041" lon="2.05593">
        <ele>276.04</ele>
        <time>2020-07-11T14:01:36Z</time>
      </trkpt>
      <trkpt lat="44.61041" lon="2.0559">
        <ele>275.07</ele>
        <time>2020-07-11T14:01:38Z</time>
      </trkpt>
      <trkpt lat="44.61042" lon="2.05587">
        <ele>276.52</ele>
        <time>2020-07-11T14:01:40Z</time>
      </trkpt>
      <trkpt lat="44.61037" lon="2.05561">
        <ele>273.63</ele>
        <time>2020-07-11T14:01:58Z</time>
      </trkpt>
      <trkpt lat="44.61031" lon="2.05535">
        <ele>271.23</ele>
        <time>2020-07-11T14:02:17Z</time>
      </trkpt>
      <trkpt lat="44.61026" lon="2.05511">
        <ele>268.35</ele>
        <time>2020-07-11T14:02:35Z</time>
      </trkpt>
      <trkpt lat="44.61022" lon="2.05495">
        <ele>264.98</ele>
        <time>2020-07-11T14:02:49Z</time>
      </trkpt>
      <trkpt lat="44.61016" lon="2.05474">
        <ele>263.06</ele>
        <time>2020-07-11T14:03:03Z</time>
      </trkpt>
      <trkpt lat="44.61009" lon="2.05445">
        <ele>260.17</ele>
        <time>2020-07-11T14:03:22Z</time>
      </trkpt>
      <trkpt lat="44.61003" lon="2.05414">
        <ele>257.29</ele>
        <time>2020-07-11T14:03:41Z</time>
      </trkpt>
      <trkpt lat="44.61" lon="2.05399">
        <ele>253.93</ele>
        <time>2020-07-11T14:03:53Z</time>
      </trkpt>
      <trkpt lat="44.60998" lon="2.05389">
        <ele>251.52</ele>
        <time>2020-07-11T14:03:59Z</time>
      </trkpt>
      <trkpt lat="44.60993" lon="2.05377">
        <ele>250.08</ele>
        <time>2020-07-11T14:04:06Z</time>
      </trkpt>
      <trkpt lat="44.60992" lon="2.05358">
        <ele>247.2</ele>
        <time>2020-07-11T14:04:19Z</time>
      </trkpt>
      <trkpt lat="44.6099" lon="2.05331">
        <ele>245.27</ele>
        <time>2020-07-11T14:04:37Z</time>
      </trkpt>
      <trkpt lat="44.60992" lon="2.05305">
        <ele>242.39</ele>
        <time>2020-07-11T14:04:54Z</time>
      </trkpt>
      <trkpt lat="44.60995" lon="2.05281">
        <ele>239.02</ele>
        <time>2020-07-11T14:05:08Z</time>
      </trkpt>
      <trkpt lat="44.60995" lon="2.05253">
        <ele>235.66</ele>
        <time>2020-07-11T14:05:26Z</time>
      </trkpt>
      <trkpt lat="44.60992" lon="2.05248">
        <ele>234.22</ele>
        <time>2020-07-11T14:05:30Z</time>
      </trkpt>
      <trkpt lat="44.60986" lon="2.0523">
        <ele>230.37</ele>
        <time>2020-07-11T14:05:45Z</time>
      </trkpt>
      <trkpt lat="44.60981" lon="2.05221">
        <ele>228.93</ele>
        <time>2020-07-11T14:06:01Z</time>
      </trkpt>
      <trkpt lat="44.60979" lon="2.05201">
        <ele>226.05</ele>
        <time>2020-07-11T14:06:15Z</time>
      </trkpt>
      <trkpt lat="44.60977" lon="2.05178">
        <ele>222.2</ele>
        <time>2020-07-11T14:06:31Z</time>
      </trkpt>
      <trkpt lat="44.60978" lon="2.05176">
        <ele>222.2</ele>
        <time>2020-07-11T14:06:32Z</time>
      </trkpt>
      <trkpt lat="44.60975" lon="2.05152">
        <ele>220.28</ele>
        <time>2020-07-11T14:06:51Z</time>
      </trkpt>
      <trkpt lat="44.6098" lon="2.05123">
        <ele>216.91</ele>
        <time>2020-07-11T14:07:10Z</time>
      </trkpt>
      <trkpt lat="44.60988" lon="2.05096">
        <ele>214.51</ele>
        <time>2020-07-11T14:07:29Z</time>
      </trkpt>
      <trkpt lat="44.60988" lon="2.05089">
        <ele>212.59</ele>
        <time>2020-07-11T14:07:45Z</time>
      </trkpt>
      <trkpt lat="44.6099" lon="2.05082">
        <ele>212.11</ele>
        <time>2020-07-11T14:08:12Z</time>
      </trkpt>
      <trkpt lat="44.60993" lon="2.05091">
        <ele>212.11</ele>
        <time>2020-07-11T14:08:35Z</time>
      </trkpt>
      <trkpt lat="44.60989" lon="2.05094">
        <ele>212.11</ele>
        <time>2020-07-11T14:09:02Z</time>
      </trkpt>
      <trkpt lat="44.60991" lon="2.05092">
        <ele>212.11</ele>
        <time>2020-07-11T14:09:27Z</time>
      </trkpt>
      <trkpt lat="44.60989" lon="2.05091">
        <ele>212.11</ele>
        <time>2020-07-11T14:09:49Z</time>
      </trkpt>
      <trkpt lat="44.60985" lon="2.05086">
        <ele>212.11</ele>
        <time>2020-07-11T14:10:14Z</time>
      </trkpt>
      <trkpt lat="44.60973" lon="2.05089">
        <ele>211.15</ele>
        <time>2020-07-11T14:10:30Z</time>
      </trkpt>
      <trkpt lat="44.60961" lon="2.05093">
        <ele>210.19</ele>
        <time>2020-07-11T14:10:44Z</time>
      </trkpt>
      <trkpt lat="44.60954" lon="2.05093">
        <ele>209.7</ele>
        <time>2020-07-11T14:10:50Z</time>
      </trkpt>
      <trkpt lat="44.60938" lon="2.05087">
        <ele>207.78</ele>
        <time>2020-07-11T14:11:10Z</time>
      </trkpt>
      <trkpt lat="44.60936" lon="2.05078">
        <ele>207.3</ele>
        <time>2020-07-11T14:11:28Z</time>
      </trkpt>
      <trkpt lat="44.60924" lon="2.05064">
        <ele>206.34</ele>
        <time>2020-07-11T14:11:47Z</time>
      </trkpt>
      <trkpt lat="44.60923" lon="2.05064">
        <ele>206.34</ele>
        <time>2020-07-11T14:12:07Z</time>
      </trkpt>
      <trkpt lat="44.60919" lon="2.0506">
        <ele>206.34</ele>
        <time>2020-07-11T14:12:11Z</time>
      </trkpt>
      <trkpt lat="44.60915" lon="2.05036">
        <ele>206.82</ele>
        <time>2020-07-11T14:12:26Z</time>
      </trkpt>
      <trkpt lat="44.60916" lon="2.05032">
        <ele>204.9</ele>
        <time>2020-07-11T14:12:28Z</time>
      </trkpt>
      <trkpt lat="44.60912" lon="2.05004">
        <ele>205.38</ele>
        <time>2020-07-11T14:12:47Z</time>
      </trkpt>
      <trkpt lat="44.60906" lon="2.04993">
        <ele>205.38</ele>
        <time>2020-07-11T14:13:08Z</time>
      </trkpt>
      <trkpt lat="44.60896" lon="2.04973">
        <ele>205.38</ele>
        <time>2020-07-11T14:13:23Z</time>
      </trkpt>
      <trkpt lat="44.6089" lon="2.0495">
        <ele>205.38</ele>
        <time>2020-07-11T14:13:38Z</time>
      </trkpt>
      <trkpt lat="44.60883" lon="2.0493">
        <ele>203.94</ele>
        <time>2020-07-11T14:13:51Z</time>
      </trkpt>
      <trkpt lat="44.60879" lon="2.04924">
        <ele>204.42</ele>
        <time>2020-07-11T14:13:56Z</time>
      </trkpt>
      <trkpt lat="44.60872" lon="2.04913">
        <ele>202.98</ele>
        <time>2020-07-11T14:14:09Z</time>
      </trkpt>
      <trkpt lat="44.60869" lon="2.04909">
        <ele>204.42</ele>
        <time>2020-07-11T14:14:12Z</time>
      </trkpt>
      <trkpt lat="44.60859" lon="2.04892">
        <ele>203.46</ele>
        <time>2020-07-11T14:14:25Z</time>
      </trkpt>
      <trkpt lat="44.60856" lon="2.04886">
        <ele>204.42</ele>
        <time>2020-07-11T14:14:30Z</time>
      </trkpt>
      <trkpt lat="44.60852" lon="2.0488">
        <ele>204.42</ele>
        <time>2020-07-11T14:14:35Z</time>
      </trkpt>
      <trkpt lat="44.60843" lon="2.04865">
        <ele>203.46</ele>
        <time>2020-07-11T14:14:48Z</time>
      </trkpt>
      <trkpt lat="44.60831" lon="2.04836">
        <ele>203.46</ele>
        <time>2020-07-11T14:15:04Z</time>
      </trkpt>
      <trkpt lat="44.60818" lon="2.04821">
        <ele>203.46</ele>
        <time>2020-07-11T14:15:20Z</time>
      </trkpt>
      <trkpt lat="44.60805" lon="2.04795">
        <ele>203.94</ele>
        <time>2020-07-11T14:15:40Z</time>
      </trkpt>
      <trkpt lat="44.60801" lon="2.04787">
        <ele>202.49</ele>
        <time>2020-07-11T14:15:46Z</time>
      </trkpt>
      <trkpt lat="44.60799" lon="2.04782">
        <ele>204.42</ele>
        <time>2020-07-11T14:15:49Z</time>
      </trkpt>
      <trkpt lat="44.60786" lon="2.04749">
        <ele>204.42</ele>
        <time>2020-07-11T14:16:10Z</time>
      </trkpt>
      <trkpt lat="44.6078" lon="2.04719">
        <ele>203.94</ele>
        <time>2020-07-11T14:16:30Z</time>
      </trkpt>
      <trkpt lat="44.60779" lon="2.04697">
        <ele>204.42</ele>
        <time>2020-07-11T14:16:47Z</time>
      </trkpt>
      <trkpt lat="44.60774" lon="2.04685">
        <ele>203.46</ele>
        <time>2020-07-11T14:17:05Z</time>
      </trkpt>
      <trkpt lat="44.60771" lon="2.04656">
        <ele>203.94</ele>
        <time>2020-07-11T14:17:22Z</time>
      </trkpt>
      <trkpt lat="44.60766" lon="2.04627">
        <ele>203.94</ele>
        <time>2020-07-11T14:17:41Z</time>
      </trkpt>
      <trkpt lat="44.60766" lon="2.04625">
        <ele>205.38</ele>
        <time>2020-07-11T14:17:43Z</time>
      </trkpt>
      <trkpt lat="44.60767" lon="2.04599">
        <ele>205.86</ele>
        <time>2020-07-11T14:18:00Z</time>
      </trkpt>
      <trkpt lat="44.60768" lon="2.046">
        <ele>205.86</ele>
        <time>2020-07-11T14:18:08Z</time>
      </trkpt>
      <trkpt lat="44.60761" lon="2.04575">
        <ele>206.82</ele>
        <time>2020-07-11T14:18:26Z</time>
      </trkpt>
      <trkpt lat="44.60754" lon="2.04546">
        <ele>207.3</ele>
        <time>2020-07-11T14:18:45Z</time>
      </trkpt>
      <trkpt lat="44.60753" lon="2.04518">
        <ele>208.26</ele>
        <time>2020-07-11T14:19:02Z</time>
      </trkpt>
      <trkpt lat="44.60751" lon="2.04482">
        <ele>209.22</ele>
        <time>2020-07-11T14:19:23Z</time>
      </trkpt>
      <trkpt lat="44.60751" lon="2.04479">
        <ele>207.78</ele>
        <time>2020-07-11T14:19:25Z</time>
      </trkpt>
      <trkpt lat="44.60749" lon="2.04469">
        <ele>207.3</ele>
        <time>2020-07-11T14:19:32Z</time>
      </trkpt>
      <trkpt lat="44.60744" lon="2.04433">
        <ele>209.7</ele>
        <time>2020-07-11T14:19:54Z</time>
      </trkpt>
      <trkpt lat="44.60741" lon="2.04423">
        <ele>208.74</ele>
        <time>2020-07-11T14:20:01Z</time>
      </trkpt>
      <trkpt lat="44.60741" lon="2.0442">
        <ele>210.19</ele>
        <time>2020-07-11T14:20:03Z</time>
      </trkpt>
      <trkpt lat="44.60737" lon="2.04403">
        <ele>209.7</ele>
        <time>2020-07-11T14:20:14Z</time>
      </trkpt>
      <trkpt lat="44.60727" lon="2.04373">
        <ele>211.15</ele>
        <time>2020-07-11T14:20:34Z</time>
      </trkpt>
      <trkpt lat="44.60719" lon="2.04337">
        <ele>211.15</ele>
        <time>2020-07-11T14:20:55Z</time>
      </trkpt>
      <trkpt lat="44.60718" lon="2.04329">
        <ele>209.7</ele>
        <time>2020-07-11T14:21:00Z</time>
      </trkpt>
      <trkpt lat="44.60717" lon="2.04325">
        <ele>211.15</ele>
        <time>2020-07-11T14:21:03Z</time>
      </trkpt>
      <trkpt lat="44.60712" lon="2.04298">
        <ele>210.19</ele>
        <time>2020-07-11T14:21:18Z</time>
      </trkpt>
      <trkpt lat="44.60712" lon="2.04295">
        <ele>208.26</ele>
        <time>2020-07-11T14:21:20Z</time>
      </trkpt>
      <trkpt lat="44.60708" lon="2.04288">
        <ele>209.7</ele>
        <time>2020-07-11T14:21:27Z</time>
      </trkpt>
      <trkpt lat="44.60708" lon="2.04284">
        <ele>207.78</ele>
        <time>2020-07-11T14:21:29Z</time>
      </trkpt>
      <trkpt lat="44.60707" lon="2.04281">
        <ele>209.22</ele>
        <time>2020-07-11T14:21:31Z</time>
      </trkpt>
      <trkpt lat="44.60707" lon="2.04266">
        <ele>207.78</ele>
        <time>2020-07-11T14:21:41Z</time>
      </trkpt>
      <trkpt lat="44.60713" lon="2.04252">
        <ele>207.78</ele>
        <time>2020-07-11T14:21:54Z</time>
      </trkpt>
      <trkpt lat="44.60715" lon="2.04242">
        <ele>207.78</ele>
        <time>2020-07-11T14:22:09Z</time>
      </trkpt>
      <trkpt lat="44.60715" lon="2.0424">
        <ele>206.82</ele>
        <time>2020-07-11T14:22:24Z</time>
      </trkpt>
      <trkpt lat="44.60715" lon="2.04239">
        <ele>206.82</ele>
        <time>2020-07-11T14:22:37Z</time>
      </trkpt>
      <trkpt lat="44.6071" lon="2.04228">
        <ele>206.82</ele>
        <time>2020-07-11T14:22:52Z</time>
      </trkpt>
      <trkpt lat="44.60708" lon="2.0422">
        <ele>206.34</ele>
        <time>2020-07-11T14:23:08Z</time>
      </trkpt>
      <trkpt lat="44.60705" lon="2.04222">
        <ele>206.34</ele>
        <time>2020-07-11T14:23:25Z</time>
      </trkpt>
      <trkpt lat="44.60706" lon="2.04217">
        <ele>206.34</ele>
        <time>2020-07-11T14:23:31Z</time>
      </trkpt>
      <trkpt lat="44.60709" lon="2.04197">
        <ele>206.34</ele>
        <time>2020-07-11T14:23:46Z</time>
      </trkpt>
      <trkpt lat="44.60709" lon="2.04194">
        <ele>206.34</ele>
        <time>2020-07-11T14:23:48Z</time>
      </trkpt>
      <trkpt lat="44.60706" lon="2.04183">
        <ele>206.34</ele>
        <time>2020-07-11T14:23:55Z</time>
      </trkpt>
      <trkpt lat="44.60704" lon="2.04162">
        <ele>206.34</ele>
        <time>2020-07-11T14:24:10Z</time>
      </trkpt>
      <trkpt lat="44.60696" lon="2.04124">
        <ele>207.78</ele>
        <time>2020-07-11T14:24:32Z</time>
      </trkpt>
      <trkpt lat="44.60695" lon="2.0411">
        <ele>206.34</ele>
        <time>2020-07-11T14:24:41Z</time>
      </trkpt>
      <trkpt lat="44.6069" lon="2.04087">
        <ele>207.78</ele>
        <time>2020-07-11T14:24:56Z</time>
      </trkpt>
      <trkpt lat="44.60689" lon="2.04075">
        <ele>206.34</ele>
        <time>2020-07-11T14:25:03Z</time>
      </trkpt>
      <trkpt lat="44.60689" lon="2.04072">
        <ele>207.78</ele>
        <time>2020-07-11T14:25:05Z</time>
      </trkpt>
      <trkpt lat="44.60688" lon="2.04046">
        <ele>207.3</ele>
        <time>2020-07-11T14:25:22Z</time>
      </trkpt>
      <trkpt lat="44.6069" lon="2.04019">
        <ele>207.78</ele>
        <time>2020-07-11T14:25:40Z</time>
      </trkpt>
      <trkpt lat="44.60687" lon="2.04008">
        <ele>206.34</ele>
        <time>2020-07-11T14:25:47Z</time>
      </trkpt>
      <trkpt lat="44.60683" lon="2.03981">
        <ele>206.34</ele>
        <time>2020-07-11T14:26:04Z</time>
      </trkpt>
      <trkpt lat="44.60682" lon="2.03973">
        <ele>207.3</ele>
        <time>2020-07-11T14:26:08Z</time>
      </trkpt>
      <trkpt lat="44.60681" lon="2.03957">
        <ele>205.38</ele>
        <time>2020-07-11T14:26:16Z</time>
      </trkpt>
      <trkpt lat="44.60681" lon="2.03953">
        <ele>207.3</ele>
        <time>2020-07-11T14:26:18Z</time>
      </trkpt>
      <trkpt lat="44.60679" lon="2.03936">
        <ele>205.38</ele>
        <time>2020-07-11T14:26:29Z</time>
      </trkpt>
      <trkpt lat="44.60679" lon="2.03933">
        <ele>206.82</ele>
        <time>2020-07-11T14:26:31Z</time>
      </trkpt>
      <trkpt lat="44.60676" lon="2.03904">
        <ele>204.9</ele>
        <time>2020-07-11T14:26:48Z</time>
      </trkpt>
      <trkpt lat="44.60675" lon="2.03899">
        <ele>206.34</ele>
        <time>2020-07-11T14:26:51Z</time>
      </trkpt>
      <trkpt lat="44.60676" lon="2.03874">
        <ele>206.34</ele>
        <time>2020-07-11T14:27:06Z</time>
      </trkpt>
      <trkpt lat="44.60672" lon="2.03858">
        <ele>204.9</ele>
        <time>2020-07-11T14:27:16Z</time>
      </trkpt>
      <trkpt lat="44.60668" lon="2.03837">
        <ele>205.38</ele>
        <time>2020-07-11T14:27:27Z</time>
      </trkpt>
      <trkpt lat="44.60669" lon="2.03811">
        <ele>205.38</ele>
        <time>2020-07-11T14:27:42Z</time>
      </trkpt>
      <trkpt lat="44.60669" lon="2.03809">
        <ele>203.94</ele>
        <time>2020-07-11T14:27:43Z</time>
      </trkpt>
      <trkpt lat="44.60668" lon="2.03806">
        <ele>203.94</ele>
        <time>2020-07-11T14:27:44Z</time>
      </trkpt>
      <trkpt lat="44.60668" lon="2.03804">
        <ele>205.38</ele>
        <time>2020-07-11T14:27:45Z</time>
      </trkpt>
      <trkpt lat="44.60667" lon="2.03802">
        <ele>205.86</ele>
        <time>2020-07-11T14:27:46Z</time>
      </trkpt>
      <trkpt lat="44.60666" lon="2.038">
        <ele>205.86</ele>
        <time>2020-07-11T14:27:47Z</time>
      </trkpt>
      <trkpt lat="44.60665" lon="2.03798">
        <ele>205.86</ele>
        <time>2020-07-11T14:27:48Z</time>
      </trkpt>
      <trkpt lat="44.60664" lon="2.03797">
        <ele>205.86</ele>
        <time>2020-07-11T14:27:49Z</time>
      </trkpt>
      <trkpt lat="44.60663" lon="2.03795">
        <ele>205.86</ele>
        <time>2020-07-11T14:27:50Z</time>
      </trkpt>
      <trkpt lat="44.60659" lon="2.0378">
        <ele>203.46</ele>
        <time>2020-07-11T14:28:02Z</time>
      </trkpt>
      <trkpt lat="44.60659" lon="2.03777">
        <ele>204.42</ele>
        <time>2020-07-11T14:28:04Z</time>
      </trkpt>
      <trkpt lat="44.60662" lon="2.03749">
        <ele>203.46</ele>
        <time>2020-07-11T14:28:22Z</time>
      </trkpt>
      <trkpt lat="44.60663" lon="2.03731">
        <ele>202.98</ele>
        <time>2020-07-11T14:28:37Z</time>
      </trkpt>
      <trkpt lat="44.60662" lon="2.03728">
        <ele>204.42</ele>
        <time>2020-07-11T14:28:39Z</time>
      </trkpt>
      <trkpt lat="44.60665" lon="2.03711">
        <ele>204.42</ele>
        <time>2020-07-11T14:28:55Z</time>
      </trkpt>
      <trkpt lat="44.60665" lon="2.03709">
        <ele>202.98</ele>
        <time>2020-07-11T14:28:58Z</time>
      </trkpt>
      <trkpt lat="44.60658" lon="2.03687">
        <ele>204.42</ele>
        <time>2020-07-11T14:29:16Z</time>
      </trkpt>
      <trkpt lat="44.60659" lon="2.03686">
        <ele>204.42</ele>
        <time>2020-07-11T14:29:27Z</time>
      </trkpt>
      <trkpt lat="44.60659" lon="2.03686">
        <ele>202.98</ele>
        <time>2020-07-11T14:29:28Z</time>
      </trkpt>
      <trkpt lat="44.60658" lon="2.03684">
        <ele>202.98</ele>
        <time>2020-07-11T14:29:29Z</time>
      </trkpt>
      <trkpt lat="44.60656" lon="2.03677">
        <ele>204.42</ele>
        <time>2020-07-11T14:29:35Z</time>
      </trkpt>
      <trkpt lat="44.60653" lon="2.03668">
        <ele>202.98</ele>
        <time>2020-07-11T14:29:43Z</time>
      </trkpt>
      <trkpt lat="44.60652" lon="2.03661">
        <ele>202.98</ele>
        <time>2020-07-11T14:29:48Z</time>
      </trkpt>
      <trkpt lat="44.60651" lon="2.03659">
        <ele>202.98</ele>
        <time>2020-07-11T14:29:49Z</time>
      </trkpt>
      <trkpt lat="44.60649" lon="2.03655">
        <ele>204.42</ele>
        <time>2020-07-11T14:29:52Z</time>
      </trkpt>
      <trkpt lat="44.6065" lon="2.03648">
        <ele>202.98</ele>
        <time>2020-07-11T14:29:55Z</time>
      </trkpt>
      <trkpt lat="44.60647" lon="2.03625">
        <ele>204.9</ele>
        <time>2020-07-11T14:30:10Z</time>
      </trkpt>
      <trkpt lat="44.60647" lon="2.03615">
        <ele>204.9</ele>
        <time>2020-07-11T14:30:15Z</time>
      </trkpt>
      <trkpt lat="44.60645" lon="2.03608">
        <ele>202.49</ele>
        <time>2020-07-11T14:30:19Z</time>
      </trkpt>
      <trkpt lat="44.60645" lon="2.03606">
        <ele>203.94</ele>
        <time>2020-07-11T14:30:21Z</time>
      </trkpt>
      <trkpt lat="44.60644" lon="2.03585">
        <ele>202.01</ele>
        <time>2020-07-11T14:30:36Z</time>
      </trkpt>
      <trkpt lat="44.60644" lon="2.03574">
        <ele>203.46</ele>
        <time>2020-07-11T14:30:44Z</time>
      </trkpt>
      <trkpt lat="44.60642" lon="2.03556">
        <ele>203.46</ele>
        <time>2020-07-11T14:30:58Z</time>
      </trkpt>
      <trkpt lat="44.60642" lon="2.03549">
        <ele>203.46</ele>
        <time>2020-07-11T14:31:14Z</time>
      </trkpt>
      <trkpt lat="44.60644" lon="2.03546">
        <ele>203.46</ele>
        <time>2020-07-11T14:31:37Z</time>
      </trkpt>
      <trkpt lat="44.60645" lon="2.03546">
        <ele>202.01</ele>
        <time>2020-07-11T14:31:39Z</time>
      </trkpt>
      <trkpt lat="44.60647" lon="2.03545">
        <ele>202.01</ele>
        <time>2020-07-11T14:31:57Z</time>
      </trkpt>
      <trkpt lat="44.60649" lon="2.03544">
        <ele>203.46</ele>
        <time>2020-07-11T14:32:15Z</time>
      </trkpt>
      <trkpt lat="44.60647" lon="2.03539">
        <ele>202.49</ele>
        <time>2020-07-11T14:32:24Z</time>
      </trkpt>
      <trkpt lat="44.60662" lon="2.03547">
        <ele>202.01</ele>
        <time>2020-07-11T14:35:04Z</time>
      </trkpt>
      <trkpt lat="44.60651" lon="2.03546">
        <ele>202.01</ele>
        <time>2020-07-11T14:35:23Z</time>
      </trkpt>
      <trkpt lat="44.60662" lon="2.03548">
        <ele>203.94</ele>
        <time>2020-07-11T14:40:08Z</time>
      </trkpt>
    </trkseg>
  </trk>
</gpx>